| parent folder | - | - |
| DIR | 53391_fucked without sense/ | 21 | 2026-03-24 21:32:25 |
| DIR | 53392_failed attempt to draw in another style/ | 34 | 2026-03-24 21:32:25 |
| DIR | 53609_waste of time/ | 51 | 2026-03-24 21:32:26 |
| DIR | 65535_Good ending (comic)/ | 4032592 | 2026-03-24 23:33:58 |
| DIR | 67493_halloween pics / | 28 | 2026-03-24 23:33:59 |
| DIR | 67493_halloween pics/ | 16069812 | 2026-03-24 23:33:59 |
| DIR | 67980_A Relaxing shower (Remake)/ | 3374202 | 2026-03-24 23:33:58 |
| DIR | 77924_Rule 34 de guadalupe/ | 26089935 | 2026-03-24 23:33:58 |
| - | 1175216.json | 4625 | 2025-05-03 21:21:14 |
| - | 1175216_1634436_Angrybird69_sketch2862116.jpg | 416486 | 2025-05-03 21:21:14 |
| - | 1182992.json | 4388 | 2025-05-04 00:15:14 |
| - | 1182992_1646747_Angrybird69__20160903_232636.jpg | 79928 | 2025-05-04 00:15:14 |
| - | 1183040.json | 5014 | 2025-05-04 00:16:14 |
| - | 1183040_1646809_Angrybird69_sketch4012452.png | 180390 | 2025-05-04 00:16:14 |
| - | 1184426.json | 4693 | 2025-05-04 00:47:28 |
| - | 1184426_1648832_Angrybird69_img_20160822_141947.jpg | 104475 | 2025-05-04 00:47:28 |
| - | 1184435.json | 4522 | 2025-05-04 00:47:48 |
| - | 1184435_1648841_Angrybird69__20160906_030100.jpg | 25138 | 2025-05-04 00:47:48 |
| - | 1184661.json | 4423 | 2025-05-04 00:54:01 |
| - | 1184661_1649205_Angrybird69_bateswolf.jpg | 101624 | 2025-05-04 00:54:01 |
| - | 1185492.json | 4619 | 2025-05-04 01:12:59 |
| - | 1185492_1650432_Angrybird69_sketch73181558.png | 188744 | 2025-05-04 01:12:59 |
| - | 1185774.json | 5389 | 2025-05-04 01:19:32 |
| - | 1185774_1650868_Angrybird69_sexywolf.jpg | 182502 | 2025-05-04 01:19:32 |
| - | 1190029.json | 4881 | 2025-05-04 02:51:12 |
| - | 1190029_1658051_Angrybird69_sketch15125152.png | 258049 | 2025-05-04 02:51:12 |
| - | 1190033.json | 4641 | 2025-05-04 02:51:17 |
| - | 1190033_1658061_Angrybird69_sketch144151419.png | 360401 | 2025-05-04 02:51:17 |
| - | 1191200.json | 4625 | 2025-05-04 03:16:38 |
| - | 1191200_1659715_Angrybird69_sketch10213456.jpg | 126985 | 2025-05-04 03:16:38 |
| - | 1192889.json | 6158 | 2025-05-04 03:54:50 |
| - | 1192889_1662516_Angrybird69_sexywolf2.jpg | 221568 | 2025-05-04 03:54:50 |
| - | 1195329.json | 6427 | 2025-05-04 04:48:38 |
| - | 1195329_1666326_Angrybird69_b_teswolf.jpg | 235042 | 2025-05-04 04:48:38 |
| - | 1196693.json | 4764 | 2025-05-04 05:18:23 |
| - | 1196693_1668411_Angrybird69_sketch12232554.png | 242830 | 2025-05-04 05:18:23 |
| - | 1196722.json | 6784 | 2025-05-04 05:19:00 |
| - | 1196722_1668444_Angrybird69_arttradewolfie.jpg | 329660 | 2025-05-04 05:19:00 |
| - | 1198304.json | 4716 | 2025-05-04 05:52:44 |
| - | 1198304_1670877_Angrybird69_bateswolf1.jpg | 174833 | 2025-05-04 05:52:44 |
| - | 1199941.json | 4663 | 2025-05-04 06:29:14 |
| - | 1199941_1673448_Angrybird69__20160926_001635.jpg | 79588 | 2025-05-04 06:29:14 |
| - | 1201089.json | 6251 | 2025-05-04 06:54:23 |
| - | 1201089_1675054_Angrybird69_sexywolf.jpg | 349846 | 2025-05-04 06:54:23 |
| - | 1202651.json | 6896 | 2025-05-04 07:28:02 |
| - | 1202651_1677221_Angrybird69_1677130_alessio626_getting_pawed_off_sketch_22_colored.jpg | 882422 | 2025-05-04 07:28:02 |
| - | 1204894.json | 6206 | 2025-05-04 08:18:26 |
| - | 1204894_1680736_Angrybird69_wolf55.jpg | 256449 | 2025-05-04 08:18:26 |
| - | 1205279.json | 4834 | 2025-05-04 08:27:18 |
| - | 1205279_1681234_Angrybird69_img_20161004_120819.jpg | 83078 | 2025-05-04 08:27:18 |
| - | 1205750.json | 4715 | 2025-05-04 08:37:36 |
| - | 1205750_1681871_Angrybird69_b_teswolf3.jpg | 115320 | 2025-05-04 08:37:36 |
| - | 1206912.json | 4922 | 2025-05-04 09:04:15 |
| - | 1206912_1683569_Angrybird69__20161006_230108.jpg | 102639 | 2025-05-04 09:04:15 |
| - | 1207272.json | 4894 | 2018-11-21 10:12:17 |
| - | 1207272_1684089_Angrybird69_bates_fuck_yin.jpg | 290652 | 2018-11-21 10:12:17 |
| - | 1209358.json | 4882 | 2025-05-04 10:12:09 |
| - | 1209358_1687040_Angrybird69_parrapa_bates.jpg | 231318 | 2025-05-04 10:12:09 |
| - | 1210199.json | 4646 | 2025-05-04 10:34:51 |
| - | 1210199_1688357_Angrybird69_wolf44.jpg | 227949 | 2025-05-04 10:34:51 |
| - | 1216783.json | 4651 | 2025-05-04 13:30:15 |
| - | 1216783_1698105_Angrybird69__20160505_143217.jpg | 84106 | 2025-05-04 13:30:15 |
| - | 1216784.json | 4609 | 2025-05-04 13:30:19 |
| - | 1216784_1698106_Angrybird69_sketch2230449.png | 257337 | 2025-05-04 13:30:19 |
| - | 1219258.json | 6516 | 2025-05-04 14:32:03 |
| - | 1219258_1701834_Angrybird69_sketch252194515.jpg | 344396 | 2025-05-04 14:32:03 |
| - | 1221836.json | 5224 | 2025-05-04 15:32:41 |
| - | 1221836_1705549_Angrybird69_sketch296225026.jpg | 226428 | 2025-05-04 15:32:41 |
| - | 1226636.json | 8287 | 2025-05-04 17:27:58 |
| - | 1226636_1712836_Angrybird69_sketch56161640.jpg | 213406 | 2025-05-04 17:27:58 |
| - | 1226636_1712839_Angrybird69_sketch56163729.jpg | 251765 | 2025-05-04 17:27:58 |
| - | 1229656.json | 4622 | 2025-05-04 18:35:02 |
| - | 1229656_1717381_Angrybird69_sketch10422726.jpg | 193393 | 2025-05-04 18:35:02 |
| - | 1231968.json | 7098 | 2025-05-04 19:26:09 |
| - | 1231968_1720599_Angrybird69_sketch13016457.jpg | 223323 | 2025-05-04 19:26:09 |
| - | 1232956.json | 5251 | 2025-05-04 19:47:58 |
| - | 1232956_1722005_Angrybird69_sketch15224829.jpg | 185406 | 2025-05-04 19:47:58 |
| - | 1235004.json | 5220 | 2025-05-04 20:32:24 |
| - | 1235004_1724949_Angrybird69_sketch17443857.jpg | 209000 | 2025-05-04 20:32:24 |
| - | 1235005.json | 8422 | 2025-05-04 20:32:25 |
| - | 1235005_1724950_Angrybird69_sketch17414318.jpg | 241707 | 2025-05-04 20:32:25 |
| - | 1235005_1724951_Angrybird69_sketch17415251.jpg | 237433 | 2025-05-04 20:32:25 |
| - | 1236932.json | 7266 | 2025-05-04 21:16:57 |
| - | 1236932_1727958_Angrybird69_sketch200162151.jpg | 392807 | 2025-05-04 21:16:57 |
| - | 1238789.json | 5356 | 2025-05-04 21:59:00 |
| - | 1238789_1730747_Angrybird69_sketch233145331.png | 386654 | 2025-05-04 21:59:00 |
| - | 1240245.json | 4906 | 2025-05-04 22:31:37 |
| - | 1240245_1732911_Angrybird69_sketch266134837.jpg | 305476 | 2025-05-04 22:31:37 |
| - | 1244058.json | 6477 | 2025-05-04 23:56:47 |
| - | 1244058_1738869_Angrybird69_sketch25132230.jpg | 284279 | 2025-05-04 23:56:47 |
| - | 1244580.json | 6409 | 2025-05-05 00:08:40 |
| - | 1244580_1739703_Angrybird69_sketch36112911.jpg | 251469 | 2025-05-05 00:08:40 |
| - | 1244615.json | 10088 | 2025-05-05 00:09:24 |
| - | 1244615_1739770_Angrybird69_sketch3612256.jpg | 193932 | 2025-05-05 00:09:24 |
| - | 1244615_1739772_Angrybird69_sketch36121713.jpg | 195857 | 2025-05-05 00:09:24 |
| - | 1244615_1739773_Angrybird69_sketch36122748.jpg | 201732 | 2025-05-05 00:09:25 |
| - | 1245221.json | 6750 | 2025-05-05 00:22:38 |
| - | 1245221_1740699_Angrybird69_batesxtiffany.jpg | 287627 | 2025-05-05 00:22:38 |
| - | 1246123.json | 6160 | 2025-05-05 00:43:29 |
| - | 1246123_1742115_Angrybird69_sexywolf.png | 273147 | 2025-05-05 00:43:29 |
| - | 1246376.json | 8083 | 2025-05-05 00:49:31 |
| - | 1246376_1742553_Angrybird69_1742503_alessio626_back_on_belly_anal_fuck_sketch_27_colored.jpg | 1374030 | 2025-05-05 00:49:31 |
| - | 1247068.json | 8529 | 2025-05-05 01:06:17 |
| - | 1247068_1743542_Angrybird69_bates.jpg | 241751 | 2025-05-05 01:06:17 |
| - | 1247068_1743553_Angrybird69_tiffany.jpg | 248322 | 2025-05-05 01:06:17 |
| - | 1247259.json | 8691 | 2018-11-21 14:23:12 |
| - | 1247259_1743778_Angrybird69_maxcooper2.png | 203450 | 2018-11-21 14:23:12 |
| - | 1247259_1743779_Angrybird69_maxcooper.png | 174389 | 2018-11-21 14:23:12 |
| - | 1247320.json | 5347 | 2025-05-05 01:13:23 |
| - | 1247320_1743872_Angrybird69__20161207_223326.jpg | 113584 | 2025-05-05 01:13:23 |
| - | 1247619.json | 6173 | 2025-05-05 01:20:26 |
| - | 1247619_1744351_Angrybird69_sketch8414415.png | 244199 | 2025-05-05 01:20:26 |
| - | 1247820.json | 6297 | 2025-05-05 01:24:53 |
| - | 1247820_1744659_Angrybird69_twowolfs.png | 233665 | 2025-05-05 01:24:53 |
| - | 1248120.json | 10802 | 2025-05-05 01:31:34 |
| - | 1248120_1745087_Angrybird69_sketch84211237.png | 227041 | 2025-05-05 01:31:34 |
| - | 1248120_1745088_Angrybird69_wolfsexy2.png | 165277 | 2025-05-05 01:31:35 |
| - | 1248120_1745090_Angrybird69_wolfsexy1.png | 129804 | 2025-05-05 01:31:34 |
| - | 1248120_1745092_Angrybird69_sketch95112148.png | 407821 | 2025-05-05 01:31:34 |
| - | 1248734.json | 8525 | 2025-05-05 01:45:02 |
| - | 1248734_1746037_Angrybird69_sketch95142655.png | 206667 | 2025-05-05 01:45:02 |
| - | 1248734_1746040_Angrybird69_sketch95171335.png | 169586 | 2025-05-05 01:45:02 |
| - | 1249389.json | 6669 | 2025-05-05 01:59:25 |
| - | 1249389_1747007_Angrybird69_sketch110131727.png | 378059 | 2025-05-05 01:59:25 |
| - | 1250004.json | 8425 | 2025-05-05 02:12:56 |
| - | 1250004_1747991_Angrybird69_sketch110231310.jpg | 300445 | 2025-05-05 02:12:56 |
| - | 1250301.json | 6601 | 2025-05-05 02:19:22 |
| - | 1250301_1748410_Angrybird69_sketch121202814.png | 264045 | 2025-05-05 02:19:22 |
| - | 1251006.json | 5206 | 2025-05-05 02:34:33 |
| - | 1251006_1749413_Angrybird69_sketch14321042.png | 174007 | 2025-05-05 02:34:33 |
| - | 1252030.json | 4756 | 2025-05-05 02:58:01 |
| - | 1252030_1750879_Angrybird69_sketch15419100.png | 255143 | 2025-05-05 02:58:01 |
| - | 1252447.json | 4902 | 2025-05-05 03:07:04 |
| - | 1252447_1751443_Angrybird69_sketch154232246.png | 371707 | 2025-05-05 03:07:04 |
| - | 1252656.json | 10304 | 2025-05-05 03:12:03 |
| - | 1252656_1751721_Angrybird69_sketch165162457.png | 213277 | 2025-05-05 03:12:03 |
| - | 1252656_1751724_Angrybird69_sketch165163337.png | 205806 | 2025-05-05 03:12:03 |
| - | 1252721.json | 5091 | 2025-05-05 03:13:39 |
| - | 1252721_1751812_Angrybird69_sketch165182227.png | 275948 | 2025-05-05 03:13:39 |
| - | 1253454.json | 4866 | 2025-05-05 03:29:49 |
| - | 1253454_1752860_Angrybird69_sketch1800729.png | 193667 | 2025-05-05 03:29:49 |
| - | 1255185.json | 20373 | 2025-05-05 04:10:31 |
| - | 1255185_1755338_Angrybird69_page1.png | 247712 | 2025-05-05 04:10:30 |
| - | 1255185_1755339_Angrybird69_page2.png | 299325 | 2025-05-05 04:10:30 |
| - | 1255185_1755340_Angrybird69_page3.png | 316168 | 2025-05-05 04:10:30 |
| - | 1255185_1755341_Angrybird69_page4.png | 285754 | 2025-05-05 04:10:30 |
| - | 1255185_1755343_Angrybird69_page5.png | 266407 | 2025-05-05 04:10:30 |
| - | 1255185_1755345_Angrybird69_page6.png | 302052 | 2025-05-05 04:10:31 |
| - | 1255185_1755346_Angrybird69_page7.png | 232848 | 2025-05-05 04:10:31 |
| - | 1255185_1755347_Angrybird69_page8.png | 225532 | 2025-05-05 04:10:31 |
| - | 1255185_1755349_Angrybird69_page9.png | 360802 | 2025-05-05 04:10:31 |
| - | 1255913.json | 7903 | 2025-05-05 04:28:45 |
| - | 1255913_1756322_Angrybird69_avesiada.png | 171605 | 2025-05-05 04:28:45 |
| - | 1256817.json | 9072 | 2025-05-05 04:50:08 |
| - | 1256817_1757585_Angrybird69_sketch224172819.png | 263721 | 2025-05-05 04:50:08 |
| - | 1256817_1757586_Angrybird69_sketch2351350.png | 264029 | 2025-05-05 04:50:09 |
| - | 1257081.json | 5015 | 2025-05-05 04:56:43 |
| - | 1257081_1758021_Angrybird69_sketch23512589.png | 160577 | 2025-05-05 04:56:43 |
| - | 1257988.json | 6347 | 2025-05-05 05:17:30 |
| - | 1257988_1759326_Angrybird69_sketch246195534.png | 164276 | 2025-05-05 05:17:30 |
| - | 1259011.json | 10327 | 2025-05-05 05:40:49 |
| - | 1259011_1760816_Angrybird69_sketch2612317.png | 265423 | 2025-05-05 05:40:49 |
| - | 1259011_1760817_Angrybird69_sketch25031453.png | 288189 | 2025-05-05 05:40:49 |
| - | 1259011_1760818_Angrybird69_sketch2612634.png | 259859 | 2025-05-05 05:40:49 |
| - | 1259013.json | 4940 | 2025-05-05 05:40:52 |
| - | 1259013_1760820_Angrybird69_sketch235194657_1_.png | 370441 | 2025-05-05 05:40:52 |
| - | 1259744.json | 4620 | 2025-05-05 05:55:55 |
| - | 1259744_1762137_Angrybird69_sketch27215910.png | 128382 | 2025-05-05 05:55:55 |
| - | 1260001.json | 10594 | 2025-05-05 06:01:37 |
| - | 1260001_1762516_Angrybird69_sketch272135229.png | 169388 | 2025-05-05 06:01:37 |
| - | 1260001_1762519_Angrybird69_sketch272142854.png | 151742 | 2025-05-05 06:01:37 |
| - | 1260001_1762522_Angrybird69_sketch272143010.png | 174628 | 2025-05-05 06:01:37 |
| - | 1260497.json | 4471 | 2025-05-05 06:12:28 |
| - | 1260497_1763248_Angrybird69_img_201612363_033255.jpg | 279872 | 2025-05-05 06:12:28 |
| - | 1261176.json | 4961 | 2025-05-05 06:26:57 |
| - | 1261176_1764231_Angrybird69_sketch29413933.png | 257603 | 2025-05-05 06:26:57 |
| - | 1263079.json | 5257 | 2025-05-05 07:07:48 |
| - | 1263079_1766971_Angrybird69_img_20170101_112203.jpg | 96006 | 2025-05-05 07:07:48 |
| - | 1263081.json | 10814 | 2025-05-05 07:07:52 |
| - | 1263081_1766975_Angrybird69_sketch305152727.png | 278365 | 2025-05-05 07:07:52 |
| - | 1263081_1766976_Angrybird69_sketch305202157.png | 306803 | 2025-05-05 07:07:52 |
| - | 1263478.json | 6743 | 2025-05-05 07:16:19 |
| - | 1263478_1767597_Angrybird69_sketch10231346.png | 204398 | 2025-05-05 07:16:19 |
| - | 1263953.json | 5700 | 2025-05-05 07:26:58 |
| - | 1263953_1768339_Angrybird69_sketch211487.png | 376044 | 2025-05-05 07:26:58 |
| - | 1264466.json | 5451 | 2025-05-05 07:38:14 |
| - | 1264466_1769239_Angrybird69_sketch32124823.png | 251626 | 2025-05-05 07:38:14 |
| - | 1264714.json | 7029 | 2025-05-05 07:43:27 |
| - | 1264714_1769587_Angrybird69_sketch32194527.png | 386942 | 2025-05-05 07:43:27 |
| - | 1266882.json | 5530 | 2025-05-05 08:31:14 |
| - | 1266882_1772939_Angrybird69_sketch65195348.png | 282875 | 2025-05-05 08:31:14 |
| - | 1268537.json | 5172 | 2025-05-05 09:06:59 |
| - | 1268537_1775306_Angrybird69_sketch8023391.png | 375742 | 2025-05-05 09:06:59 |
| - | 1269295.json | 5363 | 2025-05-05 09:24:07 |
| - | 1269295_1776476_Angrybird69_sketch10225411.png | 202374 | 2025-05-05 09:24:07 |
| - | 1277635.json | 6369 | 2025-05-05 12:47:50 |
| - | 1277635_1789785_Angrybird69_sketch150113255.png | 276407 | 2025-05-05 12:47:50 |
| - | 1278374.json | 9717 | 2025-05-05 13:05:42 |
| - | 1278374_1790831_Angrybird69_sketch194224358.png | 155764 | 2025-05-05 13:05:42 |
| - | 1278374_1790832_Angrybird69_sketch21616512_2.png | 181657 | 2025-05-05 13:05:42 |
| - | 1279366.json | 6951 | 2025-05-05 13:30:04 |
| - | 1279366_1792432_Angrybird69_snow_dream.png | 340945 | 2025-05-05 13:30:04 |
| - | 1280352.json | 8005 | 2025-05-05 13:55:50 |
| - | 1280352_1793935_Angrybird69_sketch23134340.png | 263976 | 2025-05-05 13:55:50 |
| - | 1280352_1793939_Angrybird69_sketch2312267.png | 262464 | 2025-05-05 13:55:50 |
| - | 1281414.json | 9244 | 2025-05-05 14:21:29 |
| - | 1281414_1795383_Angrybird69_sketch253195322.png | 159660 | 2025-05-05 14:21:29 |
| - | 1281414_1795384_Angrybird69_sketch253195413.jpg | 176161 | 2025-05-05 14:21:30 |
| - | 1281925.json | 13163 | 2025-05-05 14:33:07 |
| - | 1281925_1796209_Angrybird69_sketch2640439.png | 346246 | 2025-05-05 14:33:07 |
| - | 1281925_1796210_Angrybird69_sketch253235014.png | 307303 | 2025-05-05 14:33:07 |
| - | 1281925_1796211_Angrybird69_sketch253232523.png | 278316 | 2025-05-05 14:33:07 |
| - | 1283240.json | 4882 | 2025-05-05 15:04:07 |
| - | 1283240_1798277_Angrybird69_sketch28615728.png | 166352 | 2025-05-05 15:04:07 |
| - | 1283790.json | 8287 | 2025-05-05 15:16:49 |
| - | 1283790_1799023_Angrybird69_sketch286201456.png | 303866 | 2025-05-05 15:16:49 |
| - | 1283790_1799024_Angrybird69_sketch286182038.png | 326737 | 2025-05-05 15:16:49 |
| - | 1284916.json | 4468 | 2025-05-05 15:43:57 |
| - | 1284916_1800580_Angrybird69_img_20170130_113548.jpg | 202721 | 2025-05-05 15:43:57 |
| - | 1285670.json | 11789 | 2025-05-05 16:02:19 |
| - | 1285670_1801730_Angrybird69_sketch29023942.png | 175712 | 2025-05-05 16:02:18 |
| - | 1285670_1801731_Angrybird69_sketch30101417.png | 183016 | 2025-05-05 16:02:18 |
| - | 1285670_1801732_Angrybird69_sketch3010326.png | 188418 | 2025-05-05 16:02:18 |
| - | 1285670_1801733_Angrybird69_sketch3010024.png | 190302 | 2025-05-05 16:02:19 |
| - | 1286623.json | 6556 | 2025-05-05 16:25:45 |
| - | 1286623_1803168_Angrybird69_1802606_alessio626_happy_birthday_angry_bird_19_sketch_8_colored.jpg | 597197 | 2025-05-05 16:25:45 |
| - | 1286720.json | 6596 | 2025-05-05 16:27:58 |
| - | 1286720_1803300_Angrybird69_sketch13172843.png | 266813 | 2025-05-05 16:27:58 |
| - | 1287656.json | 6303 | 2025-05-05 16:51:14 |
| - | 1287656_1804682_Angrybird69_sketch35125254.png | 185573 | 2025-05-05 16:51:14 |
| - | 1289553.json | 6649 | 2025-05-05 17:37:24 |
| - | 1289553_1807550_Angrybird69_sketch50223935.png | 368873 | 2025-05-05 17:37:24 |
| - | 1290886.json | 6320 | 2025-05-05 18:07:41 |
| - | 1290886_1809546_Angrybird69_sketch722558.jpg | 252529 | 2025-05-05 18:07:41 |
| - | 1291599.json | 7415 | 2025-05-05 18:24:51 |
| - | 1291599_1810573_Angrybird69_sketch83191523.png | 237619 | 2025-05-05 18:24:51 |
| - | 1295870.json | 6307 | 2025-05-05 20:09:48 |
| - | 1295870_1816902_Angrybird69_sketch1423403.png | 323528 | 2025-05-05 20:09:48 |
| - | 1298519.json | 9450 | 2025-05-05 21:07:25 |
| - | 1298519_1821221_Angrybird69_sketch17519100.jpg | 253367 | 2025-05-05 21:07:25 |
| - | 1298519_1821222_Angrybird69_sketch175203020.png | 281666 | 2025-05-05 21:07:25 |
| - | 1299922.json | 6386 | 2025-05-05 21:40:21 |
| - | 1299922_1823222_Angrybird69_sketch164202359.png | 383058 | 2025-05-05 21:40:21 |
| - | 1303942.json | 4888 | 2025-05-05 23:21:05 |
| - | 1303942_1829154_Angrybird69_img_20170256_082226.jpg | 378691 | 2025-05-05 23:21:05 |
| - | 1305975.json | 4823 | 2025-05-06 00:10:22 |
| - | 1305975_1832170_Angrybird69_sketch282213056.png | 281244 | 2025-05-06 00:10:22 |
| - | 1307852.json | 31344 | 2025-05-06 00:53:28 |
| - | 1307852_1834812_Angrybird69_page1.png | 296695 | 2025-05-06 00:53:27 |
| - | 1307852_1834815_Angrybird69_page2.png | 266708 | 2025-05-06 00:53:27 |
| - | 1307852_1834816_Angrybird69_page3.png | 235374 | 2025-05-06 00:53:28 |
| - | 1307852_1834817_Angrybird69_page4.png | 245659 | 2025-05-06 00:53:28 |
| - | 1307852_1834819_Angrybird69_page5.png | 227033 | 2025-05-06 00:53:28 |
| - | 1307852_1834822_Angrybird69_page6.png | 293365 | 2025-05-06 00:53:28 |
| - | 1307852_1834823_Angrybird69_page7.png | 127094 | 2025-05-06 00:53:28 |
| - | 1307852_1834824_Angrybird69_page8.png | 195076 | 2025-05-06 00:53:28 |
| - | 1307852_1834826_Angrybird69_page9.png | 152781 | 2025-05-06 00:53:28 |
| - | 1307852_1834827_Angrybird69_page10.png | 171964 | 2025-05-06 00:53:29 |
| - | 1307852_1834828_Angrybird69_page11.jpg | 218994 | 2025-05-06 00:53:29 |
| - | 1307852_1834829_Angrybird69_page12.jpg | 130760 | 2025-05-06 00:53:29 |
| - | 1307852_1834830_Angrybird69_page13.png | 267432 | 2025-05-06 00:53:29 |
| - | 1307852_1834832_Angrybird69_page14.png | 94271 | 2025-05-06 00:53:29 |
| - | 1307852_1834834_Angrybird69_page15.png | 362054 | 2025-05-06 00:53:29 |
| - | 1309517.json | 5231 | 2025-05-06 01:30:46 |
| - | 1309517_1837256_Angrybird69_sketch6112414.png | 236698 | 2025-05-06 01:30:46 |
| - | 1311680.json | 11434 | 2025-05-06 02:19:45 |
| - | 1311680_1840609_Angrybird69_sketch9420224.png | 243993 | 2025-05-06 02:19:45 |
| - | 1311680_1840610_Angrybird69_sketch9420427.png | 252278 | 2025-05-06 02:19:45 |
| - | 1311680_1840611_Angrybird69_sketch9420318.png | 248117 | 2025-05-06 02:19:45 |
| - | 1312278.json | 14121 | 2025-05-06 02:32:50 |
| - | 1312278_1841459_Angrybird69_three_wolves_in_the_bathroom_cum_.png | 360103 | 2025-05-06 02:32:50 |
| - | 1312278_1841460_Angrybird69_three_wolves_in_the_bathroom_pee_.png | 374321 | 2025-05-06 02:32:50 |
| - | 1315517.json | 9185 | 2025-05-06 03:47:09 |
| - | 1315517_1846483_LoboAzul69_1845897_alessio626_snow_sucking_angry_his_cock_sketch_18_colored_klein.jpg | 1405648 | 2025-05-06 03:47:09 |
| - | 1317454.json | 6230 | 2025-05-06 04:33:44 |
| - | 1317454_1849249_LoboAzul69_sketch18611183.png | 435297 | 2025-05-06 04:33:44 |
| - | 1319092.json | 12786 | 2025-05-06 05:10:56 |
| - | 1319092_1851635_LoboAzul69_sketch19011247.png | 312246 | 2025-05-06 05:10:56 |
| - | 1319092_1851642_LoboAzul69_sketch190121143.png | 323226 | 2025-05-06 05:10:56 |
| - | 1319092_1851643_LoboAzul69_sketch19019030.png | 379155 | 2025-05-06 05:10:56 |
| - | 1319092_1851647_LoboAzul69_sketch190231528.png | 336238 | 2025-05-06 05:10:56 |
| - | 1320237.json | 10625 | 2025-05-06 05:36:50 |
| - | 1320237_1853357_LoboAzul69_sketch21210233.png | 325795 | 2025-05-06 05:36:50 |
| - | 1320237_1853358_LoboAzul69_sketch201221653.png | 266902 | 2025-05-06 05:36:50 |
| - | 1320863.json | 6928 | 2025-05-06 05:51:03 |
| - | 1320863_1854232_LoboAzul69_sketch234111251.png | 467278 | 2025-05-06 05:51:03 |
| - | 1324355.json | 5455 | 2025-05-06 07:09:33 |
| - | 1324355_1859446_LoboAzul69_sketch282145934.png | 510164 | 2025-05-06 07:09:33 |
| - | 1324978.json | 5016 | 2025-05-06 07:22:45 |
| - | 1324978_1860490_LoboAzul69_sketch24511466.jpg | 335876 | 2025-05-06 07:22:45 |
| - | 1325601.json | 10178 | 2025-05-06 07:36:17 |
| - | 1325601_1861338_LoboAzul69_sketch282172327.png | 311219 | 2025-05-06 07:36:17 |
| - | 1325601_1861339_LoboAzul69_sketch293184125.png | 231795 | 2025-05-06 07:36:17 |
| - | 1327487.json | 8649 | 2025-05-06 08:18:27 |
| - | 1327487_1864087_LoboAzul69_sketch315222650.png | 597178 | 2025-05-06 08:18:27 |
| - | 1327487_1864088_LoboAzul69_sketch315222519.png | 603118 | 2025-05-06 08:18:27 |
| - | 1328226.json | 6987 | 2025-05-06 08:35:04 |
| - | 1328226_1865093_LoboAzul69_sketch3116165.png | 451093 | 2025-05-06 08:35:04 |
| - | 1329412.json | 5324 | 2025-05-06 09:02:07 |
| - | 1329412_1867052_LoboAzul69_sketch4221313.png | 413840 | 2025-05-06 09:02:07 |
| - | 1330333.json | 13134 | 2025-05-06 09:22:29 |
| - | 1330333_1868323_LoboAzul69_sketch531949.png | 273511 | 2025-05-06 09:22:28 |
| - | 1330333_1868324_LoboAzul69_sketch53185048.png | 278123 | 2025-05-06 09:22:29 |
| - | 1330333_1868326_LoboAzul69_sketch5324816.png | 270158 | 2025-05-06 09:22:29 |
| - | 1330333_1868327_LoboAzul69_sketch6413530.png | 283074 | 2025-05-06 09:22:29 |
| - | 1331314.json | 6308 | 2025-05-06 09:46:42 |
| - | 1331314_1869827_LoboAzul69_sketch8612935.png | 316539 | 2025-05-06 09:46:42 |
| - | 1332972.json | 4777 | 2025-05-06 10:27:43 |
| - | 1332972_1872190_LoboAzul69_sketch101172717_2.png | 246396 | 2025-05-06 10:27:43 |
| - | 1333535.json | 5185 | 2025-05-06 10:40:37 |
| - | 1333535_1873043_LoboAzul69_sketch112145441.png | 301848 | 2025-05-06 10:40:37 |
| - | 1334768.json | 5436 | 2025-05-06 11:10:11 |
| - | 1334768_1874825_LoboAzul69_sketch13420182.png | 453711 | 2025-05-06 11:10:11 |
| - | 1336803.json | 5726 | 2025-05-06 11:56:30 |
| - | 1336803_1878009_LoboAzul69_sketch160152035.png | 512252 | 2025-05-06 11:56:30 |
| - | 1337577.json | 5712 | 2025-05-06 12:13:19 |
| - | 1337577_1879054_LoboAzul69_sketch1711638.png | 443213 | 2025-05-06 12:13:19 |
| - | 1338625.json | 10179 | 2025-05-06 12:37:36 |
| - | 1338625_1880681_LoboAzul69_sketch182202340.png | 509024 | 2025-05-06 12:37:36 |
| - | 1338625_1880683_LoboAzul69_sketch182181421.png | 409875 | 2025-05-06 12:37:36 |
| - | 1340181.json | 6534 | 2025-05-06 13:13:23 |
| - | 1340181_1883011_LoboAzul69_sketch21515540.png | 239898 | 2025-05-06 13:13:23 |
| - | 1340579.json | 11905 | 2025-05-06 13:22:13 |
| - | 1340579_1883535_LoboAzul69_sketch215195725.png | 262338 | 2025-05-06 13:22:13 |
| - | 1340579_1883536_LoboAzul69_sketch215223246.png | 351031 | 2025-05-06 13:22:13 |
| - | 1340579_1883543_LoboAzul69_sketch215225718.png | 370861 | 2025-05-06 13:22:13 |
| - | 1342013.json | 5664 | 2025-05-06 13:55:57 |
| - | 1342013_1885746_LoboAzul69_sketch230143313.png | 327341 | 2025-05-06 13:55:57 |
| - | 1343914.json | 4753 | 2025-05-06 14:44:02 |
| - | 1343914_1888547_LoboAzul69_sketch26320549_01.png | 158498 | 2025-05-06 14:44:02 |
| - | 1344507.json | 10165 | 2025-05-06 14:58:22 |
| - | 1344507_1889535_LoboAzul69_helping_hand.png | 464040 | 2025-05-06 14:58:22 |
| - | 1344507_1889536_LoboAzul69_helpinghand.png | 477769 | 2025-05-06 14:58:23 |
| - | 1347029.json | 8633 | 2025-05-06 15:57:37 |
| - | 1347029_1893316_LoboAzul69_sketch11131422.png | 346685 | 2025-05-06 15:57:37 |
| - | 1350233.json | 16764 | 2025-05-06 17:09:54 |
| - | 1350233_1897818_LoboAzul69_page1.png | 294186 | 2025-05-06 17:09:53 |
| - | 1350233_1897820_LoboAzul69_page2.png | 361119 | 2025-05-06 17:09:54 |
| - | 1350233_1897821_LoboAzul69_page3.png | 226213 | 2025-05-06 17:09:54 |
| - | 1350233_1897823_LoboAzul69_page4.png | 343513 | 2025-05-06 17:09:54 |
| - | 1350233_1897825_LoboAzul69_page5.png | 340655 | 2025-05-06 17:09:54 |
| - | 1350233_1897827_LoboAzul69_pge6.png | 404351 | 2025-05-06 17:09:54 |
| - | 1351105.json | 7130 | 2025-05-06 17:29:49 |
| - | 1351105_1899239_LoboAzul69_alicethegecko.png | 326648 | 2025-05-06 17:29:49 |
| - | 1352207.json | 10050 | 2025-05-06 17:56:02 |
| - | 1352207_1900924_LoboAzul69_alicethegecko2.png | 433570 | 2025-05-06 17:56:02 |
| - | 1352207_1900925_LoboAzul69_alicethegecko3.png | 305877 | 2025-05-06 17:56:02 |
| - | 1353244.json | 5134 | 2025-05-06 18:19:52 |
| - | 1353244_1902581_LoboAzul69_sketch103143833.png | 211612 | 2025-05-06 18:19:52 |
| - | 1354102.json | 7939 | 2018-11-22 02:40:34 |
| - | 1354102_1904113_LoboAzul69_sketch11419105.png | 375790 | 2018-11-22 02:40:34 |
| - | 1357805.json | 4750 | 2025-05-06 20:07:15 |
| - | 1357805_1909493_LoboAzul69_sketch17301843.png | 504129 | 2025-05-06 20:07:15 |
| - | 1358554.json | 8915 | 2025-05-06 20:24:29 |
| - | 1358554_1910780_LoboAzul69_sketch17320472.png | 568306 | 2025-05-06 20:24:29 |
| - | 1360335.json | 5343 | 2025-05-06 21:04:56 |
| - | 1360335_1913403_LoboAzul69_sketch206113138.png | 927650 | 2025-05-06 21:04:56 |
| - | 1360710.json | 11400 | 2025-05-06 21:14:10 |
| - | 1360710_1913972_LoboAzul69_1913837_dhcase_untitled_-_copy_2_-_copy_-_copy_-_copy_-_copy.png | 49853 | 2025-05-06 21:14:10 |
| - | 1360710_1913974_LoboAzul69_1913836_dhcase_untitled_-_copy_2_-_copy_-_copy_-_copy_1_.png | 54967 | 2025-05-06 21:14:10 |
| - | 1360710_1924331_LoboAzul69_1916704_dhcase_untitled_-_copy_2_-_copy_-_copy_-_copy_-_copy_-_copy.png | 50356 | 2025-05-06 21:14:10 |
| - | 1361088.json | 7635 | 2018-11-22 03:24:11 |
| - | 1361088_1914553_LoboAzul69_sketch21005632.png | 816054 | 2018-11-22 03:24:12 |
| - | 1361423.json | 7848 | 2018-11-22 03:25:59 |
| - | 1361423_1915064_LoboAzul69_sketch210211712.png | 703662 | 2018-11-22 03:26:00 |
| - | 1367715.json | 6917 | 2025-05-07 00:01:57 |
| - | 1367715_1925768_LoboAzul69_sketch291202349.png | 157696 | 2025-05-07 00:01:57 |
| - | 1367715_1925770_LoboAzul69_sketch291202349.jpg | 253568 | 2025-05-07 00:01:57 |
| - | 1368457.json | 6625 | 2025-05-07 00:19:43 |
| - | 1368457_1925750_LoboAzul69_sketch1423644.png | 341588 | 2025-05-07 00:19:43 |
| - | 1369406.json | 6113 | 2025-05-07 00:41:14 |
| - | 1369406_1927161_LoboAzul69_sketch25194156.png | 244044 | 2025-05-07 00:41:14 |
| - | 1371526.json | 4847 | 2025-05-07 01:31:42 |
| - | 1371526_1930318_LoboAzul69_sketch5122175.png | 464975 | 2025-05-07 01:31:42 |
| - | 1373744.json | 9425 | 2025-05-07 02:24:44 |
| - | 1373744_1933439_LoboAzul69_sketch9517523.png | 564220 | 2025-05-07 02:24:44 |
| - | 1373744_1933441_LoboAzul69_sketch95173652.png | 586596 | 2025-05-07 02:24:44 |
| - | 1375123.json | 9005 | 2025-05-07 02:57:31 |
| - | 1375123_1935534_LoboAzul69_sketch110145137_01.png | 609071 | 2025-05-07 02:57:31 |
| - | 1376158.json | 5340 | 2025-05-07 03:25:00 |
| - | 1376158_1937030_LoboAzul69_sketch121145658.png | 784237 | 2025-05-07 03:25:00 |
| - | 1377581.json | 7737 | 2025-05-07 04:00:50 |
| - | 1377581_1939005_LoboAzul69_sketch1540572.png | 504666 | 2025-05-07 04:00:50 |
| - | 1377588.json | 8219 | 2025-05-07 04:01:00 |
| - | 1377588_1939013_LoboAzul69_1937754_alessio626_anal_on_the_bed_sketch_22_colored.jpg | 629050 | 2025-05-07 04:01:00 |
| - | 1378406.json | 5305 | 2025-05-07 04:19:57 |
| - | 1378406_1940243_LoboAzul69_sketch14304138.png | 824026 | 2025-05-07 04:19:57 |
| - | 1379535.json | 6876 | 2018-11-22 05:44:17 |
| - | 1379535_1941910_LoboAzul69_sketch1803629_01.png | 271274 | 2018-11-22 05:44:17 |
| - | 1379735.json | 7194 | 2025-05-07 04:51:33 |
| - | 1379735_1942217_LoboAzul69_sketch18032431.png | 425417 | 2025-05-07 04:51:33 |
| - | 1381201.json | 5645 | 2025-05-07 05:25:15 |
| - | 1381201_1944360_LoboAzul69_sketch20211287.png | 915062 | 2025-05-07 05:25:15 |
| - | 1382504.json | 5142 | 2025-05-07 05:57:52 |
| - | 1382504_1946236_LoboAzul69_sketch22418398.png | 581342 | 2025-05-07 05:57:52 |
| - | 1384167.json | 8686 | 2025-05-07 06:34:58 |
| - | 1384167_1948664_LoboAzul69_sketch250114339.png | 790182 | 2025-05-07 06:34:58 |
| - | 1384167_1948667_LoboAzul69_sketch246203031.png | 788404 | 2025-05-07 06:34:58 |
| - | 1387059.json | 5219 | 2025-05-07 07:41:01 |
| - | 1387059_1953386_LoboAzul69_sketch272123440.png | 610748 | 2025-05-07 07:41:01 |
| - | 1394148.json | 27267 | 2025-05-07 10:25:34 |
| - | 1394148_1964601_LoboAzul69_sketch31231240.png | 558125 | 2025-05-07 10:25:33 |
| - | 1394148_1964603_LoboAzul69_sketch101122548.png | 669491 | 2025-05-07 10:25:33 |
| - | 1394148_1964604_LoboAzul69_sketch42185438.png | 943739 | 2025-05-07 10:25:34 |
| - | 1394148_1964605_LoboAzul69_sketch5315021.jpg | 466870 | 2025-05-07 10:25:34 |
| - | 1394148_1964607_LoboAzul69_sketch101133727.jpg | 601894 | 2025-05-07 10:25:34 |
| - | 1394148_1964609_LoboAzul69_sketch6401146.png | 547813 | 2025-05-07 10:25:34 |
| - | 1394148_1964610_LoboAzul69_sketch64122113.jpg | 502705 | 2025-05-07 10:25:34 |
| - | 1394148_1964611_LoboAzul69_sketch64184850.jpg | 697573 | 2025-05-07 10:25:34 |
| - | 1394148_1964614_LoboAzul69_sketch7523952.jpg | 365960 | 2025-05-07 10:25:35 |
| - | 1394148_1964617_LoboAzul69_sketch10114383.jpg | 615641 | 2025-05-07 10:25:35 |
| - | 1394148_1964618_LoboAzul69_sketch7519319.jpg | 309725 | 2025-05-07 10:25:35 |
| - | 1394148_1964623_LoboAzul69_sketch75232618.jpg | 535036 | 2025-05-07 10:25:35 |
| - | 1396097.json | 8336 | 2025-05-07 11:13:12 |
| - | 1396097_1967582_LoboAzul69_sketch2943744.png | 489994 | 2025-05-07 11:13:12 |
| - | 1397496.json | 5211 | 2025-05-07 11:48:03 |
| - | 1397496_1969555_LoboAzul69_sketch156133819.jpg | 369592 | 2025-05-07 11:48:03 |
| - | 1400726.json | 10853 | 2025-05-07 13:03:48 |
| - | 1400726_1974468_LoboAzul69_sketch204123117.jpg | 618961 | 2025-05-07 13:03:48 |
| - | 1400726_1974469_LoboAzul69_sketch19315741.jpg | 612823 | 2025-05-07 13:03:49 |
| - | 1400726_1974470_LoboAzul69_sketch204123853.png | 811638 | 2025-05-07 13:03:50 |
| - | 1402086.json | 5251 | 2025-05-07 13:34:22 |
| - | 1402086_1976569_LoboAzul69_sketch21521818.png | 409668 | 2025-05-07 13:34:22 |
| - | 1403959.json | 4929 | 2025-05-07 14:16:43 |
| - | 1403959_1979152_LoboAzul69_sketch24123420.png | 505157 | 2025-05-07 14:16:43 |
| - | 1406674.json | 5073 | 2025-05-07 15:19:34 |
| - | 1406674_1983175_LoboAzul69_sketch285194726.png | 454141 | 2025-05-07 15:19:34 |
| - | 1408290.json | 11984 | 2025-05-07 15:57:36 |
| - | 1408290_1985550_LoboAzul69_wolfbathroom_pee_.jpg | 791942 | 2025-05-07 15:57:36 |
| - | 1408290_1985551_LoboAzul69_wolfbathroom_cum_.png | 849329 | 2025-05-07 15:57:36 |
| - | 1410741.json | 5193 | 2025-05-07 16:59:36 |
| - | 1410741_1989413_LoboAzul69_sketch34162846.jpg | 547432 | 2025-05-07 16:59:36 |
| - | 1412117.json | 8986 | 2025-05-07 17:32:44 |
| - | 1412117_1991249_LoboAzul69_1990908_alessio626_azul_and_snow_piss_fight_sketch_14_colored.jpg | 1314161 | 2025-05-07 17:32:44 |
| - | 1414586.json | 5061 | 2025-05-07 18:37:24 |
| - | 1414586_1994918_LoboAzul69_sketch9319411.jpg | 478854 | 2025-05-07 18:37:24 |
| - | 1415828.json | 6237 | 2025-05-07 19:07:08 |
| - | 1415828_1996668_LoboAzul69_sketch11522331.jpg | 461850 | 2025-05-07 19:07:08 |
| - | 1417954.json | 5192 | 2025-05-07 19:55:04 |
| - | 1417954_1999609_LoboAzul69_sketch15215623.jpg | 350061 | 2025-05-07 19:55:04 |
| - | 1420770.json | 10816 | 2018-11-22 10:39:39 |
| - | 1420770_2003618_LoboAzul69_sketch185185555_01.jpg | 144156 | 2018-11-22 10:39:39 |
| - | 1422386.json | 6021 | 2025-05-07 21:38:36 |
| - | 1422386_2005941_LoboAzul69_sketch21112949.jpg | 527455 | 2025-05-07 21:38:36 |
| - | 1423793.json | 7914 | 2025-05-07 22:12:18 |
| - | 1423793_2008115_LoboAzul69_sketch222232548.jpg | 492151 | 2025-05-07 22:12:18 |
| - | 1424362.json | 4890 | 2025-05-07 22:25:40 |
| - | 1424362_2008976_LoboAzul69_sketch24423932.jpg | 364922 | 2025-05-07 22:25:40 |
| - | 1425985.json | 9136 | 2025-05-07 23:03:51 |
| - | 1425985_2011455_LoboAzul69_sketch25521533.png | 668567 | 2025-05-07 23:03:51 |
| - | 1427485.json | 6117 | 2025-05-07 23:39:17 |
| - | 1427485_2013781_LoboAzul69_sketch2811939_01.png | 344993 | 2025-05-07 23:39:17 |
| - | 1427622.json | 4837 | 2025-05-07 23:42:41 |
| - | 1427622_2014063_LoboAzul69_sketch292283.png | 251610 | 2025-05-07 23:42:41 |
| - | 1429548.json | 6956 | 2025-05-08 00:25:59 |
| - | 1429548_2016856_LoboAzul69_sketch1513245.png | 340023 | 2025-05-08 00:25:59 |
| - | 1430608.json | 5180 | 2025-05-08 00:48:18 |
| - | 1430608_2018274_LoboAzul69_sketch2615932.jpg | 306694 | 2025-05-08 00:48:18 |
| - | 1432379.json | 5807 | 2025-05-08 01:27:09 |
| - | 1432379_2020989_LoboAzul69_sketch41133940.png | 585522 | 2025-05-08 01:27:09 |
| - | 1433479.json | 7459 | 2018-11-22 12:26:24 |
| - | 1433479_2022605_LoboAzul69_sketch63171716.jpg | 92905 | 2018-11-22 12:26:25 |
| - | 1434960.json | 4871 | 2025-05-08 02:24:36 |
| - | 1434960_2025040_LoboAzul69_sketch85225643.png | 394752 | 2025-05-08 02:24:36 |
| - | 1436569.json | 5146 | 2025-05-08 03:09:45 |
| - | 1436569_2027804_LoboAzul69_sketch11105432.png | 628789 | 2025-05-08 03:09:45 |
| - | 1439350.json | 5352 | 2025-05-08 04:16:09 |
| - | 1439350_2032839_LoboAzul69_sketch155183323.jpg | 383070 | 2025-05-08 04:16:09 |
| - | 1441378.json | 5224 | 2025-05-08 05:01:56 |
| - | 1441378_2035434_LoboAzul69_sketch181121830.jpg | 393914 | 2025-05-08 05:01:56 |
| - | 1442104.json | 5855 | 2025-05-08 05:20:01 |
| - | 1442104_2036518_LoboAzul69_sketch192134120.jpg | 600111 | 2025-05-08 05:20:01 |
| - | 1446739.json | 5346 | 2025-05-08 07:04:18 |
| - | 1446739_2043452_LoboAzul69_sketch262121631.jpg | 565890 | 2025-05-08 07:04:18 |
| - | 1451610.json | 5313 | 2025-05-08 08:56:24 |
| - | 1451610_2050737_LoboAzul69_sketch322015.png | 431889 | 2025-05-08 08:56:24 |
| - | 1453347.json | 6744 | 2025-05-08 09:34:30 |
| - | 1453347_2053227_LoboAzul69_sketch6513715.jpg | 469072 | 2025-05-08 09:34:30 |
| - | 1455169.json | 5734 | 2025-06-24 07:45:52 |
| - | 1455169_2055868_LoboAzul69_sketch8021625.png | 680461 | 2025-06-24 07:45:52 |
| - | 1457352.json | 7287 | 2025-06-24 08:03:45 |
| - | 1457352_2058981_LoboAzul69_sketch11312456.png | 723165 | 2025-06-24 08:03:45 |
| - | 1458342.json | 4967 | 2025-06-24 08:10:06 |
| - | 1458342_2060324_LoboAzul69_sketch124175410.png | 454272 | 2025-06-24 08:10:06 |
| - | 1459057.json | 5512 | 2025-07-27 05:52:47 |
| - | 1459057_2061348_LoboAzul69_sketch135121529.png | 884662 | 2025-07-27 05:52:47 |
| - | 1460240.json | 4943 | 2025-06-24 08:24:06 |
| - | 1460240_2063051_LoboAzul69_sketch150181021.jpg | 409165 | 2025-06-24 08:24:06 |
| - | 1461057.json | 5607 | 2025-06-24 08:29:36 |
| - | 1461057_2064310_LoboAzul69_sketch161114545.png | 789941 | 2025-06-24 08:29:36 |
| - | 1464052.json | 5146 | 2025-06-24 08:58:47 |
| - | 1464052_2069639_LoboAzul69_sketch21613541.png | 1044813 | 2025-06-24 08:58:47 |
| - | 1466247.json | 5275 | 2025-07-27 04:59:20 |
| - | 1466247_2072464_LoboAzul69_sketch24220416.png | 213199 | 2025-07-27 04:59:20 |
| - | 1467151.json | 5268 | 2025-07-27 04:39:05 |
| - | 1467151_2073743_LoboAzul69_sketch26421936.jpg | 462642 | 2025-07-27 04:39:05 |
| - | 1476274.json | 5178 | 2025-07-27 01:03:14 |
| - | 1476274_2087975_LoboAzul69_sketch72224046.png | 512443 | 2025-07-27 01:03:14 |
| - | 1477540.json | 5048 | 2025-07-27 00:34:22 |
| - | 1477540_2089962_LoboAzul69_sketch10511953.png | 503944 | 2025-07-27 00:34:22 |
| - | 1479502.json | 6848 | 2025-07-26 23:46:58 |
| - | 1479502_2092950_LoboAzul69_sketch13115843.png | 387631 | 2025-07-26 23:46:58 |
| - | 1480183.json | 5435 | 2025-07-26 23:29:54 |
| - | 1480183_2094039_LoboAzul69_sketch142114536.png | 457755 | 2025-07-26 23:29:54 |
| - | 1485540.json | 5949 | 2025-07-26 21:18:27 |
| - | 1485540_2102062_LoboAzul69_sketch21214445.png | 411101 | 2025-07-26 21:18:27 |
| - | 1487187.json | 5834 | 2025-07-26 20:39:20 |
| - | 1487187_2104886_LoboAzul69_sketch234233524.png | 804827 | 2025-07-26 20:39:20 |
| - | 1487687.json | 5183 | 2025-07-26 20:26:48 |
| - | 1487687_2105594_LoboAzul69_sketch17512334.png | 208525 | 2025-07-26 20:26:48 |
| - | 1489486.json | 4867 | 2025-07-26 19:22:14 |
| - | 1489486_2108383_LoboAzul69_sketch27195911.png | 225428 | 2025-07-26 19:22:14 |
| - | 1489709.json | 15804 | 2025-07-26 19:16:07 |
| - | 1489709_2108737_LoboAzul69_sketch260221446.png | 713599 | 2025-07-26 19:16:06 |
| - | 1489709_2108738_LoboAzul69_sketch26022243.png | 699333 | 2025-07-26 19:16:07 |
| - | 1489709_2108740_LoboAzul69_sketch260113626.png | 637837 | 2025-07-26 19:16:07 |
| - | 1489709_2108742_LoboAzul69_sketch26021744.png | 636890 | 2025-07-26 19:16:07 |
| - | 1490504.json | 7183 | 2025-07-26 18:57:18 |
| - | 1490504_2109848_LoboAzul69_sketch282143726.png | 636544 | 2025-07-26 18:57:18 |
| - | 1492854.json | 9640 | 2025-07-26 18:01:03 |
| - | 1492854_2113308_LoboAzul69_2113091_alessio626_wolfie_and_azul_anal_fuck_legs_up_2017_sketch_18_colored.jpg | 1085800 | 2025-07-26 18:01:03 |
| - | 1492858.json | 7831 | 2025-07-26 18:00:58 |
| - | 1492858_2113312_LoboAzul69_sketch2601323.png | 704866 | 2025-07-26 18:00:58 |
| - | 1493444.json | 5815 | 2025-07-26 17:46:46 |
| - | 1493444_2114176_LoboAzul69_sketch26231845.png | 408146 | 2025-07-26 17:46:46 |
| - | 1495081.json | 8778 | 2025-07-26 17:05:57 |
| - | 1495081_2116595_LoboAzul69_sketch52214813.png | 511777 | 2025-07-26 17:05:57 |
| - | 1495081_2116596_LoboAzul69_sketch52173611.png | 526898 | 2025-07-26 17:05:57 |
| - | 1495344.json | 5602 | 2025-07-26 16:59:40 |
| - | 1495344_2116992_LoboAzul69_sketch63112926.png | 322458 | 2025-07-26 16:59:40 |
| - | 1496237.json | 5948 | 2025-07-26 16:37:18 |
| - | 1496237_2118272_LoboAzul69_sketch74142741.png | 646571 | 2025-07-26 16:37:18 |
| - | 1496598.json | 8358 | 2025-07-26 16:28:23 |
| - | 1496598_2118830_LoboAzul69_2118802_shockwavejet_loboazul69.jpg | 325523 | 2025-07-26 16:28:23 |
| - | 1497653.json | 5563 | 2025-07-26 16:04:01 |
| - | 1497653_2120477_LoboAzul69_sketch96193728.png | 646153 | 2025-07-26 16:04:01 |
| - | 1497852.json | 6677 | 2025-07-26 15:59:26 |
| - | 1497852_2120789_LoboAzul69_sketch100181331.png | 464661 | 2025-07-26 15:59:26 |
| - | 1499502.json | 9003 | 2025-07-26 15:21:59 |
| - | 1499502_2123310_LoboAzul69_sketch1331312.png | 689901 | 2025-07-26 15:22:00 |
| - | 1499502_2123311_LoboAzul69_sketch122214451.png | 662948 | 2025-07-26 15:21:59 |
| - | 1499805.json | 5129 | 2025-07-26 15:14:53 |
| - | 1499805_2123748_LoboAzul69_sketch133143830.png | 424929 | 2025-07-26 15:14:53 |
| - | 1500733.json | 5400 | 2025-07-26 14:54:01 |
| - | 1500733_2125196_LoboAzul69_sketch155115913.png | 468602 | 2025-07-26 14:54:01 |
| - | 1502189.json | 5339 | 2025-07-26 14:19:43 |
| - | 1502189_2127484_LoboAzul69_sketch170143919.png | 151720 | 2025-07-26 14:19:43 |
| - | 1502647.json | 5254 | 2025-07-26 14:09:31 |
| - | 1502647_2128147_LoboAzul69_sketch18105318.png | 383421 | 2025-07-26 14:09:31 |
| - | 1504120.json | 6192 | 2025-07-26 13:33:34 |
| - | 1504120_2130337_LoboAzul69_sketch192221856.png | 406362 | 2025-07-26 13:33:34 |
| - | 1505184.json | 10200 | 2025-07-26 13:08:53 |
| - | 1505184_2131906_LoboAzul69_sketch214213517.png | 472004 | 2025-07-26 13:08:52 |
| - | 1505184_2131907_LoboAzul69_sketch214125627.png | 557978 | 2025-07-26 13:08:52 |
| - | 1505184_2131908_LoboAzul69_sketch214221710.png | 493456 | 2025-07-26 13:08:53 |
| - | 1505718.json | 5529 | 2025-07-26 12:56:20 |
| - | 1505718_2132646_LoboAzul69_sketch2252112.png | 609871 | 2025-07-26 12:56:20 |
| - | 1506906.json | 5175 | 2025-07-26 12:28:46 |
| - | 1506906_2134400_LoboAzul69_sketch24001612.png | 423123 | 2025-07-26 12:28:46 |
| - | 1507450.json | 5337 | 2025-07-26 12:16:06 |
| - | 1507450_2135244_LoboAzul69_sketch240211614.png | 179577 | 2025-07-26 12:16:06 |
| - | 1508050.json | 9364 | 2025-07-26 12:02:02 |
| - | 1508050_2136070_LoboAzul69_sketch251175548.png | 687984 | 2025-07-26 12:02:02 |
| - | 1508050_2136071_LoboAzul69_sketch251174759.png | 689223 | 2025-07-26 12:02:02 |
| - | 1508050_2136232_LoboAzul69_sketch251175542.png | 667042 | 2025-07-26 12:02:02 |
| - | 1510541.json | 5603 | 2025-07-26 10:58:02 |
| - | 1510541_2139957_LoboAzul69_sketch29521036.png | 418396 | 2025-07-26 10:58:02 |
| - | 1512151.json | 5896 | 2025-07-26 10:16:53 |
| - | 1512151_2142306_LoboAzul69_sketch310191913.png | 694905 | 2025-07-26 10:16:53 |
| - | 1512521.json | 4887 | 2025-07-26 10:06:22 |
| - | 1512521_2142857_LoboAzul69_img_20180101_122224.jpg | 389712 | 2025-07-26 10:06:22 |
| - | 1515904.json | 5181 | 2025-07-26 08:43:28 |
| - | 1515904_2147770_LoboAzul69_sketch6613745.png | 525207 | 2025-07-26 08:43:28 |
| - | 1516821.json | 4851 | 2025-07-26 08:22:27 |
| - | 1516821_2149051_LoboAzul69_sketch70152330.png | 255381 | 2025-07-26 08:22:27 |
| - | 1517432.json | 5462 | 2025-07-26 08:08:28 |
| - | 1517432_2149932_LoboAzul69_sketch81141946.png | 283286 | 2025-07-26 08:08:28 |
| - | 1518192.json | 5439 | 2025-07-26 07:51:33 |
| - | 1518192_2150923_LoboAzul69_sketch92132210.png | 394221 | 2025-07-26 07:51:33 |
| - | 1520917.json | 6106 | 2025-07-26 06:48:19 |
| - | 1520917_2155047_LoboAzul69_sketch125233315.png | 626798 | 2025-07-26 06:48:19 |
| - | 1521064.json | 5299 | 2025-07-26 06:45:01 |
| - | 1521064_2155240_LoboAzul69_sketch136172535.jpg | 400317 | 2025-07-26 06:45:01 |
| - | 1523205.json | 5164 | 2025-07-26 05:55:18 |
| - | 1523205_2158299_LoboAzul69_sketch162151021.png | 324286 | 2025-07-26 05:55:18 |
| - | 1525605.json | 4944 | 2025-07-26 04:57:48 |
| - | 1525605_2161827_LoboAzul69_sketch206104315.png | 359752 | 2025-07-26 04:57:48 |
| - | 1526516.json | 5681 | 2025-07-26 04:35:43 |
| - | 1526516_2163138_LoboAzul69_sketch210125711.jpg | 429989 | 2025-07-26 04:35:43 |
| - | 1527656.json | 5342 | 2025-07-26 04:10:17 |
| - | 1527656_2164789_LoboAzul69_sketch23205823.png | 288753 | 2025-07-26 04:10:17 |
| - | 1528089.json | 5590 | 2025-07-26 04:01:05 |
| - | 1528089_2165401_LoboAzul69_sketch23217219.png | 491082 | 2025-07-26 04:01:05 |
| - | 1532450.json | 4908 | 2025-07-26 02:20:41 |
| - | 1532450_2171730_LoboAzul69_sketch26503619.png | 287941 | 2025-07-26 02:20:41 |
| - | 1535697.json | 5590 | 2025-07-26 01:07:35 |
| - | 1535697_2176833_LoboTheBird_sketch2514756.png | 478028 | 2025-07-26 01:07:35 |
| - | 1539445.json | 8904 | 2025-07-25 23:40:35 |
| - | 1539445_2182639_LoboTheBird_sketch8414821.png | 299239 | 2025-07-25 23:40:35 |
| - | 1539445_2182641_LoboTheBird_sketch84132931.png | 316953 | 2025-07-25 23:40:35 |
| - | 1540340.json | 5349 | 2025-07-25 23:21:37 |
| - | 1540340_2184096_LoboTheBird_sketch8423140.png | 622253 | 2025-07-25 23:21:37 |
| - | 1540948.json | 10372 | 2025-07-25 23:07:33 |
| - | 1540948_2185132_LoboTheBird_2183986_alessio626_caught_while_pawing_in_stall_room_friend_sketch_20_colored_1_.jpg | 1483669 | 2025-07-25 23:07:33 |
| - | 1540953.json | 7795 | 2025-07-25 23:07:25 |
| - | 1540953_2185138_LoboTheBird_sketch9521334.png | 322625 | 2025-07-25 23:07:25 |
| - | 1544374.json | 6406 | 2025-07-25 21:42:37 |
| - | 1544374_2190515_LoboTheBird_sketch143112534.png | 546204 | 2025-07-25 21:42:37 |
| - | 1544546.json | 5293 | 2025-07-25 21:37:09 |
| - | 1544546_2190747_LoboTheBird_sketch143143638.png | 588939 | 2025-07-25 21:37:09 |
| - | 1545347.json | 5790 | 2025-07-25 21:11:16 |
| - | 1545347_2191899_LoboTheBird_sketch154161257.png | 366683 | 2025-07-25 21:11:16 |
| - | 1545786.json | 5026 | 2025-07-25 21:00:58 |
| - | 1545786_2192538_LoboTheBird_sketch165112232.png | 318235 | 2025-07-25 21:00:58 |
| - | 1546292.json | 5717 | 2025-07-25 20:46:22 |
| - | 1546292_2193276_LoboTheBird_sketch16522236.png | 540577 | 2025-07-25 20:46:22 |
| - | 1547021.json | 4869 | 2025-07-25 20:28:57 |
| - | 1547021_2194380_LoboTheBird_sketch180121152.png | 286448 | 2025-07-25 20:28:57 |
| - | 1547169.json | 6760 | 2025-07-25 20:24:22 |
| - | 1547169_2194568_LoboTheBird_sketch180131452.png | 357433 | 2025-07-25 20:24:22 |
| - | 1547206.json | 7344 | 2025-07-25 20:23:34 |
| - | 1547206_2194613_LoboTheBird_sketch180161730.png | 187650 | 2025-07-25 20:23:34 |
| - | 1547321.json | 7757 | 2018-11-23 03:18:00 |
| - | 1547321_2194808_LoboTheBird_sketch180185421.png | 448978 | 2018-11-23 03:18:01 |
| - | 1547728.json | 5699 | 2025-07-25 20:10:59 |
| - | 1547728_2195444_LoboTheBird_sketch191114422.png | 553483 | 2025-07-25 20:10:59 |
| - | 1549115.json | 5893 | 2025-07-25 19:39:12 |
| - | 1549115_2197417_LoboTheBird_sketch213115447.png | 534256 | 2025-07-25 19:39:12 |
| - | 1550249.json | 8377 | 2025-07-25 19:11:17 |
| - | 1550249_2199139_LoboTheBird_sketch23512150.png | 937953 | 2025-07-25 19:11:17 |
| - | 1551850.json | 5458 | 2025-07-25 18:32:17 |
| - | 1551850_2201828_LoboTheBird_sketch2501801.png | 153917 | 2025-07-25 18:32:17 |
| - | 1552654.json | 10150 | 2025-07-25 18:12:47 |
| - | 1552654_2203113_LoboTheBird_sketch261184719.png | 175993 | 2025-07-25 18:12:47 |
| - | 1552654_2203114_LoboTheBird_sketch261211531.png | 207218 | 2025-07-25 18:12:47 |
| - | 1552654_2203423_LoboTheBird_sketch261172452.png | 161136 | 2025-07-25 18:12:47 |
| - | 1553685.json | 8097 | 2025-07-25 17:29:44 |
| - | 1553685_2204764_LoboTheBird_sketch283145320.png | 404427 | 2025-07-25 17:29:44 |
| - | 1553685_2204766_LoboTheBird__20151122_035049.jpg | 88544 | 2025-07-25 17:29:44 |
| - | 1554076.json | 5393 | 2025-07-25 17:20:40 |
| - | 1554076_2205438_LoboTheBird_sketch140549.png | 310527 | 2025-07-25 17:20:40 |
| - | 1555742.json | 6193 | 2025-07-25 16:41:36 |
| - | 1555742_2207964_LoboTheBird_sketch3623521.png | 394292 | 2025-07-25 16:41:36 |
| - | 1557480.json | 18295 | 2025-07-25 16:01:11 |
| - | 1557480_2210501_LoboTheBird_sketch2522726.png | 263882 | 2025-07-25 16:01:11 |
| - | 1557480_2210502_LoboTheBird_sketch40153126.png | 260030 | 2025-07-25 16:01:11 |
| - | 1557480_2210504_LoboTheBird_sketch5105952.png | 420621 | 2025-07-25 16:01:11 |
| - | 1557480_2210513_LoboTheBird_sketch6215459.png | 323967 | 2025-07-25 16:01:11 |
| - | 1557480_2210520_LoboTheBird_sketch5114152.png | 290290 | 2025-07-25 16:01:11 |
| - | 1557480_2210527_LoboTheBird_sketch51182226.png | 344350 | 2025-07-25 16:01:11 |
| - | 1557480_2211977_LoboTheBird_sketch622458.png | 231569 | 2025-07-25 16:01:12 |
| - | 1571535.json | 5180 | 2025-07-25 10:21:37 |
| - | 1571535_2232949_LoboTheBird_sketch9515018.png | 359130 | 2025-07-25 10:21:37 |
| - | 1571536.json | 4986 | 2025-07-25 10:21:35 |
| - | 1571536_2232950_LoboTheBird_sketch2241353.png | 513516 | 2025-07-25 10:21:35 |
| - | 1572111.json | 10097 | 2025-07-25 10:04:45 |
| - | 1572111_2233800_LoboTheBird_sketch246231941.png | 929155 | 2025-07-25 10:04:45 |
| - | 1572111_2233834_LoboTheBird_sketch25018566.png | 965511 | 2025-07-25 10:04:45 |
| - | 1573632.json | 6478 | 2025-07-25 09:18:30 |
| - | 1573632_2236153_LoboTheBird_sketch28302324.png | 1146372 | 2025-07-25 09:18:30 |
| - | 1574992.json | 5371 | 2025-07-25 08:46:37 |
| - | 1574992_2238327_LoboTheBird_sketch3052270.png | 417347 | 2025-07-25 08:46:37 |
| - | 1575291.json | 5255 | 2025-07-25 08:38:01 |
| - | 1575291_2239161_LoboTheBird_sketch305175622.png | 1190992 | 2025-07-25 08:38:01 |
| - | 1576625.json | 5780 | 2025-07-25 08:07:01 |
| - | 1576625_2241037_LoboTheBird_sketch10132423.png | 590260 | 2025-07-25 08:07:01 |
| - | 1577343.json | 5038 | 2025-07-25 07:49:22 |
| - | 1577343_2242088_LoboTheBird_sketch21152316.png | 395734 | 2025-07-25 07:49:22 |
| - | 1578428.json | 7328 | 2025-07-25 07:23:58 |
| - | 1578428_2243640_LoboTheBird_sketch32181817.png | 830726 | 2025-07-25 07:23:58 |
| - | 1579259.json | 5734 | 2025-07-25 07:05:10 |
| - | 1579259_2244959_LoboTheBird_sketch542748.png | 873521 | 2025-07-25 07:05:10 |
| - | 1579972.json | 7816 | 2025-07-25 06:48:38 |
| - | 1579972_2246006_LoboTheBird_sketch6521515.png | 459249 | 2025-07-25 06:48:38 |
| - | 1580516.json | 5708 | 2025-07-25 06:35:13 |
| - | 1580516_2246846_LoboTheBird_sketch6522611.png | 806713 | 2025-07-25 06:35:13 |
| - | 1583196.json | 5274 | 2025-07-25 05:28:13 |
| - | 1583196_2251015_LoboTheBird_sketch102142338.png | 692998 | 2025-07-25 05:28:13 |
| - | 1583902.json | 4905 | 2025-07-25 05:12:09 |
| - | 1583902_2252046_LoboTheBird_sketch124115312.png | 404996 | 2025-07-25 05:12:09 |
| - | 1584588.json | 6291 | 2025-07-25 04:56:40 |
| - | 1584588_2253129_LoboTheBird_sketch13514449.png | 722607 | 2025-07-25 04:56:40 |
| - | 1585252.json | 5486 | 2025-07-25 04:41:12 |
| - | 1585252_2254131_LoboTheBird_sketch146114420.png | 354861 | 2025-07-25 04:41:12 |
| - | 1586726.json | 7738 | 2025-07-25 04:07:41 |
| - | 1586726_2256359_LoboTheBird_sketch1502312.png | 921379 | 2025-07-25 04:07:41 |
| - | 1587456.json | 6310 | 2025-07-25 03:50:34 |
| - | 1587456_2257517_LoboTheBird_sketch17212011.png | 256296 | 2025-07-25 03:50:34 |
| - | 1588783.json | 7307 | 2025-07-25 03:20:30 |
| - | 1588783_2259600_LoboTheBird_sketch18322448.png | 1198053 | 2025-07-25 03:20:30 |
| - | 1589344.json | 5017 | 2025-07-25 03:06:09 |
| - | 1589344_2260457_LoboTheBird_sketch19420485.png | 409262 | 2025-07-25 03:06:09 |
| - | 1589492.json | 4850 | 2025-07-25 03:02:33 |
| - | 1589492_2260661_LoboTheBird_sketch194213744.png | 226218 | 2025-07-25 03:02:33 |
| - | 1589924.json | 7471 | 2025-07-25 02:52:28 |
| - | 1589924_2261328_LoboTheBird_sketch205223849.png | 354269 | 2025-07-25 02:52:28 |
| - | 1590398.json | 9836 | 2025-07-25 02:42:08 |
| - | 1590398_2262046_LoboTheBird_sketch21619057.png | 790753 | 2025-07-25 02:42:08 |
| - | 1592589.json | 7742 | 2025-07-25 01:55:34 |
| - | 1592589_2265807_LoboTheBird_sketch23125048.png | 1052272 | 2025-07-25 01:55:34 |
| - | 1594892.json | 5821 | 2025-07-25 01:02:26 |
| - | 1594892_2269346_LoboTheBird_sketch26412957.png | 730896 | 2025-07-25 01:02:26 |
| - | 1596192.json | 5397 | 2025-07-25 00:32:41 |
| - | 1596192_2271369_LoboTheBird_sketch275232521.png | 832544 | 2025-07-25 00:32:41 |
| - | 1596226.json | 5205 | 2025-07-25 00:31:46 |
| - | 1596226_2271443_LoboTheBird_sketch28623317.png | 760083 | 2025-07-25 00:31:46 |
| - | 1597779.json | 5764 | 2025-07-24 23:56:49 |
| - | 1597779_2273878_LoboTheBird_sketch301113831.png | 531437 | 2025-07-24 23:56:49 |
| - | 1598290.json | 6185 | 2025-07-24 23:44:35 |
| - | 1598290_2274824_LoboTheBird_sketch1225035.png | 289024 | 2025-07-24 23:44:35 |
| - | 1599681.json | 6809 | 2025-07-24 23:13:20 |
| - | 1599681_2277026_LoboTheBird_sketch3401822.png | 565539 | 2025-07-24 23:13:20 |
| - | 1601198.json | 6769 | 2025-07-24 22:36:09 |
| - | 1601198_2279250_LoboTheBird_sketch56114532.png | 563173 | 2025-07-24 22:36:09 |
| - | 1602550.json | 8457 | 2025-07-24 22:02:16 |
| - | 1602550_2281279_LoboTheBird_sketch7101611.png | 655226 | 2025-07-24 22:02:16 |
| - | 1602550_2281280_LoboTheBird_sketch7110530.png | 645164 | 2025-07-24 22:02:16 |
| - | 1603912.json | 5897 | 2025-07-24 21:26:58 |
| - | 1603912_2283402_LoboTheBird_sketch82133739.png | 800114 | 2025-07-24 21:26:58 |
| - | 1605651.json | 14791 | 2025-07-24 20:46:39 |
| - | 1605651_2285949_LoboTheBird_sketch115142943.png | 1032452 | 2025-07-24 20:46:39 |
| - | 1605651_2285950_LoboTheBird_sketch115203624.png | 1029547 | 2025-07-24 20:46:39 |
| - | 1605651_2285952_LoboTheBird_sketch115203634.png | 1019598 | 2025-07-24 20:46:40 |
| - | 1606200.json | 6876 | 2025-07-24 20:32:38 |
| - | 1606200_2286794_LoboTheBird_sketch12624120.png | 417450 | 2025-07-24 20:32:38 |
| - | 1607352.json | 8317 | 2025-07-24 19:44:27 |
| - | 1607352_2288423_LoboTheBird_sketch14116222.png | 828919 | 2025-07-24 19:44:27 |
| - | 1607352_2288429_LoboTheBird_sketch14122530.png | 853314 | 2025-07-24 19:44:27 |
| - | 1607806.json | 5663 | 2025-07-24 19:33:58 |
| - | 1607806_2289112_LoboTheBird_sketch141212843.png | 432807 | 2025-07-24 19:33:58 |
| - | 1607892.json | 5884 | 2025-07-24 19:32:04 |
| - | 1607892_2289283_LoboTheBird_sketch15211124.png | 707886 | 2025-07-24 19:32:04 |
| - | 1610286.json | 8134 | 2025-07-24 18:38:46 |
| - | 1610286_2293633_LoboTheBird_sketch163112145.png | 660632 | 2025-07-24 18:38:46 |
| - | 1612250.json | 5794 | 2025-07-24 17:54:25 |
| - | 1612250_2296970_LoboTheBird_sketch18523649.png | 533483 | 2025-07-24 17:54:25 |
| - | 1614914.json | 9577 | 2025-07-24 16:51:54 |
| - | 1614914_2301191_LoboTheBird_2297999_alessio626_footjob_surprise_piss_normale_penis_cut_sketch_16_colored.jpg | 1015714 | 2025-07-24 16:51:54 |
| - | 1614917.json | 14349 | 2025-07-24 16:51:50 |
| - | 1614917_2301194_LoboTheBird_sketch2110211.png | 1386873 | 2025-07-24 16:51:50 |
| - | 1614917_2301196_LoboTheBird_sketch196222248.png | 1522925 | 2025-07-24 16:51:50 |
| - | 1617457.json | 5453 | 2025-07-24 15:50:29 |
| - | 1617457_2305345_LoboTheBird_sketch24414947.png | 384146 | 2025-07-24 15:50:29 |
| - | 1618535.json | 6834 | 2025-07-24 15:25:34 |
| - | 1618535_2307071_LoboTheBird_sketch244214648.png | 636570 | 2025-07-24 15:25:34 |
| - | 1619652.json | 4873 | 2025-07-24 15:01:57 |
| - | 1619652_2308918_LoboTheBird_sketch26613448.png | 610298 | 2025-07-24 15:01:57 |
| - | 1620888.json | 5188 | 2025-07-24 14:34:42 |
| - | 1620888_2310965_LoboTheBird_sketch270154645.png | 267432 | 2025-07-24 14:34:42 |
| - | 1621413.json | 5003 | 2025-07-24 14:22:33 |
| - | 1621413_2311758_LoboTheBird_sketch27022480.png | 204320 | 2025-07-24 14:22:33 |
| - | 1621812.json | 5771 | 2025-07-24 14:12:36 |
| - | 1621812_2312361_LoboTheBird_sketch281182157.png | 301442 | 2025-07-24 14:12:36 |
| - | 1622426.json | 6000 | 2025-07-24 13:58:16 |
| - | 1622426_2313417_LoboTheBird_sketch29213343.png | 578972 | 2025-07-24 13:58:16 |
| - | 1624368.json | 5215 | 2025-07-24 13:13:15 |
| - | 1624368_2316869_LoboTheBird_sketch303125246.png | 325053 | 2025-07-24 13:13:15 |
| - | 1625068.json | 6804 | 2025-07-24 12:55:51 |
| - | 1625068_2317956_LoboTheBird_sketch31412624.png | 589367 | 2025-07-24 12:55:51 |
| - | 1626413.json | 5464 | 2025-07-24 12:20:28 |
| - | 1626413_2320079_LoboTheBird_sketch15222632.png | 445611 | 2025-07-24 12:20:28 |
| - | 1627067.json | 9844 | 2025-07-24 12:04:07 |
| - | 1627067_2320987_LoboTheBird_sketch2620246.png | 490023 | 2025-07-24 12:04:07 |
| - | 1627067_2320989_LoboTheBird_sketch2617221.png | 523920 | 2025-07-24 12:04:08 |
| - | 1628476.json | 8158 | 2025-07-24 11:28:21 |
| - | 1628476_2323128_LoboTheBird_sketch5203750.png | 817563 | 2025-07-24 11:28:21 |
| - | 1629084.json | 5463 | 2025-07-24 11:13:14 |
| - | 1629084_2324097_LoboTheBird_sketch6303310.png | 777260 | 2025-07-24 11:13:14 |
| - | 1631110.json | 5586 | 2025-07-24 10:18:20 |
| - | 1631110_2327144_LoboTheBird_sketch96144337.png | 821064 | 2025-07-24 10:18:20 |
| - | 1631816.json | 5508 | 2025-07-24 09:57:56 |
| - | 1631816_2328257_LoboTheBird_sketch96211921.png | 1068356 | 2025-07-24 09:57:56 |
| - | 1632941.json | 8956 | 2025-07-24 09:31:12 |
| - | 1632941_2329922_LoboTheBird_sketch111221031.png | 1349487 | 2025-07-24 09:31:12 |
| - | 1634301.json | 5619 | 2025-07-24 08:59:15 |
| - | 1634301_2331964_LoboTheBird_sketch1442540.png | 315196 | 2025-07-24 08:59:15 |
| - | 1635473.json | 5331 | 2025-07-24 08:32:25 |
| - | 1635473_2333552_LoboTheBird_sketch155202923.png | 704594 | 2025-07-24 08:32:25 |
| - | 1635799.json | 10423 | 2025-07-24 08:24:55 |
| - | 1635799_2333990_LoboTheBird_sketch15522169.png | 406400 | 2025-07-24 08:24:55 |
| - | 1635799_2333993_LoboTheBird_sketch1551020.png | 389530 | 2025-07-24 08:24:56 |
| - | 1637837.json | 8309 | 2025-07-24 07:37:42 |
| - | 1637837_2337086_LoboTheBird_sketch18123557.png | 1049577 | 2025-07-24 07:37:42 |
| - | 1639416.json | 9230 | 2025-07-24 07:02:15 |
| - | 1639416_2339465_LoboTheBird_sketch203191619.jpg | 980218 | 2025-07-24 07:02:15 |
| - | 1639416_2339468_LoboTheBird_sketch214115926.png | 1212993 | 2025-07-24 07:02:15 |
| - | 1640105.json | 5025 | 2025-07-24 06:45:55 |
| - | 1640105_2340439_LoboTheBird_sketch214222740.png | 807339 | 2025-07-24 06:45:55 |
| - | 1641856.json | 5348 | 2025-07-24 06:03:04 |
| - | 1641856_2342993_LoboTheBird_sketch24012723.png | 456438 | 2025-07-24 06:03:04 |
| - | 1642549.json | 6796 | 2025-07-24 05:46:29 |
| - | 1642549_2343976_LoboTheBird_sketch240182327.png | 888328 | 2025-07-24 05:46:29 |
| - | 1644622.json | 5022 | 2025-07-24 04:58:26 |
| - | 1644622_2347198_LoboTheBird_sketch28421416.png | 412789 | 2025-07-24 04:58:26 |
| - | 1645168.json | 5725 | 2025-07-24 04:45:17 |
| - | 1645168_2347988_LoboTheBird_sketch2950476.png | 608476 | 2025-07-24 04:45:17 |
| - | 1646230.json | 10413 | 2025-07-24 04:20:42 |
| - | 1646230_2349575_LoboTheBird_sketch306185717.png | 320592 | 2025-07-24 04:20:41 |
| - | 1646230_2349576_LoboTheBird_sketch295225849.png | 335757 | 2025-07-24 04:20:42 |
| - | 1646230_2349581_LoboTheBird_sketch306185724.png | 333503 | 2025-07-24 04:20:42 |
| - | 1647057.json | 5974 | 2025-07-24 04:02:56 |
| - | 1647057_2350864_LoboTheBird_sketch1021326.png | 486476 | 2025-07-24 04:02:56 |
| - | 1647756.json | 5329 | 2025-07-24 03:46:20 |
| - | 1647756_2351969_LoboTheBird_sketch211186.png | 811033 | 2025-07-24 03:46:20 |
| - | 1649718.json | 5909 | 2025-07-24 02:59:01 |
| - | 1649718_2355011_LoboTheBird_sketch4314315.png | 1199572 | 2025-07-24 02:59:01 |
| - | 1650543.json | 5006 | 2025-07-24 02:39:58 |
| - | 1650543_2356335_LoboTheBird_sketch65125217.png | 784960 | 2025-07-24 02:39:58 |
| - | 1652676.json | 5724 | 2025-07-24 01:49:32 |
| - | 1652676_2359763_LoboTheBird_sketch80192554.png | 991161 | 2025-07-24 01:49:32 |
| - | 1654233.json | 7387 | 2018-11-23 19:58:58 |
| - | 1654233_2362177_LoboTheBird_sketch10221107.png | 520462 | 2018-11-23 19:58:58 |
| - | 1655006.json | 8629 | 2025-07-24 00:52:58 |
| - | 1655006_2363385_LoboTheBird_sketch12411925.png | 856627 | 2025-07-24 00:52:58 |
| - | 1655772.json | 5481 | 2025-07-24 00:35:06 |
| - | 1655772_2364449_LoboTheBird_sketch12423240.png | 1117800 | 2025-07-24 00:35:06 |
| - | 1659199.json | 6365 | 2025-07-23 23:04:51 |
| - | 1659199_2369650_LoboTheBird_sketch172223526.jpg | 447777 | 2025-07-23 23:04:51 |
| - | 1659537.json | 5679 | 2025-07-23 22:57:17 |
| - | 1659537_2370140_LoboTheBird_sketch1831259.png | 463768 | 2025-07-23 22:57:17 |
| - | 1661193.json | 6598 | 2025-07-23 22:17:05 |
| - | 1661193_2372677_LoboTheBird_sketch216103615.png | 1220606 | 2025-07-23 22:17:05 |
| - | 1662055.json | 5325 | 2025-07-23 21:55:51 |
| - | 1662055_2373935_LoboTheBird_sketch22011362.png | 826962 | 2025-07-23 21:55:51 |
| - | 1662711.json | 5339 | 2025-07-23 21:39:55 |
| - | 1662711_2374936_LoboTheBird_sketch231256.png | 331860 | 2025-07-23 21:39:55 |
| - | 1664022.json | 5914 | 2025-07-23 21:06:03 |
| - | 1664022_2376911_LoboTheBird_sketch231215145.png | 501778 | 2025-07-23 21:06:03 |
| - | 1664932.json | 5602 | 2025-07-23 20:41:34 |
| - | 1664932_2378189_LoboTheBird_sketch264102620.png | 513831 | 2025-07-23 20:41:34 |
| - | 1665548.json | 5523 | 2025-07-23 20:24:17 |
| - | 1665548_2379112_LoboTheBird_sketch2751518.png | 437756 | 2025-07-23 20:24:17 |
| - | 1665984.json | 5654 | 2025-07-23 20:13:43 |
| - | 1665984_2379752_LoboTheBird_sketch28614425.png | 653204 | 2025-07-23 20:13:43 |
| - | 1667952.json | 5585 | 2025-07-23 19:21:23 |
| - | 1667952_2382792_LoboTheBird_sketch30115918.png | 562224 | 2025-07-23 19:21:23 |
| - | 1668856.json | 8800 | 2025-07-23 18:58:39 |
| - | 1668856_2384194_LoboTheBird_2382702_alessio626_paw_off_on_the_buss_2017_sketch_18_colored.jpg | 851555 | 2025-07-23 18:58:39 |
| - | 1670143.json | 8985 | 2025-07-23 18:27:57 |
| - | 1670143_2386253_LoboTheBird_sketch24201559.png | 810251 | 2025-07-23 18:27:57 |
| - | 1673468.json | 5495 | 2025-07-23 16:36:18 |
| - | 1673468_2391129_LoboTheBird_sketch7220238.png | 2424159 | 2025-07-23 16:36:18 |
| - | 1674451.json | 5878 | 2025-07-23 16:11:48 |
| - | 1674451_2392637_LoboTheBird_sketch941413.png | 643640 | 2025-07-23 16:11:48 |
| - | 1675569.json | 5752 | 2025-07-23 15:44:55 |
| - | 1675569_2446108_LoboTheBird_sketch1125616.png | 599352 | 2018-11-24 02:33:49 |
| - | 1675569_2522501_LoboTheBird_sketch1125616.png | 629216 | 2025-07-23 15:44:55 |
| - | 1678364.json | 5215 | 2025-07-23 14:38:37 |
| - | 1678364_2398258_LoboTheBird_sketch142133457.png | 621606 | 2025-07-23 14:38:37 |
| - | 1679171.json | 5278 | 2025-07-23 14:19:36 |
| - | 1679171_2399350_LoboTheBird_sketch16403212.png | 1752939 | 2025-07-23 14:19:36 |
| - | 1679184.json | 5057 | 2025-07-23 14:19:17 |
| - | 1679184_2399359_LoboTheBird_sketch142133457.png | 553153 | 2025-07-23 14:19:17 |
| - | 1679755.json | 5269 | 2025-07-23 14:04:45 |
| - | 1679755_2400205_LoboTheBird_sketch16420138.png | 1683824 | 2025-07-23 14:04:45 |
| - | 1679756.json | 5652 | 2025-07-23 14:04:43 |
| - | 1679756_2400207_LoboTheBird_sketch164222520.png | 363645 | 2025-07-23 14:04:43 |
| - | 1680392.json | 7936 | 2025-07-23 13:50:03 |
| - | 1680392_2401274_LoboTheBird_sketch18695346.png | 811074 | 2025-07-23 13:50:04 |
| - | 1680392_2401275_LoboTheBird_sketch17523351.png | 805416 | 2025-07-23 13:50:03 |
| - | 1681890.json | 6494 | 2025-07-23 13:15:44 |
| - | 1681890_2403447_LoboTheBird_sketch16123124.png | 815569 | 2025-07-23 13:15:44 |
| - | 1682470.json | 5898 | 2025-07-23 13:01:00 |
| - | 1682470_2404430_LoboTheBird_sketch201194221.png | 272473 | 2025-07-23 13:01:00 |
| - | 1682664.json | 6101 | 2025-07-23 12:56:20 |
| - | 1682664_2404725_LoboTheBird_sketch212121532.png | 463609 | 2025-07-23 12:56:20 |
| - | 1683792.json | 8331 | 2025-07-23 12:27:57 |
| - | 1683792_2406580_LoboTheBird_sketch234132439.png | 457171 | 2025-07-23 12:27:57 |
| - | 1684531.json | 5072 | 2025-07-23 12:09:03 |
| - | 1684531_2407651_LoboTheBird_sketch2451033.png | 314211 | 2025-07-23 12:09:03 |
| - | 1686438.json | 7335 | 2025-07-23 11:14:42 |
| - | 1686438_2410538_LoboTheBird_sketch27114825.png | 1197665 | 2025-07-23 11:14:42 |
| - | 1687074.json | 5332 | 2025-07-23 10:58:14 |
| - | 1687074_2411514_LoboTheBird_sketch271124433.png | 344290 | 2025-07-23 10:58:14 |
| - | 1687282.json | 5374 | 2025-07-23 10:52:22 |
| - | 1687282_2411811_LoboTheBird_sketch271125317.png | 692057 | 2025-07-23 10:52:22 |
| - | 1687726.json | 7779 | 2025-07-23 10:40:47 |
| - | 1687726_2412417_LoboTheBird_sketch29315245.png | 781339 | 2025-07-23 10:40:47 |
| - | 1687874.json | 7832 | 2018-11-24 06:13:12 |
| - | 1687874_2412609_LoboTheBird_sketch2933234.png | 406363 | 2018-11-24 06:13:13 |
| - | 1688463.json | 6595 | 2025-07-23 10:20:10 |
| - | 1688463_2413483_LoboTheBird_sketch30424948.png | 380414 | 2025-07-23 10:20:10 |
| - | 1689214.json | 5396 | 2025-07-23 10:00:28 |
| - | 1689214_2414737_LoboTheBird_sketch31513282.png | 519444 | 2025-07-23 10:00:28 |
| - | 1689684.json | 11195 | 2025-07-23 09:48:12 |
| - | 1689684_2415428_LoboTheBird_sketch1621412.png | 903288 | 2025-07-23 09:48:11 |
| - | 1689684_2415430_LoboTheBird_sketch3152328.png | 920897 | 2025-07-23 09:48:12 |
| - | 1689771.json | 4994 | 2025-07-23 09:45:51 |
| - | 1689771_2415560_LoboTheBird_sketch1623412.png | 120295 | 2025-07-23 09:45:51 |
| - | 1690752.json | 5778 | 2025-07-23 09:21:27 |
| - | 1690752_2416984_LoboTheBird_sketch1622956.png | 545090 | 2025-07-23 09:21:27 |
| - | 1691324.json | 6424 | 2025-07-23 09:08:25 |
| - | 1691324_2417809_LoboTheBird_sketch3110521.png | 866502 | 2025-07-23 09:08:25 |
| - | 1693010.json | 5723 | 2025-07-23 08:29:16 |
| - | 1693010_2420377_LoboTheBird_439b1c82-6921-4b59-9561-fa3aa8cc8fce.png | 1264021 | 2025-07-23 08:29:16 |
| - | 1694326.json | 5799 | 2025-07-23 07:57:26 |
| - | 1694326_2422396_LoboTheBird_c7f54214-72e7-4fab-bd94-a8160e7d9ffe.png | 1637098 | 2025-07-23 07:57:26 |
| - | 1694653.json | 5556 | 2025-07-23 07:50:08 |
| - | 1694653_2422865_LoboTheBird_sketch8616114.png | 292213 | 2025-07-23 07:50:08 |
| - | 1695034.json | 6630 | 2025-07-23 07:41:27 |
| - | 1695034_2423438_LoboTheBird_sketch86232448.png | 889572 | 2025-07-23 07:41:27 |
| - | 1695570.json | 5205 | 2025-07-23 07:29:08 |
| - | 1695570_2424229_LoboTheBird_sketch1010311.png | 452039 | 2025-07-23 07:29:08 |
| - | 1697933.json | 11950 | 2025-07-23 06:32:46 |
| - | 1697933_2427934_LoboTheBird_sketch134153420.png | 1289814 | 2025-07-23 06:32:46 |
| - | 1700288.json | 23046 | 2025-07-23 05:36:14 |
| - | 1700288_2431457_LoboTheBird_cover.png | 436612 | 2025-07-23 05:36:13 |
| - | 1700288_2431458_LoboTheBird_page1.png | 513904 | 2025-07-23 05:36:13 |
| - | 1700288_2431460_LoboTheBird_page2.png | 511502 | 2025-07-23 05:36:13 |
| - | 1700288_2431465_LoboTheBird_page3.png | 463773 | 2025-07-23 05:36:14 |
| - | 1700288_2431467_LoboTheBird_page4.png | 436821 | 2025-07-23 05:36:14 |
| - | 1700288_2431468_LoboTheBird_page5.png | 462112 | 2025-07-23 05:36:14 |
| - | 1700288_2431470_LoboTheBird_page6.png | 559912 | 2025-07-23 05:36:14 |
| - | 1700288_2431472_LoboTheBird_page7.png | 489211 | 2025-07-23 05:36:14 |
| - | 1700288_2431473_LoboTheBird_page8.png | 391845 | 2025-07-23 05:36:15 |
| - | 1701249.json | 8130 | 2025-07-23 05:13:14 |
| - | 1701249_2432907_LoboTheBird_sketch182143645.png | 229776 | 2025-07-23 05:13:13 |
| - | 1701249_2432908_LoboTheBird_sketch182123059.png | 236439 | 2025-07-23 05:13:13 |
| - | 1701874.json | 5745 | 2025-07-23 04:58:53 |
| - | 1701874_2433819_LoboTheBird_sketch182193641.png | 340497 | 2025-07-23 04:58:53 |
| - | 1702732.json | 5132 | 2025-07-23 04:39:04 |
| - | 1702732_2435087_LoboTheBird_sketch2042937.png | 719495 | 2025-07-23 04:39:04 |
| - | 1703105.json | 9589 | 2025-07-23 04:30:25 |
| - | 1703105_2435600_LoboTheBird_2434472_alessio626_wolfie_triple_orgy_art_trade_sketch_22_colored.jpg | 1491029 | 2025-07-23 04:30:25 |
| - | 1703109.json | 5180 | 2025-07-23 04:30:20 |
| - | 1703109_2435605_LoboTheBird_sketch204224116.png | 410113 | 2025-07-23 04:30:20 |
| - | 1703793.json | 5180 | 2025-07-23 04:14:25 |
| - | 1703793_2436626_LoboTheBird_sketch215143046.png | 413083 | 2025-07-23 04:14:25 |
| - | 1704611.json | 5766 | 2025-07-23 03:56:02 |
| - | 1704611_2437778_LoboTheBird_sketch226232348.png | 395199 | 2025-07-23 03:56:02 |
| - | 1704941.json | 5546 | 2025-07-23 03:48:22 |
| - | 1704941_2438257_LoboTheBird_sketch2301764.png | 744199 | 2025-07-23 03:48:22 |
| - | 1705388.json | 6543 | 2025-07-23 03:37:51 |
| - | 1705388_2438992_LoboTheBird_sketch2412481.png | 480012 | 2025-07-23 03:37:51 |
| - | 1706640.json | 6451 | 2025-07-23 03:06:29 |
| - | 1706640_2440911_LoboTheBird_sketch252115619.png | 490027 | 2025-07-23 03:06:29 |
| - | 1706836.json | 5389 | 2025-07-23 03:01:47 |
| - | 1706836_2441198_LoboTheBird_sketch24115844.png | 324434 | 2025-07-23 03:01:47 |
| - | 1707798.json | 7156 | 2025-07-23 02:40:20 |
| - | 1707798_2442647_LoboTheBird_sketch27414143.png | 555509 | 2025-07-23 02:40:20 |
| - | 1708138.json | 6372 | 2025-07-23 02:32:04 |
| - | 1708138_2443110_LoboTheBird_sketch274202113.png | 511831 | 2025-07-23 02:32:04 |
| - | 1708887.json | 5410 | 2025-07-23 02:15:17 |
| - | 1708887_2444208_LoboTheBird_sketch285162145.png | 1145883 | 2025-07-23 02:15:17 |
| - | 1710042.json | 5376 | 2025-07-23 01:49:04 |
| - | 1710042_2445985_LoboTheBird_sketch300202151.png | 350208 | 2025-07-23 01:49:04 |
| - | 1711886.json | 5738 | 2025-07-23 01:06:23 |
| - | 1711886_2448673_LoboTheBird_sketch22144310.png | 749076 | 2025-07-23 01:06:23 |
| - | 1712653.json | 8939 | 2025-07-23 00:48:52 |
| - | 1712653_2449835_LoboTheBird_sketch33135655.png | 673595 | 2025-07-23 00:48:52 |
| - | 1713500.json | 5449 | 2025-07-23 00:28:56 |
| - | 1713500_2451055_LoboTheBird_sketch55113756.png | 391700 | 2025-07-23 00:28:56 |
| - | 1715982.json | 5595 | 2025-07-22 23:30:59 |
| - | 1715982_2454705_LoboTheBird_sketch8125331.png | 615524 | 2025-07-22 23:30:59 |
| - | 1717319.json | 6175 | 2025-07-22 22:57:30 |
| - | 1717319_2456582_LoboTheBird_sketch92215243.png | 590109 | 2025-07-22 22:57:30 |
| - | 1718310.json | 5933 | 2025-07-22 22:33:50 |
| - | 1718310_2458050_LoboTheBird_sketch11423235.png | 641105 | 2025-07-22 22:33:50 |
| - | 1719228.json | 5652 | 2025-07-22 22:11:34 |
| - | 1719228_2459486_LoboTheBird_sketch125192430.png | 309491 | 2025-07-22 22:11:34 |
| - | 1719391.json | 5450 | 2025-07-22 22:07:26 |
| - | 1719391_2459709_LoboTheBird_sketch125221033.png | 405066 | 2025-07-22 22:07:26 |
| - | 1720312.json | 5503 | 2025-07-22 21:44:44 |
| - | 1720312_2461066_LoboTheBird_sketch136234155.png | 754614 | 2025-07-22 21:44:44 |
| - | 1720697.json | 7963 | 2018-11-24 10:58:28 |
| - | 1720697_2461634_LoboTheBird_sketch14012435.png | 2697787 | 2018-11-24 10:58:28 |
| - | 1721023.json | 8429 | 2025-07-22 21:28:19 |
| - | 1721023_2462066_LoboTheBird_sketch15123129.png | 347948 | 2025-07-22 21:28:19 |
| - | 1721160.json | 6635 | 2025-07-22 21:24:54 |
| - | 1721160_2462460_LoboTheBird_sketch15110548.png | 741238 | 2025-07-22 21:24:54 |
| - | 1721437.json | 7696 | 2018-11-24 11:03:33 |
| - | 1721437_2462654_LoboTheBird_sketch151192329.png | 507248 | 2018-11-24 11:03:33 |
| - | 1722273.json | 5869 | 2025-07-22 20:57:57 |
| - | 1722273_2463895_LoboTheBird_c6f14f67-536b-40f9-a9ca-8d2225a36bb2.png | 2141670 | 2025-07-22 20:57:57 |
| - | 1723206.json | 6551 | 2025-07-22 20:34:55 |
| - | 1723206_2465242_LoboTheBird_sketch17321235.png | 452658 | 2025-07-22 20:34:55 |
| - | 1733637.json | 5758 | 2025-07-22 16:06:10 |
| - | 1733637_2480612_LoboTheBird_sketch313141049.png | 267792 | 2025-07-22 16:06:10 |
| - | 1734304.json | 9164 | 2025-07-22 15:49:16 |
| - | 1734304_2481698_LoboTheBird_sketch1425943.png | 435650 | 2025-07-22 15:49:16 |
| - | 1734304_2481699_LoboTheBird_sketch140165.png | 435678 | 2025-07-22 15:49:16 |
| - | 1734605.json | 5461 | 2025-07-22 15:41:45 |
| - | 1734605_2482315_LoboTheBird_sketch14144156.png | 705173 | 2025-07-22 15:41:45 |
| - | 1734963.json | 6091 | 2025-07-22 15:33:17 |
| - | 1734963_2482628_LoboTheBird_sketch14225259.png | 1204592 | 2025-07-22 15:33:17 |
| - | 1735597.json | 6149 | 2025-07-22 15:17:57 |
| - | 1735597_2483560_LoboTheBird_sketch2524226.png | 526015 | 2025-07-22 15:17:57 |
| - | 1735601.json | 6045 | 2025-07-22 15:17:52 |
| - | 1735601_2483564_LoboTheBird_sketch25235021.png | 482599 | 2025-07-22 15:17:52 |
| - | 1736535.json | 8058 | 2025-07-22 14:54:57 |
| - | 1736535_2484862_LoboTheBird_sketch362147.png | 489359 | 2025-07-22 14:54:57 |
| - | 1736535_2484864_LoboTheBird_sketch407145.png | 498628 | 2025-07-22 14:54:56 |
| - | 1737051.json | 6054 | 2025-07-22 14:41:30 |
| - | 1737051_2485718_LoboTheBird_sketch40175438.png | 721573 | 2025-07-22 14:41:30 |
| - | 1737706.json | 8437 | 2025-07-22 14:25:49 |
| - | 1737706_2486785_LoboTheBird_sketch51112521.png | 432788 | 2025-07-22 14:25:49 |
| - | 1738356.json | 6161 | 2025-07-22 14:10:26 |
| - | 1738356_2487704_LoboTheBird_sketch51145218.png | 481567 | 2025-07-22 14:10:26 |
| - | 1738953.json | 5873 | 2025-07-22 13:55:41 |
| - | 1738953_2488987_LoboTheBird_sketch73134111.png | 583586 | 2025-07-22 13:55:41 |
| - | 1739196.json | 10835 | 2025-07-22 13:49:33 |
| - | 1739196_2489324_LoboTheBird_sketch73231733.png | 449909 | 2025-07-22 13:49:32 |
| - | 1739196_2489325_LoboTheBird_sketch84171421.png | 475379 | 2025-07-22 13:49:33 |
| - | 1739196_2489327_LoboTheBird_sketch84171411.png | 473720 | 2025-07-22 13:49:33 |
| - | 1739625.json | 6112 | 2025-07-22 13:38:41 |
| - | 1739625_2489918_LoboTheBird_sketch6213104.jpg | 495277 | 2025-07-22 13:38:41 |
| - | 1739776.json | 7828 | 2018-11-24 14:20:55 |
| - | 1739776_2490149_LoboTheBird_sketch84181216.png | 767604 | 2018-11-24 14:20:55 |
| - | 1740289.json | 5575 | 2025-07-22 13:23:10 |
| - | 1740289_2490869_LoboTheBird_sketch9515315.png | 687663 | 2025-07-22 13:23:10 |
| - | 1741246.json | 5927 | 2025-07-22 12:59:52 |
| - | 1741246_2492360_LoboTheBird_sketch95193838.png | 1102778 | 2025-07-22 12:59:52 |
| - | 1742550.json | 9418 | 2025-07-22 12:30:22 |
| - | 1742550_2494634_LoboTheBird_sketch121104647.png | 723851 | 2025-07-22 12:30:22 |
| - | 1743794.json | 6280 | 2025-07-22 11:59:10 |
| - | 1743794_2496441_LoboTheBird_sketch14312016.png | 854930 | 2025-07-22 11:59:10 |
| - | 1744447.json | 5141 | 2025-07-22 11:42:18 |
| - | 1744447_2497451_LoboTheBird_sketch16503635.png | 796425 | 2025-07-22 11:42:18 |
| - | 1745166.json | 5884 | 2025-07-22 11:22:59 |
| - | 1745166_2498695_LoboTheBird_sketch17614425.png | 532147 | 2025-07-22 11:22:59 |
| - | 1747310.json | 9510 | 2025-07-22 10:32:13 |
| - | 1747310_2501753_LoboTheBird_sketch202141922.png | 848365 | 2025-07-22 10:32:13 |
| - | 1747310_2501757_LoboTheBird_sketch2020332.png | 854398 | 2025-07-22 10:32:13 |
| - | 1747839.json | 5427 | 2025-07-22 10:18:20 |
| - | 1747839_2502489_LoboTheBird_sketch20216244.png | 494299 | 2025-07-22 10:18:20 |
| - | 1747919.json | 5011 | 2025-07-22 10:16:30 |
| - | 1747919_2502594_LoboTheBird_sketch2132042.png | 290759 | 2025-07-22 10:16:30 |
| - | 1748874.json | 5910 | 2025-07-22 09:50:47 |
| - | 1748874_2503868_LoboTheBird_sketch224104350.png | 529341 | 2025-07-22 09:50:47 |
| - | 1749373.json | 5288 | 2025-07-22 09:37:43 |
| - | 1749373_2504743_LoboTheBird_sketch23515041.png | 914942 | 2025-07-22 09:37:43 |
| - | 1750045.json | 9142 | 2025-07-22 09:21:59 |
| - | 1750045_2505703_LoboTheBird_sketch23517146.png | 1117121 | 2025-07-22 09:21:59 |
| - | 1750919.json | 5517 | 2025-07-22 09:00:21 |
| - | 1750919_2507004_LoboTheBird_sketch24618462.png | 646426 | 2025-07-22 09:00:21 |
| - | 1751024.json | 6755 | 2025-07-22 08:57:48 |
| - | 1751024_2507153_LoboTheBird_sketch24612113.png | 608441 | 2025-07-22 08:57:48 |
| - | 1752519.json | 6110 | 2025-07-22 08:25:00 |
| - | 1752519_2509226_LoboTheBird_sketch27215751.png | 407800 | 2025-07-22 08:25:00 |
| - | 1754216.json | 14370 | 2025-07-22 07:46:14 |
| - | 1754216_2511852_LoboTheBird_sketch28314518.png | 1101859 | 2025-07-22 07:46:14 |
| - | 1754216_2511854_LoboTheBird_sketch30501224.png | 1110063 | 2025-07-22 07:46:14 |
| - | 1754224.json | 9437 | 2025-07-22 07:46:03 |
| - | 1754224_2511868_LoboTheBird_2509898_alessio626_time_to_have_sex_jump_sketch_16colored.jpg | 1180581 | 2025-07-22 07:46:03 |
| - | 1755886.json | 6469 | 2025-07-22 07:06:17 |
| - | 1755886_2514621_LoboTheBird_sketch1613516.png | 666266 | 2025-07-22 07:06:17 |
| - | 1756656.json | 6039 | 2025-07-22 06:48:12 |
| - | 1756656_2515650_LoboTheBird_sketch20223511.png | 667764 | 2025-07-22 06:48:12 |
| - | 1758410.json | 6521 | 2025-07-22 06:07:40 |
| - | 1758410_2518505_LoboTheBird_sketch4220623.png | 914917 | 2018-12-05 19:51:13 |
| - | 1758410_2518948_LoboTheBird_sketch4220623.png | 925317 | 2025-07-22 06:07:40 |
| - | 1760322.json | 6008 | 2025-07-22 05:23:44 |
| - | 1760322_2521511_LoboTheBird_sketch75131829.png | 957338 | 2018-12-08 02:22:15 |
| - | 1760322_2521752_LoboTheBird_sketch75131829.png | 954642 | 2025-07-22 05:23:44 |
| - | 1761529.json | 5601 | 2025-07-22 04:54:25 |
| - | 1761529_2523484_LoboTheBird_sketch9005617.png | 564455 | 2025-07-22 04:54:25 |
| - | 1762533.json | 5854 | 2025-07-22 04:32:08 |
| - | 1762533_2525156_LoboTheBird_sketch10114638.png | 429820 | 2025-07-22 04:32:08 |
| - | 1764469.json | 8532 | 2025-07-22 03:46:51 |
| - | 1764469_2528251_LoboTheBird_sketch123122922.png | 809143 | 2025-07-22 03:46:51 |
| - | 1764469_2528253_LoboTheBird_sketch112133741.png | 827374 | 2025-07-22 03:46:51 |
| - | 1765249.json | 5895 | 2025-07-22 03:27:18 |
| - | 1765249_2529408_LoboTheBird_sketch123204143.png | 1368682 | 2025-07-22 03:27:18 |
| - | 1766069.json | 5611 | 2025-07-22 03:08:01 |
| - | 1766069_2530770_LoboTheBird_sketch134152141.png | 1170774 | 2025-07-22 03:08:01 |
| - | 1767562.json | 5990 | 2025-07-22 02:32:18 |
| - | 1767562_2533057_LoboTheBird_sketch1601045.png | 1149383 | 2025-07-22 02:32:18 |
| - | 1773203.json | 6993 | 2025-07-22 00:21:08 |
| - | 1773203_2541872_LoboTheBird_sketch21514498.png | 683607 | 2025-07-22 00:21:08 |
| - | 1774423.json | 5585 | 2025-07-21 23:51:11 |
| - | 1774423_2543795_LoboTheBird_sketch230142227.png | 901482 | 2025-07-21 23:51:11 |
| - | 1778710.json | 5902 | 2025-07-21 22:07:54 |
| - | 1778710_2549877_LoboTheBird_sketch2961434.png | 637090 | 2025-07-21 22:07:54 |
| - | 1779542.json | 5849 | 2025-07-21 21:47:56 |
| - | 1779542_2551066_LoboTheBird_sketch3001755.png | 708033 | 2025-07-21 21:47:56 |
| - | 1780195.json | 8419 | 2025-07-21 21:32:25 |
| - | 1780195_2552009_LoboTheBird_sketch300235716.png | 919327 | 2025-07-21 21:32:25 |
| - | 1781055.json | 5902 | 2025-07-21 21:10:54 |
| - | 1781055_2553251_LoboTheBird_sketch311165319.png | 1091124 | 2025-07-21 21:10:54 |
| - | 1781182.json | 5584 | 2025-07-21 21:08:02 |
| - | 1781182_2553407_LoboTheBird_sketch12124012.png | 1062992 | 2025-07-21 21:08:02 |
| - | 1782078.json | 6070 | 2025-07-21 20:46:18 |
| - | 1782078_2554756_LoboTheBird_sketch12173937.png | 1327615 | 2025-07-21 20:46:18 |
| - | 1785513.json | 5712 | 2025-07-21 19:22:39 |
| - | 1785513_2559420_LoboTheBird_sketch3414489.png | 877196 | 2025-07-21 19:22:39 |
| - | 1786325.json | 8916 | 2025-07-21 19:02:57 |
| - | 1786325_2560614_LoboTheBird_sketch6016393.png | 658096 | 2025-07-21 19:02:57 |
| - | 1788213.json | 5858 | 2025-07-21 18:16:44 |
| - | 1788213_2563367_LoboTheBird_sketch9312441.png | 1212841 | 2025-07-21 18:16:44 |
| - | 1789562.json | 5868 | 2025-07-21 17:42:35 |
| - | 1789562_2565482_LoboTheBird_sketch93231827.jpg | 485926 | 2025-07-21 17:42:35 |
| - | 1790994.json | 5896 | 2025-07-21 17:03:11 |
| - | 1790994_2567674_LoboTheBird_sketch126141222.png | 499848 | 2025-07-21 17:03:11 |
| - | 1793506.json | 9075 | 2025-07-21 15:40:05 |
| - | 1793506_2571597_LoboTheBird_sketch152135955.png | 1140536 | 2025-07-21 15:40:05 |
| - | 1795878.json | 5867 | 2025-07-21 14:45:40 |
| - | 1795878_2575384_LoboTheBird_sketch16314523.png | 891609 | 2025-07-21 14:45:40 |
| - | 1796816.json | 9576 | 2025-07-21 14:22:28 |
| - | 1796816_2576799_LoboTheBird_2564074_alessio626_gloryhole_fun_with_art_trade_sketch_22_colored.jpg | 1409631 | 2025-07-21 14:22:28 |
| - | 1797721.json | 5977 | 2025-07-21 14:00:59 |
| - | 1797721_2578082_LoboAzul69_sketch20072746.png | 741355 | 2025-07-21 14:00:59 |
| - | 1798278.json | 5725 | 2025-07-21 13:46:03 |
| - | 1798278_2579036_LoboAzul69_sketch21101926.png | 1025441 | 2025-07-21 13:46:03 |
| - | 1805288.json | 4938 | 2025-07-21 10:40:49 |
| - | 1805288_2589874_LoboAzul69_cumplea_osdelobo.jpg | 353461 | 2025-07-21 10:40:49 |
| - | 1807219.json | 11339 | 2025-07-21 09:48:50 |
| - | 1807219_2592774_LoboAzul69_sketch1517555.png | 539315 | 2025-07-21 09:48:50 |
| - | 1807219_2592776_LoboAzul69_sketch15175512.png | 553907 | 2025-07-21 09:48:50 |
| - | 1807219_2592777_LoboAzul69_sketch15175457.png | 716787 | 2025-07-21 09:48:50 |
| - | 1807219_2662430_LoboAzul69_sketch3302220.png | 586669 | 2025-07-21 09:48:49 |
| - | 1809415.json | 7800 | 2025-07-21 08:55:22 |
| - | 1809415_2595991_LoboAzul69_2594543_alessio626_azul_birthday_gift_sketch_13_colored.jpg | 762406 | 2025-07-21 08:55:22 |
| - | 1810132.json | 5452 | 2025-07-21 08:38:21 |
| - | 1810132_2596972_LoboAzul69_sketch41161756.png | 585864 | 2025-07-21 08:38:21 |
| - | 1810698.json | 5738 | 2025-07-21 08:25:03 |
| - | 1810698_2597790_LoboAzul69_sketch52181435.png | 733487 | 2025-07-21 08:25:03 |
| - | 1812884.json | 10101 | 2025-07-21 07:33:18 |
| - | 1812884_2601137_LoboAzul69_sketch9611620.png | 904756 | 2025-07-21 07:33:18 |
| - | 1815836.json | 8712 | 2025-07-21 06:25:07 |
| - | 1815836_2605672_LoboAzul69_2604559_dhcase_nw_request.png | 57887 | 2025-07-21 06:25:07 |
| - | 1815836_2605674_LoboAzul69_2605189_dhcase_nw_request_-_copy.png | 66466 | 2025-07-21 06:25:08 |
| - | 1818094.json | 9002 | 2025-07-21 05:30:13 |
| - | 1818094_2608990_LoboAzul69_2605823_alessio626_watching_friend_and_paw_off_a_i_do_so_sketch_16_colored_2.jpg | 996119 | 2025-07-21 05:30:13 |
| - | 1828404.json | 5399 | 2025-07-21 01:19:49 |
| - | 1828404_2625010_LoboAzul69_img_20190228_131646.jpg | 2117547 | 2025-07-21 01:19:49 |
| - | 1829816.json | 5404 | 2025-07-21 00:44:53 |
| - | 1829816_2626992_LoboAzul69_sketch15184639.png | 487536 | 2025-07-21 00:44:53 |
| - | 1830714.json | 5973 | 2025-07-21 00:22:25 |
| - | 1830714_2628385_LoboAzul69_sketch2620815.jpg | 445841 | 2025-07-21 00:22:25 |
| - | 1831512.json | 7101 | 2025-07-21 00:02:34 |
| - | 1831512_2629519_LoboAzul69_sketch41161528.png | 778821 | 2025-07-21 00:02:34 |
| - | 1831994.json | 5455 | 2025-07-20 23:49:26 |
| - | 1831994_2630206_LoboAzul69_sketch4122548.png | 336621 | 2025-07-20 23:49:26 |
| - | 1832766.json | 6933 | 2025-07-20 23:26:19 |
| - | 1832766_2631293_LoboAzul69_sketch5221811.png | 688850 | 2025-07-20 23:26:19 |
| - | 1833652.json | 5746 | 2025-07-20 23:03:18 |
| - | 1833652_2632714_LoboAzul69_sketch63183332.jpg | 407469 | 2025-07-20 23:03:18 |
| - | 1835189.json | 5996 | 2025-07-20 22:21:50 |
| - | 1835189_2635218_LoboAzul69_sketch96143152.png | 535462 | 2025-07-20 22:21:50 |
| - | 1836409.json | 6135 | 2025-07-20 21:49:52 |
| - | 1836409_2637006_LoboAzul69_sketch11113547.png | 646564 | 2025-07-20 21:49:52 |
| - | 1837297.json | 6679 | 2025-07-20 21:28:10 |
| - | 1837297_2638348_LoboAzul69_sketch11132229.png | 784167 | 2025-07-20 21:28:10 |
| - | 1837973.json | 7537 | 2025-07-20 21:10:06 |
| - | 1837973_2639458_LoboAzul69_sketch12223529.png | 972401 | 2025-07-20 21:10:06 |
| - | 1839509.json | 5383 | 2025-07-20 20:33:32 |
| - | 1839509_2641698_LoboAzul69_sketch122212831.png | 556447 | 2025-07-20 20:33:32 |
| - | 1840040.json | 5873 | 2025-07-20 20:20:20 |
| - | 1840040_2642607_LoboAzul69_sketch15518013.png | 1301974 | 2025-07-20 20:20:20 |
| - | 1840754.json | 6086 | 2025-07-20 20:01:00 |
| - | 1840754_2643673_LoboAzul69_sketch17003611.jpg | 498384 | 2025-07-20 20:01:00 |
| - | 1841580.json | 8179 | 2025-07-20 19:40:49 |
| - | 1841580_2644959_LoboAzul69_sketch18105551.jpg | 550319 | 2025-07-20 19:40:49 |
| - | 1841583.json | 9004 | 2025-07-20 19:40:42 |
| - | 1841583_2644967_LoboAzul69_sketch170175113.jpg | 412784 | 2025-07-20 19:40:42 |
| - | 1841583_2644971_LoboAzul69_sketch170175113.png | 517999 | 2025-07-20 19:40:42 |
| - | 1850255.json | 6096 | 2025-07-20 11:58:24 |
| - | 1850255_2658052_LoboAzul69_sketch29514427.png | 1006015 | 2025-07-20 11:58:24 |
| - | 1851218.json | 5817 | 2025-07-20 11:29:51 |
| - | 1851218_2659463_LoboAzul69_sketch3062502.png | 592479 | 2025-07-20 11:29:51 |
| - | 1851972.json | 7119 | 2025-07-20 11:04:38 |
| - | 1851972_2660586_LoboAzul69_sketch310214458.png | 1034140 | 2025-07-20 11:04:38 |
| - | 1852661.json | 8576 | 2025-07-20 10:38:16 |
| - | 1852661_2661640_LoboAzul69_sketch1120858.png | 797229 | 2025-07-20 10:38:16 |
| - | 1853532.json | 5854 | 2025-07-20 10:14:04 |
| - | 1853532_2662860_LoboAzul69_sketch3314941.jpg | 413755 | 2025-07-20 10:14:04 |
| - | 1854846.json | 7932 | 2025-07-20 09:35:48 |
| - | 1854846_2664820_LoboAzul69_sketch5501552.png | 662427 | 2025-07-20 09:35:48 |
| - | 1856447.json | 5922 | 2025-07-20 08:54:44 |
| - | 1856447_2667490_LoboAzul69_sketch70135446.png | 1049534 | 2025-07-20 08:54:44 |
| - | 1857278.json | 5523 | 2025-07-20 08:33:16 |
| - | 1857278_2668624_LoboAzul69_sketch70235426.png | 691191 | 2025-07-20 08:33:16 |
| - | 1858185.json | 11019 | 2025-07-20 08:03:55 |
| - | 1858185_2669971_LoboAzul69_sketch92143223.png | 829115 | 2025-07-20 08:03:55 |
| - | 1858823.json | 9943 | 2020-01-17 14:36:44 |
| - | 1858823_2670860_LoboAzul69_sketch9223182.png | 898652 | 2020-01-17 14:36:44 |
| - | 1859367.json | 5334 | 2025-07-20 07:24:58 |
| - | 1859367_2671717_LoboAzul69_sketch10317109.png | 628162 | 2025-07-20 07:24:58 |
| - | 1859729.json | 5354 | 2025-07-20 07:12:53 |
| - | 1859729_2672195_LoboAzul69_sketch114102220.png | 580038 | 2025-07-20 07:12:53 |
| - | 1860455.json | 6430 | 2025-07-20 06:49:50 |
| - | 1860455_2673234_LoboAzul69_sketch12521456.png | 1151157 | 2025-07-20 06:49:50 |
| - | 1862123.json | 5875 | 2025-07-20 06:09:23 |
| - | 1862123_2675771_LoboAzul69_sketch13622851.png | 566546 | 2025-07-20 06:09:23 |
| - | 1862313.json | 8591 | 2020-01-17 14:48:26 |
| - | 1862313_2676074_LoboAzul69_sketch125182052.png | 616777 | 2020-01-17 14:48:26 |
| - | 1862813.json | 5991 | 2025-07-20 05:52:24 |
| - | 1862813_2676802_LoboAzul69_sketch15123056.png | 732746 | 2025-07-20 05:52:24 |
| - | 1863511.json | 6343 | 2025-07-20 05:34:22 |
| - | 1863511_2677934_LoboAzul69_sketch15119743.png | 1158395 | 2025-07-20 05:34:22 |
| - | 1864342.json | 5704 | 2025-07-20 05:13:44 |
| - | 1864342_2679247_LoboAzul69_sketch162175513.png | 844659 | 2025-07-20 05:13:44 |
| - | 1864875.json | 7033 | 2025-07-20 05:00:44 |
| - | 1864875_2680074_LoboAzul69_sketch173173434.png | 886793 | 2025-07-20 05:00:44 |
| - | 1865178.json | 6577 | 2025-07-20 04:53:01 |
| - | 1865178_2680804_LoboAzul69_sketch184105315.png | 996909 | 2025-07-20 04:53:01 |
| - | 1865747.json | 6429 | 2025-07-20 04:37:42 |
| - | 1865747_2681790_LoboAzul69_sketch18415388.png | 804535 | 2025-07-20 04:37:42 |
| - | 1866470.json | 6474 | 2025-07-20 04:18:51 |
| - | 1866470_2682781_LoboAzul69_sketch195124420.png | 982116 | 2025-07-20 04:18:51 |
| - | 1867024.json | 11030 | 2025-07-20 04:04:54 |
| - | 1867024_2683606_LoboAzul69_sketch195153648.png | 1388030 | 2025-07-20 04:04:54 |
| - | 1867371.json | 6368 | 2025-07-20 03:53:34 |
| - | 1867371_2684158_LoboAzul69_sketch206171857.png | 647425 | 2025-07-20 03:53:34 |
| - | 1867887.json | 8738 | 2025-07-20 03:36:02 |
| - | 1867887_2684885_LoboAzul69_sketch2210572.png | 596659 | 2025-07-20 03:36:02 |
| - | 1867887_2684886_LoboAzul69_sketch210183246.jpg | 442633 | 2025-07-20 03:36:03 |
| - | 1871698.json | 5727 | 2025-07-20 01:56:05 |
| - | 1871698_2690874_LoboAzul69_sketch2760436.png | 432004 | 2025-07-20 01:56:05 |
| - | 1872438.json | 5874 | 2025-07-20 01:37:18 |
| - | 1872438_2691905_LoboAzul69_sketch276134735.png | 1206269 | 2025-07-20 01:37:18 |
| - | 1873226.json | 6089 | 2025-07-20 01:17:29 |
| - | 1873226_2693125_LoboAzul69_sketch280132348.png | 596535 | 2025-07-20 01:17:29 |
| - | 1873905.json | 6104 | 2025-07-20 00:58:39 |
| - | 1873905_2694110_LoboAzul69_sketch2912441.png | 1124537 | 2025-07-20 00:58:39 |
| - | 1875497.json | 5730 | 2025-07-20 00:09:29 |
| - | 1875497_2696416_LoboAzul69_sketch2413450.png | 626163 | 2025-07-20 00:09:29 |
| - | 1876900.json | 6662 | 2025-07-19 23:24:45 |
| - | 1876900_2698501_LoboAzul69_sketch4601842.jpg | 533162 | 2025-07-19 23:24:45 |
| - | 1878396.json | 6013 | 2025-07-19 22:31:41 |
| - | 1878396_2700597_LoboAzul69_sketch50174746.jpg | 503054 | 2025-07-19 22:31:41 |
| - | 1879829.json | 9036 | 2025-07-19 21:30:30 |
| - | 1879829_2702510_LoboAzul69_sketch83113845.png | 1204000 | 2025-07-19 21:30:30 |
| - | 1879829_2702512_LoboAzul69_sketch72133910.jpg | 556655 | 2025-07-19 21:30:30 |
| - | 1880954.json | 6060 | 2025-07-19 20:31:12 |
| - | 1880954_2704115_LoboAzul69_sketch94115831.png | 543065 | 2025-07-19 20:31:12 |
| - | 1881136.json | 6112 | 2025-07-19 20:25:15 |
| - | 1881136_2704352_LoboAzul69_sketch9418914.png | 838729 | 2025-07-19 20:25:15 |
| - | 1881949.json | 6008 | 2025-07-19 19:53:27 |
| - | 1881949_2705603_LoboAzul69_sketch105163541.jpg | 620523 | 2025-07-19 19:53:27 |
| - | 1884048.json | 6107 | 2025-07-19 17:35:45 |
| - | 1884048_2708852_LoboAzul69_lobo_undewear.png | 727155 | 2025-07-19 17:35:45 |
| - | 1885613.json | 6105 | 2025-07-19 16:27:37 |
| - | 1885613_2711198_LoboAzul69_sketch15302738.png | 1113564 | 2025-07-19 16:27:37 |
| - | 1886333.json | 5876 | 2025-07-19 16:09:39 |
| - | 1886333_2712418_LoboAzul69_sketch17511350.png | 1395432 | 2025-07-19 16:09:39 |
| - | 1887885.json | 7334 | 2025-07-19 15:28:27 |
| - | 1887885_2714830_LoboAzul69_sketch1862824.png | 805700 | 2025-07-19 15:28:27 |
| - | 1888409.json | 6156 | 2025-07-19 15:13:11 |
| - | 1888409_2715698_LoboAzul69_gaycinemawolves.png | 997757 | 2025-07-19 15:13:11 |
| - | 1893291.json | 9367 | 2025-07-19 13:04:29 |
| - | 1893291_2723100_LoboAzul69_wolfieundewear.png | 625481 | 2025-07-19 13:04:29 |
| - | 1893292.json | 9794 | 2025-07-19 13:04:28 |
| - | 1893292_2723101_LoboAzul69_2722098_alessio626_rubbing_cocks_together_flaccid_sketch_14_colored.jpg | 1496459 | 2025-07-19 13:04:28 |
| - | 1901575.json | 6086 | 2025-07-19 10:16:56 |
| - | 1901575_2736024_LoboAzul69_sketch64122323.png | 727354 | 2025-07-19 10:16:56 |
| - | 1902976.json | 6216 | 2025-07-19 09:49:03 |
| - | 1902976_2738176_LoboAzul69_sketch86121946.png | 1045280 | 2025-07-19 09:49:03 |
| - | 1904442.json | 5598 | 2025-07-19 09:23:22 |
| - | 1904442_2740392_LoboAzul69_sketch10123210.png | 832167 | 2025-07-19 09:23:22 |
| - | 1905061.json | 6142 | 2025-07-19 09:13:23 |
| - | 1905061_2741340_LoboAzul69_sketch112123059.png | 858059 | 2025-07-19 09:13:23 |
| - | 1905704.json | 6380 | 2025-07-19 09:01:43 |
| - | 1905704_2742244_LoboAzul69_sketch1341129.png | 827587 | 2025-07-19 09:01:43 |
| - | 1906529.json | 5739 | 2025-07-19 08:50:24 |
| - | 1906529_2743455_LoboAzul69_sketch134234531.png | 1035461 | 2025-07-19 08:50:24 |
| - | 1908470.json | 11270 | 2025-07-19 08:16:37 |
| - | 1908470_2746514_LoboAzul69_sketch160114947.png | 550950 | 2025-07-19 08:16:36 |
| - | 1908470_2746515_LoboAzul69_sketch160173655.png | 498544 | 2025-07-19 08:16:37 |
| - | 1908470_2746517_LoboAzul69_sketch160233511.png | 558970 | 2025-07-19 08:16:37 |
| - | 1909155.json | 6261 | 2025-07-19 08:05:40 |
| - | 1909155_2747633_LoboAzul69_sketch1712499.png | 753706 | 2025-07-19 08:05:40 |
| - | 1910577.json | 6803 | 2025-07-19 07:44:22 |
| - | 1910577_2749792_LoboAzul69_sketch182234353.png | 905970 | 2025-07-19 07:44:22 |
| - | 1911210.json | 6800 | 2025-07-19 07:33:11 |
| - | 1911210_2751464_LoboAzul69_sketch20412722.jpg | 575622 | 2025-07-19 07:33:11 |
| - | 1912470.json | 5744 | 2025-07-19 07:12:20 |
| - | 1912470_2752978_LoboAzul69_sketch215123738.png | 860938 | 2025-07-19 07:12:20 |
| - | 1913219.json | 9085 | 2025-07-19 07:00:12 |
| - | 1913219_2754268_LoboAzul69_sketch215123953.png | 1232083 | 2025-07-19 07:00:12 |
| - | 1913219_2754480_LoboAzul69_sketch215123953.jpg | 589207 | 2025-07-19 07:00:12 |
| - | 1914029.json | 8839 | 2025-07-19 06:46:25 |
| - | 1914029_2755480_LoboAzul69_sketch230113555.png | 745257 | 2025-07-19 06:46:25 |
| - | 1914029_2755705_LoboAzul69__20190624_150728.jpg | 195896 | 2025-07-19 06:46:25 |
| - | 1914819.json | 6425 | 2025-07-19 06:33:32 |
| - | 1914819_2756697_LoboAzul69_sketch24111858.jpg | 698607 | 2025-07-19 06:33:32 |
| - | 1915505.json | 6000 | 2025-07-19 06:22:18 |
| - | 1915505_2757686_LoboAzul69_sketch25216125.png | 969178 | 2025-07-19 06:22:18 |
| - | 1916168.json | 5852 | 2025-07-19 06:10:46 |
| - | 1916168_2758633_LoboAzul69_sketch26312161.png | 728304 | 2025-07-19 06:10:46 |
| - | 1918406.json | 5838 | 2025-07-19 05:28:46 |
| - | 1918406_2762309_LoboAzul69_sketch2961214.png | 922736 | 2025-07-19 05:28:46 |
| - | 1920603.json | 5986 | 2025-07-19 04:54:26 |
| - | 1920603_2765465_LoboTheBird_sketch11171514.png | 888189 | 2025-07-19 04:54:26 |
| - | 1920978.json | 5722 | 2025-07-19 04:47:12 |
| - | 1920978_2766027_LoboTheBird_sketch3316225.png | 566533 | 2025-07-19 04:47:12 |
| - | 1921623.json | 7727 | 2025-07-19 04:35:13 |
| - | 1921623_2766865_LoboTheBird_sketch4405837.jpg | 627335 | 2025-07-19 04:35:13 |
| - | 1925220.json | 5714 | 2025-07-19 03:38:44 |
| - | 1925220_2772129_LoboTheBird_sketch70222631.png | 1533392 | 2025-07-19 03:38:44 |
| - | 1926043.json | 5724 | 2025-07-19 03:25:38 |
| - | 1926043_2773314_LoboTheBird_sketch81222535.png | 663016 | 2025-07-19 03:25:38 |
| - | 1926770.json | 8760 | 2025-07-19 03:12:53 |
| - | 1926770_2774391_LoboTheBird_sketch10321041.png | 940876 | 2025-07-19 03:12:53 |
| - | 1927599.json | 5733 | 2025-07-19 02:59:05 |
| - | 1927599_2775586_LoboTheBird_sketch114195535.png | 993755 | 2025-07-19 02:59:05 |
| - | 1928154.json | 5736 | 2025-07-19 02:49:37 |
| - | 1928154_2776482_LoboTheBird_sketch114212019.png | 701972 | 2025-07-19 02:49:37 |
| - | 1929338.json | 5984 | 2025-07-19 02:31:32 |
| - | 1929338_2778167_LoboTheBird_unbuentraseo.jpg | 623491 | 2025-07-19 02:31:32 |
| - | 1935248.json | 5171 | 2025-07-19 00:54:59 |
| - | 1935248_2787368_LoboTheBird_colors_lobo_fur.png | 707016 | 2025-07-19 00:54:59 |
| - | 1936221.json | 5897 | 2025-07-19 00:40:02 |
| - | 1936221_2788832_LoboTheBird_sketch232223048.png | 342963 | 2025-07-19 00:40:02 |
| - | 1936848.json | 5473 | 2025-07-19 00:28:53 |
| - | 1936848_2789746_LoboTheBird_sketch24304449.png | 411232 | 2025-07-19 00:28:53 |
| - | 1937619.json | 7024 | 2025-07-19 00:16:11 |
| - | 1937619_2790869_LoboTheBird_sketch254211211.png | 986739 | 2025-07-19 00:16:11 |
| - | 1938100.json | 5166 | 2025-07-19 00:07:54 |
| - | 1938100_2791599_LoboTheBird_sketch265131931.png | 886684 | 2025-07-19 00:07:54 |
| - | 1941602.json | 6035 | 2025-07-18 23:03:02 |
| - | 1941602_2797070_LoboTheBird_sketch27612318.png | 391598 | 2025-07-18 23:03:02 |
| - | 1942086.json | 4853 | 2025-07-18 22:53:06 |
| - | 1942086_2797743_LoboTheBird_sketch14104.png | 313891 | 2025-07-18 22:53:06 |
| - | 1942328.json | 6828 | 2025-07-18 22:48:56 |
| - | 1942328_2798131_LoboTheBird_sketch313183823.png | 734958 | 2025-07-18 22:48:56 |
| - | 1943127.json | 6551 | 2025-07-18 22:35:03 |
| - | 1943127_2799381_LoboTheBird_sketch14235423.png | 823361 | 2025-07-18 22:35:03 |
| - | 1944109.json | 7483 | 2025-07-18 22:17:10 |
| - | 1944109_2800875_LoboTheBird_sketch14125818.jpg | 515440 | 2025-07-18 22:17:10 |
| - | 1944714.json | 6237 | 2025-07-18 22:05:45 |
| - | 1944714_2801919_LoboTheBird_sketch25122652.jpg | 252834 | 2025-07-18 22:05:45 |
| - | 1945741.json | 8506 | 2025-07-18 21:46:08 |
| - | 1945741_2803549_LoboTheBird_sketch5101616.png | 767416 | 2025-07-18 21:46:08 |
| - | 1945741_2803568_LoboTheBird_sketch5101616.png | 767393 | 2025-07-18 21:46:08 |
| - | 1946551.json | 6777 | 2025-07-18 21:29:56 |
| - | 1946551_2804736_LoboTheBird_sketch6218200.jpg | 495821 | 2025-07-18 21:29:56 |
| - | 1947972.json | 6546 | 2025-07-18 21:00:41 |
| - | 1947972_2806909_LoboTheBird_sketch84112523.png | 815559 | 2025-07-18 21:00:41 |
| - | 1948123.json | 7426 | 2025-07-18 20:57:40 |
| - | 1948123_2807142_LoboTheBird_sketch51161148.jpg | 645961 | 2025-07-18 20:57:40 |
| - | 1948595.json | 6010 | 2025-07-18 20:48:52 |
| - | 1948595_2807889_LoboTheBird_sketch9502915.png | 955909 | 2025-07-18 20:48:52 |
| - | 1949609.json | 6274 | 2025-07-18 20:28:05 |
| - | 1949609_2809652_LoboTheBird_sketch95231922.png | 619007 | 2025-07-18 20:28:05 |
| - | 1950344.json | 5809 | 2025-07-18 20:13:32 |
| - | 1950344_2810737_LoboTheBird_sketch106154332.jpg | 460209 | 2025-07-18 20:13:32 |
| - | 1950456.json | 7420 | 2025-07-18 20:11:58 |
| - | 1950456_2810885_LoboTheBird_regalo_para_novio.png | 1106546 | 2025-07-18 20:11:58 |
| - | 1954664.json | 7882 | 2025-07-18 18:56:50 |
| - | 1954664_2817855_LoboTheBird_sketch165212130.png | 658115 | 2025-07-18 18:56:50 |
| - | 1955337.json | 6407 | 2025-07-18 18:46:01 |
| - | 1955337_2818838_LoboTheBird_sketch1800246.png | 553701 | 2025-07-18 18:46:01 |
| - | 1956035.json | 6162 | 2025-07-18 18:33:44 |
| - | 1956035_2819879_LoboTheBird_sketch176234328.jpg | 521027 | 2025-07-18 18:33:44 |
| - | 1956885.json | 5487 | 2025-07-18 18:18:43 |
| - | 1956885_2821125_LoboTheBird_loboysnowamigaves.png | 503092 | 2025-07-18 18:18:43 |
| - | 1963426.json | 6577 | 2025-07-18 16:11:03 |
| - | 1963426_2831464_LoboTheBird_sketch19133242.png | 1063506 | 2025-07-18 16:11:03 |
| - | 1964104.json | 5994 | 2025-07-18 15:57:01 |
| - | 1964104_2832477_LoboTheBird_sketch3051291.png | 1121006 | 2025-07-18 15:57:01 |
| - | 1964878.json | 6418 | 2025-07-18 15:40:31 |
| - | 1964878_2833653_LoboTheBird_sketch30518847.png | 904834 | 2025-07-18 15:40:31 |
| - | 1965650.json | 6575 | 2025-07-18 15:27:43 |
| - | 1965650_2834686_LoboTheBird_sketch10121214.png | 735528 | 2025-07-18 15:27:43 |
| - | 1966380.json | 5860 | 2025-07-18 15:16:11 |
| - | 1966380_2835866_LoboTheBird_sketch212524.png | 866384 | 2025-07-18 15:16:11 |
| - | 1967085.json | 6036 | 2025-07-18 15:05:12 |
| - | 1967085_2836792_LoboTheBird_sketch32131037.png | 1032081 | 2025-07-18 15:05:12 |
| - | 1967679.json | 5861 | 2025-07-18 14:55:04 |
| - | 1967679_2837680_LoboTheBird_sketch430414.png | 595972 | 2025-07-18 14:55:04 |
| - | 1968357.json | 8757 | 2025-07-18 14:42:34 |
| - | 1968357_2838647_LoboTheBird_sketch4319544.jpg | 562114 | 2025-07-18 14:42:34 |
| - | 1968972.json | 9624 | 2025-07-18 14:29:46 |
| - | 1968972_2839634_LoboTheBird_sketch65231229.png | 595968 | 2025-07-18 14:29:46 |
| - | 1968972_2839636_LoboTheBird_sketch7615011.png | 558883 | 2025-07-18 14:29:46 |
| - | 1969570.json | 6296 | 2025-07-18 14:18:04 |
| - | 1969570_2840619_LoboTheBird_sketch76124131.png | 875779 | 2025-07-18 14:18:04 |
| - | 1970361.json | 7383 | 2025-07-18 14:03:52 |
| - | 1970361_2841865_LoboTheBird_sketch76195718.png | 740123 | 2025-07-18 14:03:52 |
| - | 1971056.json | 6420 | 2025-07-18 13:49:56 |
| - | 1971056_2842836_LoboTheBird_sketch76235610.png | 826524 | 2025-07-18 13:49:56 |
| - | 1971607.json | 6274 | 2025-07-18 13:41:56 |
| - | 1971607_2843645_LoboTheBird_sketch80141715.png | 1483587 | 2025-07-18 13:41:56 |
| - | 1972284.json | 7354 | 2025-07-18 13:31:01 |
| - | 1972284_2844603_LoboTheBird_sketch10216415.png | 703262 | 2025-07-18 13:31:01 |
| - | 1972865.json | 6843 | 2025-07-18 13:22:16 |
| - | 1972865_2845437_LoboTheBird_sketch12414254.png | 950527 | 2025-07-18 13:22:16 |
| - | 1973645.json | 6288 | 2025-07-18 13:08:07 |
| - | 1973645_2846648_LoboTheBird_sketch13523020.png | 755548 | 2025-07-18 13:08:07 |
| - | 1974244.json | 6439 | 2025-07-18 12:56:42 |
| - | 1974244_2847644_LoboTheBird_sketch146233714.png | 705489 | 2025-07-18 12:56:42 |
| - | 1974247.json | 5577 | 2025-07-18 12:56:40 |
| - | 1974247_2847648_LoboTheBird_sketch146181328.png | 1086650 | 2025-07-18 12:56:40 |
| - | 1974965.json | 7712 | 2025-07-18 12:44:24 |
| - | 1974965_2849031_LoboTheBird_sketch1502447.png | 1048243 | 2025-07-18 12:44:24 |
| - | 1975564.json | 9923 | 2025-07-18 12:35:31 |
| - | 1975564_2849900_LoboTheBird_sketch16116259.png | 823696 | 2025-07-18 12:35:31 |
| - | 1975684.json | 7109 | 2025-07-18 12:33:29 |
| - | 1975684_2850091_LoboTheBird_sketch16125738.png | 773880 | 2025-07-18 12:33:29 |
| - | 1976327.json | 11868 | 2025-07-18 12:23:15 |
| - | 1976327_2850953_LoboTheBird_sketch18395910.png | 1046785 | 2025-07-18 12:23:15 |
| - | 1976327_2850955_LoboTheBird_sketch16122345.png | 1072441 | 2025-07-18 12:23:15 |
| - | 1976336.json | 7185 | 2025-07-18 12:23:07 |
| - | 1976336_2850964_LoboTheBird_sketch172114553.png | 527215 | 2025-07-18 12:23:07 |
| - | 1977118.json | 6049 | 2025-07-18 12:11:05 |
| - | 1977118_2852009_LoboTheBird_cumshoot.png | 652332 | 2025-07-18 12:11:05 |
| - | 1977774.json | 9802 | 2025-07-18 11:58:47 |
| - | 1977774_2852926_LoboTheBird_juegosexuales_.png | 1038640 | 2025-07-18 11:58:47 |
| - | 1977774_2852932_LoboTheBird_juegossexuales_sin_dialogo.png | 1095084 | 2025-07-18 11:58:47 |
| - | 1983338.json | 6520 | 2025-07-18 10:18:22 |
| - | 1983338_2861643_LoboTheBird_sketch27520228.png | 1370127 | 2025-07-18 10:18:22 |
| - | 1984054.json | 5843 | 2025-07-18 10:06:54 |
| - | 1984054_2862821_LoboTheBird_sketch286114930.png | 357796 | 2025-07-18 10:06:54 |
| - | 1984819.json | 5847 | 2025-07-18 09:50:52 |
| - | 1984819_2863898_LoboTheBird_sketch29002216.png | 960819 | 2025-07-18 09:50:52 |
| - | 1985561.json | 6760 | 2025-07-18 09:34:26 |
| - | 1985561_2865104_LoboTheBird_sketch290143934.png | 570216 | 2025-07-18 09:34:26 |
| - | 1986335.json | 6599 | 2025-07-18 09:17:13 |
| - | 1986335_2866267_LoboTheBird_sketch301193741.png | 786496 | 2025-07-18 09:17:13 |
| - | 1987160.json | 5880 | 2025-07-18 09:02:28 |
| - | 1987160_2867483_LoboTheBird_sketch29022592.png | 1052651 | 2025-07-18 09:02:28 |
| - | 1987978.json | 6740 | 2025-07-18 08:48:46 |
| - | 1987978_2868825_LoboTheBird_sketch12141247.jpg | 498240 | 2025-07-18 08:48:46 |
| - | 1988679.json | 10492 | 2025-07-18 08:35:40 |
| - | 1988679_2869957_LoboTheBird_sketch561040.png | 745900 | 2025-07-18 08:35:40 |
| - | 1989469.json | 6463 | 2025-07-18 08:23:12 |
| - | 1989469_2871162_LoboTheBird_sketch3412748.png | 839404 | 2025-07-18 08:23:12 |
| - | 1989798.json | 11063 | 2025-07-18 08:18:07 |
| - | 1989798_2871634_LoboTheBird_sketch60143759.png | 436938 | 2025-07-18 08:18:07 |
| - | 1990253.json | 5699 | 2025-07-18 08:10:51 |
| - | 1990253_2872324_LoboTheBird_sketch45205932.png | 870336 | 2025-07-18 08:10:51 |
| - | 1991124.json | 9283 | 2025-07-18 07:55:04 |
| - | 1991124_2873489_LoboTheBird_sketch56231359.png | 700892 | 2025-07-18 07:55:04 |
| - | 1991875.json | 7601 | 2025-07-18 07:43:00 |
| - | 1991875_2874618_LoboTheBird_sketch6021727.png | 783347 | 2025-07-18 07:43:00 |
| - | 1992571.json | 6922 | 2025-07-18 07:31:41 |
| - | 1992571_2875739_LoboTheBird_sketch7115012.png | 884687 | 2025-07-18 07:31:41 |
| - | 1993257.json | 13270 | 2025-07-18 07:20:31 |
| - | 1993257_2876776_LoboTheBird_2873373_alessio626_azul_sucking_wolfie_2019_sketch_18_colored.jpg | 645038 | 2025-07-18 07:20:31 |
| - | 1993257_2876777_LoboTheBird_2873375_alessio626_azul_sucking_wolfie_2019_sketch_18_colored_2.jpg | 717233 | 2025-07-18 07:20:32 |
| - | 1993272.json | 7079 | 2025-07-18 07:20:20 |
| - | 1993272_2876794_LoboTheBird_sketch9313549.png | 723303 | 2025-07-18 07:20:20 |
| - | 1994012.json | 5884 | 2025-07-18 07:08:42 |
| - | 1994012_2877951_LoboTheBird_sketch10401121.png | 1091240 | 2025-07-18 07:08:42 |
| - | 1994063.json | 7832 | 2020-01-12 05:59:04 |
| - | 1994063_2878020_LoboTheBird_sketch1263035.png | 510892 | 2020-01-12 05:59:05 |
| - | 1994763.json | 10118 | 2025-07-18 06:55:48 |
| - | 1994763_2879096_LoboTheBird_sketch126132629.png | 430067 | 2025-07-18 06:55:48 |
| - | 1994767.json | 6353 | 2025-07-18 06:55:39 |
| - | 1994767_2879100_LoboTheBird_sketch104233640.png | 566811 | 2025-07-18 06:55:39 |
| - | 1995470.json | 6522 | 2025-07-18 06:41:50 |
| - | 1995470_2880281_LoboTheBird_sketch126104756.png | 550270 | 2025-07-18 06:41:50 |
| - | 1996673.json | 7604 | 2019-10-16 05:29:59 |
| - | 1996673_2881984_LoboTheBird_sketch14123302.png | 521593 | 2019-10-16 05:29:59 |
| - | 1996857.json | 6624 | 2025-07-18 06:19:53 |
| - | 1996857_2882221_LoboTheBird_sketch130231440.png | 1134468 | 2025-07-18 06:19:53 |
| - | 1997699.json | 11944 | 2020-01-12 06:33:21 |
| - | 1997699_2883401_LoboTheBird_sketch17412937.png | 790335 | 2020-01-12 06:33:21 |
| - | 1997699_2883404_LoboTheBird_sketch152191353.png | 670725 | 2020-01-12 06:33:21 |
| - | 2000631.json | 6475 | 2025-07-18 05:16:23 |
| - | 2000631_2887677_LoboTheBird_luchalibre.png | 578407 | 2025-07-18 05:16:23 |
| - | 2004130.json | 9781 | 2025-07-18 04:18:52 |
| - | 2004130_2892766_LoboTheBird_sketch255162149.png | 571895 | 2025-07-18 04:18:52 |
| - | 2004132.json | 11971 | 2025-07-18 04:18:51 |
| - | 2004132_2892768_LoboTheBird_2887481_alessio626_pissing_on_friend_ate_night_in_alley_with_jacket_sketch_18_colored.jpg | 1087359 | 2025-07-18 04:18:51 |
| - | 2005265.json | 8796 | 2019-10-27 15:48:12 |
| - | 2005265_2894328_LoboTheBird_sketch266155210.png | 722651 | 2019-10-27 15:48:13 |
| - | 2005349.json | 6012 | 2025-07-18 03:58:07 |
| - | 2005349_2894534_LoboTheBird_sketch266232749.png | 303286 | 2025-07-18 03:58:07 |
| - | 2006003.json | 6147 | 2025-07-18 03:46:25 |
| - | 2006003_2895502_LoboTheBird_sketch27012536.png | 510594 | 2025-07-18 03:46:25 |
| - | 2006908.json | 6275 | 2025-07-18 03:29:51 |
| - | 2006908_2896832_LoboTheBird_sketch28111313.png | 477194 | 2025-07-18 03:29:51 |
| - | 2007620.json | 6265 | 2025-07-18 03:17:23 |
| - | 2007620_2897935_LoboTheBird_sketch270235745.png | 375075 | 2025-07-18 03:17:23 |
| - | 2008554.json | 6296 | 2025-07-18 03:00:25 |
| - | 2008554_2899363_LoboTheBird_sketch292141826.png | 513630 | 2025-07-18 03:00:25 |
| - | 2009434.json | 6340 | 2025-07-18 02:44:13 |
| - | 2009434_2900728_LoboTheBird_sketch30305352.png | 504271 | 2025-07-18 02:44:13 |
| - | 2010273.json | 5828 | 2025-07-18 02:30:41 |
| - | 2010273_2901979_LoboTheBird_sketch15202218.png | 917498 | 2025-07-18 02:30:41 |
| - | 2010954.json | 6518 | 2025-07-18 02:20:18 |
| - | 2010954_2902944_LoboTheBird_sketch302223.png | 576176 | 2025-07-18 02:20:18 |
| - | 2012391.json | 5848 | 2025-07-18 01:57:00 |
| - | 2012391_2905133_LoboTheBird_sketch30105435.png | 412728 | 2025-07-18 01:57:00 |
| - | 2013922.json | 6121 | 2025-07-18 01:32:43 |
| - | 2013922_2907617_LoboTheBird_sketch4173249.png | 930055 | 2025-07-18 01:32:43 |
| - | 2014603.json | 6646 | 2025-07-18 01:22:39 |
| - | 2014603_2908744_LoboTheBird_sketch6371450.png | 548500 | 2025-07-18 01:22:39 |
| - | 2016115.json | 5714 | 2025-07-18 00:59:51 |
| - | 2016115_2911091_LoboTheBird_sketch9695139.png | 880680 | 2025-07-18 00:59:51 |
| - | 2016755.json | 5617 | 2025-07-18 00:50:20 |
| - | 2016755_2912046_LoboTheBird_sketch96203314.png | 672946 | 2025-07-18 00:50:20 |
| - | 2020253.json | 6439 | 2025-07-17 23:58:11 |
| - | 2020253_2917376_LoboTheBird_sketch111202347.png | 873516 | 2025-07-17 23:58:11 |
| - | 2023434.json | 5856 | 2025-07-17 23:04:42 |
| - | 2023434_2922385_LoboTheBird_sketch166212623.png | 496127 | 2025-07-17 23:04:42 |
| - | 2024171.json | 9178 | 2025-07-17 22:51:20 |
| - | 2024171_2923571_LoboTheBird_sketch192193935.png | 280079 | 2025-07-17 22:51:20 |
| - | 2024171_2923572_LoboTheBird_sketch2036390.png | 268213 | 2025-07-17 22:51:21 |
| - | 2024173.json | 5177 | 2025-07-17 22:51:17 |
| - | 2024173_2923577_LoboTheBird_sketch192113150.png | 264188 | 2025-07-17 22:51:17 |
| - | 2025441.json | 6046 | 2025-07-17 22:21:45 |
| - | 2025441_2925528_LoboTheBird_sketch192195921.png | 901086 | 2025-07-17 22:21:45 |
| - | 2027116.json | 8852 | 2025-07-17 21:49:36 |
| - | 2027116_2928146_LoboTheBird_sketch236194314.png | 423685 | 2025-07-17 21:49:36 |
| - | 2027885.json | 8797 | 2025-07-17 21:35:14 |
| - | 2027885_2929282_LoboTheBird_sketch240201544.png | 543497 | 2025-07-17 21:35:14 |
| - | 2028565.json | 9396 | 2025-07-17 21:22:50 |
| - | 2028565_2930307_LoboTheBird_sketch251193724.png | 1054797 | 2025-07-17 21:22:50 |
| - | 2033846.json | 7107 | 2025-07-17 19:37:16 |
| - | 2033846_2938587_LoboTheBird_sketch28422425.png | 1116715 | 2025-07-17 19:37:16 |
| - | 2035501.json | 7038 | 2025-07-17 19:08:04 |
| - | 2035501_2941100_LoboTheBird_sketch30620328.png | 739142 | 2025-07-17 19:08:04 |
| - | 2039469.json | 6993 | 2025-07-17 18:01:52 |
| - | 2039469_2947419_LoboTheBird_sketch76214135.jpg | 606431 | 2025-07-17 18:01:52 |
| - | 2044458.json | 7229 | 2025-07-17 16:40:55 |
| - | 2044458_2954943_LoboTheBird_sketch183132023.png | 1325473 | 2025-07-17 16:40:55 |
| - | 2048034.json | 6247 | 2025-07-17 15:43:04 |
| - | 2048034_2960277_LoboTheBird_sketch2311495.png | 490858 | 2025-07-17 15:43:04 |
| - | 2050282.json | 12699 | 2025-07-17 15:03:43 |
| - | 2050282_2963683_LoboTheBird_sketch253114523.png | 461370 | 2025-07-17 15:03:42 |
| - | 2050282_2963708_LoboTheBird_sketch275113521.png | 464121 | 2025-07-17 15:03:43 |
| - | 2050282_2963731_LoboTheBird_sketch275113521.png | 470677 | 2025-07-17 15:03:43 |
| - | 2052281.json | 5739 | 2025-07-17 14:28:23 |
| - | 2052281_2966625_LoboTheBird_sketch28665945.png | 716965 | 2025-07-17 14:28:23 |
| - | 2055704.json | 5800 | 2025-07-17 13:33:27 |
| - | 2055704_2971623_LoboTheBird_sketch312235418.png | 303966 | 2025-07-17 13:33:27 |
| - | 2063688.json | 6280 | 2025-07-17 10:52:16 |
| - | 2063688_2983950_LoboTheBird_sketch120132556.png | 728724 | 2025-07-17 10:52:16 |
| - | 2064410.json | 6697 | 2025-07-17 10:38:29 |
| - | 2064410_2985104_LoboTheBird_sketch13124953.png | 1241752 | 2025-07-17 10:38:29 |
| - | 2065311.json | 6025 | 2025-07-17 10:22:54 |
| - | 2065311_2986453_LoboTheBird_sketch142145020.png | 1195677 | 2025-07-17 10:22:54 |
| - | 2067149.json | 5981 | 2025-07-17 09:48:32 |
| - | 2067149_2989472_LoboTheBird_sketch15317058.png | 495443 | 2025-07-17 09:48:32 |
| - | 2067952.json | 6295 | 2025-07-17 09:35:08 |
| - | 2067952_2990647_LoboTheBird_sketch153193653.png | 921196 | 2025-07-17 09:35:08 |
| - | 2071817.json | 6541 | 2025-07-17 08:38:18 |
| - | 2071817_2996204_LoboTheBird_sketch19072335.png | 585696 | 2025-07-17 08:38:18 |
| - | 2073152.json | 6288 | 2025-07-17 08:19:48 |
| - | 2073152_2998322_LoboTheBird_sketch223221458.png | 610918 | 2025-07-17 08:19:48 |
| - | 2075851.json | 17787 | 2025-07-17 12:53:23 |
| - | 2075851_3002649_LoboTheBird_sketch260113522.png | 1284226 | 2025-07-17 12:53:23 |
| - | 2075851_3002654_LoboTheBird_sketch29316438.png | 1277232 | 2025-07-17 12:53:23 |
| - | 2076345.json | 4922 | 2025-07-17 07:36:33 |
| - | 2076345_3003412_LoboTheBird_sketch11621331.png | 268655 | 2025-07-17 07:36:33 |
| - | 2077159.json | 8564 | 2025-07-17 07:24:44 |
| - | 2077159_3004696_LoboTheBird_sketch611143.png | 741354 | 2025-07-17 07:24:44 |
| - | 2077159_3004697_LoboTheBird__20200131_082739.jpg | 240626 | 2025-07-17 07:24:44 |
| - | 2077962.json | 9760 | 2025-07-17 07:13:02 |
| - | 2077962_3006037_LoboTheBird_3002163_alessio626_art_trade_with_sketch_16_colored_6.jpg | 708967 | 2025-07-17 07:13:02 |
| - | 2126132.json | 8992 | 2025-07-16 17:08:41 |
| - | 2126132_3079161_LoboTheBird_sketch50214430.png | 549896 | 2025-07-16 17:08:41 |
| - | 2126132_3079188_LoboTheBird_sketch50214430.png | 562359 | 2025-07-16 17:08:41 |
| - | 2126882.json | 5899 | 2025-07-16 16:55:48 |
| - | 2126882_3081029_AngryBird69_sketch61111823.png | 482202 | 2025-07-16 16:55:48 |
| - | 2128808.json | 6317 | 2025-07-16 16:26:43 |
| - | 2128808_3084228_AngryBird69_sketch72235334.png | 511602 | 2025-07-16 16:26:43 |
| - | 2129535.json | 6083 | 2025-07-16 16:15:11 |
| - | 2129535_3085230_AngryBird69_sketch94161257.png | 547528 | 2025-07-16 16:15:11 |
| - | 2130428.json | 6190 | 2025-07-16 16:01:12 |
| - | 2130428_3086742_AngryBird69_sketch116112311.png | 742217 | 2025-07-16 16:01:12 |
| - | 2132332.json | 6575 | 2025-07-16 15:26:14 |
| - | 2132332_3089594_AngryBird69_sketch12082756.png | 628288 | 2025-07-16 15:26:14 |
| - | 2133138.json | 6314 | 2025-07-16 15:11:03 |
| - | 2133138_3090753_AngryBird69_sketch156233020.png | 666851 | 2025-07-16 15:11:03 |
| - | 2134001.json | 9657 | 2025-07-16 14:51:54 |
| - | 2134001_3091959_AngryBird69_sketch153103730.png | 986373 | 2025-07-16 14:51:54 |
| - | 2134001_3091960_AngryBird69_sketch142131357.png | 998895 | 2025-07-16 14:51:54 |
| - | 2137948.json | 6915 | 2025-07-16 13:38:53 |
| - | 2137948_3098081_AngryBird69_sketch2010624.png | 1452056 | 2025-07-16 13:38:53 |
| - | 2138100.json | 5434 | 2025-07-16 13:36:29 |
| - | 2138100_3098306_AngryBird69_sketch264112339.png | 1060739 | 2025-07-16 13:36:29 |
| - | 2138912.json | 5752 | 2025-07-16 13:25:13 |
| - | 2138912_3099514_AngryBird69_sketch13111259.png | 261454 | 2025-07-16 13:25:13 |
| - | 2139868.json | 8175 | 2025-07-16 13:11:02 |
| - | 2139868_3100996_AngryBird69_sketch286104820.png | 960230 | 2025-07-16 13:11:02 |
| - | 2141217.json | 5312 | 2025-07-16 12:51:35 |
| - | 2141217_3103043_AngryBird69_sketch24214518.png | 984073 | 2025-07-16 12:51:35 |
| - | 2141355.json | 5872 | 2025-07-16 12:49:34 |
| - | 2141355_3103288_AngryBird69_sketch223154829.png | 648866 | 2025-07-16 12:49:34 |
| - | 2143805.json | 6143 | 2025-07-16 12:13:29 |
| - | 2143805_3107105_AngryBird69_sketch24561943.png | 1019166 | 2025-07-16 12:13:29 |
| - | 2146288.json | 6529 | 2025-07-16 11:33:02 |
| - | 2146288_3111310_AngryBird69_sketch28261049.jpg | 536751 | 2025-07-16 11:33:02 |
| - | 2148187.json | 6309 | 2025-07-16 11:00:24 |
| - | 2148187_3114257_AngryBird69_sketch32215657.png | 617349 | 2025-07-16 11:00:24 |
| - | 2149024.json | 6264 | 2025-07-16 10:44:59 |
| - | 2149024_3115502_AngryBird69_sketch9112136.png | 503478 | 2025-07-16 10:44:59 |
| - | 2149895.json | 7459 | 2025-07-16 10:29:22 |
| - | 2149895_3117011_AngryBird69_sketch30113819.png | 1204174 | 2025-07-16 10:29:22 |
| - | 2152423.json | 5976 | 2025-07-16 09:43:47 |
| - | 2152423_3120796_LoboTheBird_sketch5210048.png | 894968 | 2025-07-16 09:43:47 |
| - | 2153083.json | 6426 | 2025-07-16 09:32:27 |
| - | 2153083_3121754_LoboTheBird_sketch124122955.jpg | 627638 | 2025-07-16 09:32:27 |
| - | 2157538.json | 6498 | 2025-07-16 08:21:45 |
| - | 2157538_3128371_LoboTheBird_sketch1006183.png | 535243 | 2025-07-16 08:21:45 |
| - | 2160135.json | 6680 | 2025-07-16 07:31:57 |
| - | 2160135_3133714_LoboTheBird_sketch14424829.png | 1268681 | 2025-07-16 07:31:57 |
| - | 2164938.json | 5907 | 2025-07-16 06:14:16 |
| - | 2164938_3140344_LoboTheBird_sketch225111058.png | 401363 | 2025-07-16 06:14:16 |
| - | 2165716.json | 7886 | 2025-07-16 06:01:44 |
| - | 2165716_3141666_LoboTheBird_sketch23693520.png | 661849 | 2025-07-16 06:01:44 |
| - | 2166277.json | 5867 | 2025-07-16 05:52:39 |
| - | 2166277_3142596_LoboTheBird_sketch2400110.png | 288413 | 2025-07-16 05:52:39 |
| - | 2167259.json | 7532 | 2025-07-16 05:36:47 |
| - | 2167259_3144211_LoboTheBird_sketch240101514.png | 734444 | 2025-07-16 05:36:47 |
| - | 2167941.json | 5737 | 2025-07-16 05:26:49 |
| - | 2167941_3145264_LoboTheBird_sketch27471233.png | 606344 | 2025-07-16 05:26:49 |
| - | 2168676.json | 6691 | 2025-07-16 05:15:33 |
| - | 2168676_3146319_LoboTheBird_sketch215223921.png | 1018732 | 2025-07-16 05:15:33 |
| - | 2169496.json | 6690 | 2025-07-16 05:02:59 |
| - | 2169496_3147638_LoboTheBird_sketch284122243.png | 1022404 | 2025-07-16 05:02:59 |
| - | 2170701.json | 5529 | 2025-07-16 04:44:28 |
| - | 2170701_3149643_LoboTheBird_sketch295102024.png | 168219 | 2025-07-16 04:44:28 |
| - | 2171409.json | 5727 | 2025-07-16 04:32:37 |
| - | 2171409_3150693_LoboTheBird_sketch214113914.png | 136187 | 2025-07-16 04:32:37 |
| - | 2173648.json | 9891 | 2025-07-16 03:55:12 |
| - | 2173648_3154271_LoboTheBird_sketch11172630.png | 1124353 | 2025-07-16 03:55:12 |
| - | 2180518.json | 11293 | 2025-07-16 02:02:42 |
| - | 2180518_3164884_LoboTheBird_sketch92171334.png | 656842 | 2025-07-16 02:02:42 |
| - | 2183128.json | 14833 | 2025-07-16 01:16:26 |
| - | 2183128_3168932_LoboTheBird_3164842_alessio626_art_trade_with_azul_up_you_go_anal_fuck_sketch_18c_colored_3.jpg | 385199 | 2025-07-16 01:16:26 |
| - | 2183128_3168935_LoboTheBird_3164844_alessio626_art_trade_with_azul_up_you_go_anal_fuck_sketch_18c_colored_2.jpg | 338651 | 2025-07-16 01:16:26 |
| - | 2186754.json | 6201 | 2025-07-16 00:19:00 |
| - | 2186754_3174243_LoboTheBird_sketch184112731.png | 980778 | 2025-07-16 00:19:00 |
| - | 2187641.json | 8585 | 2025-07-16 00:04:45 |
| - | 2187641_3175811_LoboTheBird_sketch21002555.png | 845677 | 2025-07-16 00:04:45 |
| - | 2188595.json | 9555 | 2025-07-15 23:47:29 |
| - | 2188595_3177342_LoboTheBird_sketch22111125.png | 440341 | 2025-07-15 23:47:29 |
| - | 2193716.json | 6414 | 2025-07-15 22:11:58 |
| - | 2193716_3185292_LoboTheBird_sketch276191254.png | 880783 | 2025-07-15 22:11:58 |
| - | 2198581.json | 6279 | 2025-07-15 20:42:56 |
| - | 2198581_3193025_LoboTheBird_sketch50103725.png | 635140 | 2025-07-15 20:42:56 |
| - | 2200019.json | 6274 | 2025-07-15 20:13:54 |
| - | 2200019_3195499_LoboTheBird_sketch6116753.png | 1127135 | 2025-07-15 20:13:54 |
| - | 2202378.json | 6242 | 2025-07-15 19:28:06 |
| - | 2202378_3199213_LoboTheBird_sketch83121244.png | 908105 | 2025-07-15 19:28:06 |
| - | 2208132.json | 9079 | 2025-07-15 17:54:54 |
| - | 2208132_3207796_LoboTheBird_sketch142185650.png | 627058 | 2025-07-15 17:54:54 |
| - | 2208132_3207799_LoboTheBird_fb_img_15948685191682445.jpg | 116649 | 2025-07-15 17:54:54 |
| - | 2208562.json | 6466 | 2025-07-15 17:47:26 |
| - | 2208562_3208557_LoboTheBird_sketch15322127.png | 747600 | 2025-07-15 17:47:26 |
| - | 2211008.json | 6138 | 2025-07-15 17:04:29 |
| - | 2211008_3212141_LoboTheBird_sketch2122920.png | 576716 | 2025-07-15 17:04:29 |
| - | 2211796.json | 6044 | 2025-07-15 16:50:33 |
| - | 2211796_3213462_LoboTheBird_sketch212225657.png | 1399634 | 2025-07-15 16:50:33 |
| - | 2213898.json | 9596 | 2025-07-15 16:15:47 |
| - | 2213898_3216629_LoboAzul69_sketch9110050.png | 1038030 | 2025-07-15 16:15:47 |
| - | 2213898_3228059_LoboAzul69_sketch76235247.png | 1040687 | 2025-07-15 16:15:47 |
| - | 2215501.json | 9098 | 2025-07-15 15:47:41 |
| - | 2215501_3219146_LoboAzul69_sketch2609627.png | 545172 | 2025-07-15 15:47:41 |
| - | 2217099.json | 6790 | 2025-07-15 15:19:57 |
| - | 2217099_3221609_LoboAzul69_sketch11623813.png | 575814 | 2025-07-15 15:19:57 |
| - | 2219934.json | 6198 | 2025-07-15 14:32:10 |
| - | 2219934_3225820_LoboAzul69_snow_yiff.gif | 373015 | 2025-07-15 14:32:10 |
| - | 2220673.json | 6027 | 2025-07-15 14:19:25 |
| - | 2220673_3227049_LoboAzul69_sketch16111223.jpg | 340585 | 2025-07-15 14:19:25 |
| - | 2221668.json | 5841 | 2025-07-15 14:02:49 |
| - | 2221668_3228641_LoboAzul69_sketch3111945.png | 951341 | 2025-07-15 14:02:49 |
| - | 2222422.json | 5744 | 2025-07-15 13:51:24 |
| - | 2222422_3229737_LoboAzul69_sketch113232228.png | 804546 | 2025-07-15 13:51:24 |
| - | 2223156.json | 6091 | 2025-07-15 13:39:44 |
| - | 2223156_3231039_LoboAzul69_sketch2651044.png | 636362 | 2025-07-15 13:39:44 |
| - | 2224598.json | 5819 | 2025-07-15 13:16:54 |
| - | 2224598_3233154_LoboAzul69_sketch751911.png | 707856 | 2025-07-15 13:16:54 |
| - | 2225309.json | 5973 | 2025-07-15 13:05:18 |
| - | 2225309_3234261_LoboAzul69_sketch1831915.png | 971143 | 2025-07-15 13:05:18 |
| - | 2225993.json | 5753 | 2025-07-15 12:54:17 |
| - | 2225993_3235328_LoboAzul69_sketch86103746.png | 713590 | 2025-07-15 12:54:17 |
| - | 2235360.json | 7223 | 2025-07-15 10:05:53 |
| - | 2235360_3249693_LoboAzul69_sketch13461637.png | 1060691 | 2025-07-15 10:05:53 |
| - | 2237819.json | 6118 | 2025-07-15 09:19:50 |
| - | 2237819_3253436_LoboAzul69_sketch241184329.jpg | 232828 | 2025-07-15 09:19:50 |
| - | 2239102.json | 8442 | 2025-07-15 09:00:28 |
| - | 2239102_3255247_LoboAzul69_sketch160125420.png | 1111336 | 2025-07-15 09:00:28 |
| - | 2242449.json | 8068 | 2025-07-15 08:09:50 |
| - | 2242449_3260386_LoboTheBird_sketch30010365.png | 637263 | 2025-07-15 08:09:50 |
| - | 2243229.json | 7376 | 2025-07-15 07:57:27 |
| - | 2243229_3261592_LoboTheBird_sketch3110347.jpg | 584044 | 2025-07-15 07:57:27 |
| - | 2243971.json | 8209 | 2025-07-15 07:44:44 |
| - | 2243971_3262862_LoboTheBird_sketch263172350.png | 533332 | 2025-07-15 07:44:44 |
| - | 2244240.json | 6123 | 2020-09-01 22:59:31 |
| - | 2244240_3263253_LoboTheBird_sketch12164724.png | 748054 | 2020-09-01 22:59:34 |
| - | 2250019.json | 6144 | 2025-07-15 06:06:32 |
| - | 2250019_3272175_LoboTheBird_sketch4511330.png | 725389 | 2025-07-15 06:06:32 |
| - | 2251093.json | 6959 | 2025-07-15 05:49:33 |
| - | 2251093_3273711_LoboTheBird_sketch193212650.png | 425469 | 2025-07-15 05:49:33 |
| - | 2252391.json | 7095 | 2025-07-15 05:28:45 |
| - | 2252391_3275572_LoboTheBird_sketch10419017.jpg | 626260 | 2025-07-15 05:28:45 |
| - | 2253224.json | 6345 | 2025-07-15 05:14:59 |
| - | 2253224_3276825_LoboTheBird_sketch101211739.png | 339234 | 2025-07-15 05:14:59 |
| - | 2253946.json | 6591 | 2025-07-15 05:03:57 |
| - | 2253946_3277920_LoboTheBird_sketch126161735.png | 1247624 | 2025-07-15 05:03:57 |
| - | 2256566.json | 5732 | 2025-07-15 04:21:50 |
| - | 2256566_3281827_LoboTheBird_sketch17413333.png | 465896 | 2025-07-15 04:21:50 |
| - | 2258075.json | 6680 | 2025-07-15 03:56:57 |
| - | 2258075_3284134_LoboTheBird_sketch185233216.png | 574240 | 2025-07-15 03:56:57 |
| - | 2260768.json | 6139 | 2025-07-15 03:14:03 |
| - | 2260768_3288181_LoboTheBird_sketch22211546.jpg | 453513 | 2025-07-15 03:14:03 |
| - | 2261313.json | 6997 | 2025-07-15 03:04:06 |
| - | 2261313_3289077_LoboTheBird_sketch310182615.png | 728415 | 2025-07-15 03:04:06 |
| - | 2262507.json | 8346 | 2020-09-30 07:25:37 |
| - | 2262507_3291061_LoboTheBird_sketch23321241.png | 442822 | 2020-09-30 07:25:38 |
| - | 2263578.json | 8783 | 2025-07-15 02:28:42 |
| - | 2263578_3292704_LoboTheBird_sketch26613052.png | 986056 | 2025-07-15 02:28:42 |
| - | 2266061.json | 9009 | 2025-07-16 08:21:44 |
| - | 2266061_3296602_LoboTheBird_sketch28119344.png | 231980 | 2025-07-16 08:21:44 |
| - | 2266892.json | 6984 | 2025-07-15 01:37:46 |
| - | 2266892_3298209_LoboTheBird_sketch292181847.png | 831924 | 2025-07-15 01:37:46 |
| - | 2267495.json | 6271 | 2025-07-15 01:28:48 |
| - | 2267495_3298939_LoboTheBird_sketch303194832.png | 423109 | 2025-07-15 01:28:48 |
| - | 2271008.json | 7187 | 2025-07-15 00:38:29 |
| - | 2271008_3304594_LoboTheBird_sketch25215229.png | 543805 | 2025-07-15 00:38:29 |
| - | 2273356.json | 9712 | 2025-07-15 00:05:04 |
| - | 2273356_3308259_LoboTheBird_sketch8404313.png | 450863 | 2025-07-15 00:05:04 |
| - | 2273356_3308260_LoboTheBird_sketch8404124.png | 455318 | 2025-07-15 00:05:04 |
| - | 2274249.json | 6535 | 2025-07-16 08:03:22 |
| - | 2274249_3309752_LoboTheBird_sketch8412018.png | 514827 | 2025-07-16 08:03:22 |
| - | 2275886.json | 6408 | 2025-07-14 23:29:40 |
| - | 2275886_3312173_LoboTheBird_sketch95235059.png | 373788 | 2025-07-14 23:29:40 |
| - | 2276789.json | 5981 | 2025-07-14 23:15:33 |
| - | 2276789_3313686_LoboTheBird_sketch110181917.png | 1135609 | 2025-07-14 23:15:33 |
| - | 2277639.json | 6979 | 2025-07-14 23:02:07 |
| - | 2277639_3315414_LoboTheBird_sketch121201044.png | 1141274 | 2025-07-14 23:02:07 |
| - | 2279250.json | 7507 | 2025-07-14 22:36:10 |
| - | 2279250_3318525_LoboTheBird_sketch121231116.png | 608127 | 2025-07-14 22:36:10 |
| - | 2280121.json | 6919 | 2025-07-14 22:20:08 |
| - | 2280121_3320414_LoboTheBird_sketch14320463.png | 578535 | 2025-07-14 22:20:08 |
| - | 2280975.json | 7332 | 2025-07-14 22:05:58 |
| - | 2280975_3321843_LoboTheBird_sketch15420258.jpg | 639171 | 2025-07-14 22:05:58 |
| - | 2284836.json | 5895 | 2025-07-16 07:48:15 |
| - | 2284836_3327886_LoboTheBird_sketch16593955.png | 377849 | 2025-07-16 07:48:15 |
| - | 2287046.json | 6713 | 2025-07-14 20:33:54 |
| - | 2287046_3331093_LoboTheBird_sketch24619343.png | 423599 | 2025-07-14 20:33:54 |
| - | 2288815.json | 6433 | 2025-07-14 20:06:09 |
| - | 2288815_3333952_LoboTheBird_sketch26121504.png | 1027566 | 2025-07-14 20:06:09 |
| - | 2289676.json | 6407 | 2025-07-14 19:52:02 |
| - | 2289676_3335323_LoboTheBird_sketch27219430.png | 460788 | 2025-07-14 19:52:02 |
| - | 2289981.json | 8851 | 2025-07-14 19:46:37 |
| - | 2289981_3335817_LoboTheBird_sketch28395911.png | 694919 | 2025-07-14 19:46:37 |
| - | 2290488.json | 6214 | 2025-07-14 19:37:07 |
| - | 2290488_3336625_LoboTheBird_sketch283911.png | 1102333 | 2025-07-14 19:37:07 |
| - | 2291315.json | 6558 | 2025-07-14 19:20:56 |
| - | 2291315_3338070_LoboTheBird_sketch294101159.png | 287466 | 2025-07-14 19:20:56 |
| - | 2292424.json | 6150 | 2025-07-14 19:02:39 |
| - | 2292424_3340034_LoboTheBird_sketch294215217.png | 361548 | 2025-07-14 19:02:39 |
| - | 2293805.json | 6525 | 2025-07-14 18:34:15 |
| - | 2293805_3342290_LoboTheBird_sketch1093550.png | 329055 | 2025-07-14 18:34:15 |
| - | 2299504.json | 6272 | 2025-07-14 16:54:38 |
| - | 2299504_3351114_LoboTheBird_sketch43173559.png | 880986 | 2025-07-14 16:54:38 |
| - | 2299507.json | 6416 | 2025-07-14 16:54:35 |
| - | 2299507_3351117_LoboTheBird_sketch5413481.jpg | 472126 | 2025-07-14 16:54:35 |
| - | 2300241.json | 5990 | 2025-07-14 16:41:38 |
| - | 2300241_3352296_LoboTheBird_sketch6518522.png | 757661 | 2025-07-14 16:41:38 |
| - | 2301175.json | 7173 | 2025-07-14 16:21:49 |
| - | 2301175_3353782_LoboTheBird_sketch9104114.png | 426471 | 2025-07-14 16:21:49 |
| - | 2301888.json | 7251 | 2025-07-14 16:06:58 |
| - | 2301888_3354998_LoboTheBird_sketch10214113.png | 999735 | 2025-07-14 16:06:58 |
| - | 2303308.json | 7188 | 2025-07-14 15:40:20 |
| - | 2303308_3357515_LoboTheBird_sketch113235559.png | 515760 | 2025-07-14 15:40:20 |
| - | 2306730.json | 6624 | 2025-07-14 14:29:08 |
| - | 2306730_3363548_LoboTheBird_sketch135125936.png | 945125 | 2025-07-14 14:29:08 |
| - | 2308143.json | 6564 | 2025-07-14 13:52:59 |
| - | 2308143_3366052_LoboTheBird_sketch161185145.png | 624224 | 2025-07-14 13:52:59 |
| - | 2308573.json | 9174 | 2025-07-14 13:44:25 |
| - | 2308573_3366738_LoboTheBird_sketch183202011.png | 165776 | 2025-07-14 13:44:25 |
| - | 2311197.json | 7054 | 2025-07-14 12:49:28 |
| - | 2311197_3371560_LoboTheBird_sketch220125533.png | 477532 | 2025-07-14 12:49:28 |
| - | 2312747.json | 6401 | 2025-07-14 12:19:02 |
| - | 2312747_3374032_LoboTheBird_sketch25303819.png | 418800 | 2025-07-14 12:19:02 |
| - | 2313394.json | 7623 | 2025-07-14 12:06:31 |
| - | 2313394_3375208_LoboTheBird_sketch26404211.png | 472810 | 2025-07-14 12:06:31 |
| - | 2313763.json | 8184 | 2025-07-14 12:00:04 |
| - | 2313763_3375796_LoboTheBird_sketch2643522.png | 1029991 | 2025-07-14 12:00:04 |
| - | 2315573.json | 5975 | 2025-07-14 11:18:22 |
| - | 2315573_3378745_LoboTheBird_sketch286038.png | 615665 | 2025-07-14 11:18:22 |
| - | 2316475.json | 6416 | 2025-07-14 11:00:13 |
| - | 2316475_3380082_LoboTheBird_sketch290144727.png | 603590 | 2025-07-14 11:00:13 |
| - | 2317489.json | 7428 | 2025-07-14 10:37:24 |
| - | 2317489_3381622_LoboTheBird_sketch301234816.jpg | 297986 | 2025-07-14 10:37:24 |
| - | 2318350.json | 6590 | 2025-07-14 10:22:13 |
| - | 2318350_3382937_LoboTheBird_sketch301111312.png | 510412 | 2025-07-14 10:22:13 |
| - | 2319097.json | 9299 | 2025-07-14 10:09:21 |
| - | 2319097_3384169_LoboTheBird_sketch23225421.png | 782171 | 2025-07-14 10:09:21 |
| - | 2319097_3384205_LoboTheBird_sketch3414659.png | 588837 | 2025-07-14 10:09:21 |
| - | 2319771.json | 5389 | 2025-07-14 09:56:56 |
| - | 2319771_3385316_LoboTheBird_sketch450267.png | 237737 | 2025-07-14 09:56:56 |
| - | 2320484.json | 6260 | 2025-07-14 09:41:31 |
| - | 2320484_3386492_LoboTheBird_sketch4513320.png | 1239431 | 2025-07-14 09:41:31 |
| - | 2321242.json | 6553 | 2025-07-14 09:26:15 |
| - | 2321242_3387694_LoboTheBird_sketch45201859.png | 464789 | 2025-07-14 09:26:15 |
| - | 2322071.json | 6640 | 2025-07-14 09:09:19 |
| - | 2322071_3388969_LoboTheBird_sketch56103635.png | 379417 | 2025-07-14 09:09:19 |
| - | 2322722.json | 6131 | 2025-07-14 08:57:08 |
| - | 2322722_3389974_LoboTheBird_sketch7115244.jpg | 600519 | 2025-07-14 08:57:08 |
| - | 2323503.json | 7271 | 2025-07-14 08:44:24 |
| - | 2323503_3391290_LoboTheBird_sketch71191252.png | 529882 | 2025-07-14 08:44:24 |
| - | 2324286.json | 6137 | 2025-07-14 08:29:59 |
| - | 2324286_3392670_LoboTheBird_sketch9305145.jpg | 403830 | 2025-07-14 08:29:59 |
| - | 2325970.json | 14874 | 2025-07-14 08:00:04 |
| - | 2325970_3395222_LoboTheBird_sketch10417553.png | 1085631 | 2025-07-14 08:00:04 |
| - | 2325970_3395223_LoboTheBird_sketch11521457.png | 1083017 | 2025-07-14 08:00:05 |
| - | 2326721.json | 6206 | 2025-07-14 07:48:18 |
| - | 2326721_3396348_LoboTheBird_sketch12618562.png | 745385 | 2025-07-14 07:48:18 |
| - | 2327303.json | 5881 | 2025-07-14 07:39:59 |
| - | 2327303_3397215_LoboTheBird_sketch11523935.png | 990689 | 2025-07-14 07:39:59 |
| - | 2328034.json | 6086 | 2025-07-14 07:29:43 |
| - | 2328034_3398403_LoboTheBird_sketch130202551.png | 743370 | 2025-07-14 07:29:43 |
| - | 2328834.json | 15159 | 2025-07-14 07:18:41 |
| - | 2328834_3399688_LoboTheBird_3397199_alessio626_art_trade_with_azul_dont_drop_the_soap_sketch_22_colored_5.jpg | 1873245 | 2025-07-14 07:18:41 |
| - | 2328834_3399689_LoboTheBird_3397201_alessio626_art_trade_with_azul_dont_drop_the_soap_sketch_22_colored_4.jpg | 1801819 | 2025-07-14 07:18:41 |
| - | 2329509.json | 7601 | 2025-07-14 07:09:37 |
| - | 2329509_3400732_LoboTheBird_sketch16312642.png | 1140348 | 2025-07-14 07:09:37 |
| - | 2330314.json | 10620 | 2025-07-14 06:58:47 |
| - | 2330314_3401950_LoboTheBird_sketch18505115.png | 1113508 | 2025-07-14 06:58:47 |
| - | 2331988.json | 6331 | 2025-07-14 20:08:28 |
| - | 2331988_3404345_LoboTheBird_sketch20015656.png | 364836 | 2025-07-14 20:08:28 |
| - | 2332480.json | 6789 | 2025-07-14 06:28:18 |
| - | 2332480_3405053_LoboTheBird_sketch174184842.png | 513219 | 2025-07-14 06:28:18 |
| - | 2332649.json | 5623 | 2025-07-14 06:25:38 |
| - | 2332649_3405310_LoboTheBird_sketch9103815.png | 156597 | 2025-07-14 06:25:38 |
| - | 2333296.json | 6818 | 2025-07-14 06:16:37 |
| - | 2333296_3406237_LoboTheBird_sketch200203022.png | 594612 | 2025-07-14 06:16:37 |
| - | 2333427.json | 5360 | 2025-07-14 06:14:47 |
| - | 2333427_3406467_LoboTheBird_sketch211194435.png | 151228 | 2025-07-14 06:14:47 |
| - | 2334911.json | 9441 | 2025-07-14 19:58:59 |
| - | 2334911_3409098_LoboTheBird_sketch233164948.png | 866021 | 2025-07-14 19:58:59 |
| - | 2335728.json | 6160 | 2025-07-14 05:41:02 |
| - | 2335728_3410246_LoboTheBird_sketch233151233.png | 828416 | 2025-07-14 05:41:02 |
| - | 2336618.json | 7121 | 2025-07-14 05:28:57 |
| - | 2336618_3411549_LoboTheBird_sketch2552811.jpg | 554113 | 2025-07-14 05:28:57 |
| - | 2337911.json | 6983 | 2025-07-14 05:10:43 |
| - | 2337911_3413496_LoboTheBird_sketch266164249.png | 540718 | 2020-12-28 16:19:29 |
| - | 2337911_3413551_LoboTheBird_sketch266164249.png | 543041 | 2025-07-14 05:10:43 |
| - | 2338807.json | 6663 | 2025-07-14 04:57:34 |
| - | 2338807_3414939_LoboTheBird_sketch26622318.png | 400010 | 2025-07-14 04:57:34 |
| - | 2340198.json | 5746 | 2025-07-14 04:37:24 |
| - | 2340198_3417255_LoboTheBird_sketch292134025.png | 365546 | 2025-07-14 04:37:24 |
| - | 2343689.json | 9355 | 2025-07-14 03:41:24 |
| - | 2343689_3422679_LoboTheBird_sketch26191625.png | 571728 | 2025-07-14 03:41:24 |
| - | 2347603.json | 6132 | 2025-07-14 02:43:45 |
| - | 2347603_3429144_LoboTheBird_sketch52164015.png | 271355 | 2025-07-14 02:43:45 |
| - | 2348114.json | 8193 | 2025-07-14 02:37:03 |
| - | 2348114_3430015_LoboTheBird_sketch100114810.png | 794127 | 2025-07-14 02:37:03 |
| - | 2348151.json | 6382 | 2025-07-14 02:36:33 |
| - | 2348151_3430067_LoboTheBird_sketch6321727.png | 479984 | 2025-07-14 02:36:33 |
| - | 2348435.json | 8263 | 2025-07-14 02:32:42 |
| - | 2348435_3430462_LoboTheBird_sketch10015577.png | 293950 | 2025-07-14 02:32:42 |
| - | 2348822.json | 6792 | 2025-07-14 19:26:34 |
| - | 2348822_3431110_LoboTheBird_sketch9603743.png | 564792 | 2025-07-14 19:26:34 |
| - | 2349717.json | 9983 | 2025-07-14 02:14:50 |
| - | 2349717_3432493_LoboTheBird_sketch12221317.png | 523853 | 2025-07-14 02:14:50 |
| - | 2350302.json | 7351 | 2025-07-14 19:22:34 |
| - | 2350302_3433490_LoboTheBird_sketch10015652.png | 903127 | 2025-07-14 19:22:34 |
| - | 2351244.json | 8545 | 2025-07-14 01:53:39 |
| - | 2351244_3435047_LoboTheBird_sketch133234346.png | 287228 | 2025-07-14 01:53:39 |
| - | 2351830.json | 6113 | 2025-07-14 01:45:06 |
| - | 2351830_3436041_LoboTheBird_sketch144174727.png | 598476 | 2021-01-15 15:05:25 |
| - | 2351830_3436278_LoboTheBird_sketch144174727.png | 604227 | 2025-07-14 01:45:06 |
| - | 2355083.json | 11469 | 2025-07-14 00:55:45 |
| - | 2355083_3441177_LoboTheBird_sketch17013554.png | 553446 | 2025-07-14 00:55:45 |
| - | 2355837.json | 6538 | 2025-07-14 00:43:00 |
| - | 2355837_3442568_LoboTheBird_sketch20393321.png | 414498 | 2025-07-14 00:43:00 |
| - | 2356907.json | 9678 | 2025-07-14 00:25:15 |
| - | 2356907_3444368_LoboTheBird_sketch2140512.png | 632897 | 2025-07-14 00:25:15 |
| - | 2356907_3448258_LoboTheBird_sketch21420260.png | 663331 | 2025-07-14 00:25:15 |
| - | 2357350.json | 15857 | 2025-07-14 00:17:46 |
| - | 2357350_3445098_LoboTheBird_3442459_alessio626_art_trade_with_azul_snow_pounding_azul_sketch_17_colored_4.jpg | 465657 | 2025-07-14 00:17:45 |
| - | 2357350_3445099_LoboTheBird_3442460_alessio626_art_trade_with_azul_snow_pounding_azul_sketch_17_colored_3.jpg | 414800 | 2025-07-14 00:17:46 |
| - | 2357350_3445100_LoboTheBird_3442461_alessio626_art_trade_with_azul_snow_pounding_azul_sketch_17_colored.jpg | 415762 | 2025-07-14 00:17:46 |
| - | 2357641.json | 6010 | 2025-07-14 00:13:42 |
| - | 2357641_3445504_LoboTheBird_sketch21421825.jpg | 399022 | 2025-07-14 00:13:42 |
| - | 2359250.json | 5524 | 2025-07-13 23:49:44 |
| - | 2359250_3448059_LoboTheBird__20210124_115130.jpg | 60506 | 2025-07-13 23:49:44 |
| - | 2360911.json | 17721 | 2025-07-13 23:26:34 |
| - | 2360911_3450799_LoboTheBird_sketch2252925.png | 508677 | 2025-07-13 23:26:34 |
| - | 2360911_3450800_LoboTheBird_sketch23603459.png | 504884 | 2025-07-13 23:26:34 |
| - | 2360911_3450801_LoboTheBird_sketch23621639.png | 415923 | 2025-07-13 23:26:34 |
| - | 2360911_3450803_LoboTheBird_sketch23614590.png | 480591 | 2025-07-13 23:26:34 |
| - | 2360911_3450804_LoboTheBird_sketch23619715.png | 565538 | 2025-07-13 23:26:34 |
| - | 2361581.json | 6591 | 2025-07-13 23:17:29 |
| - | 2361581_3451966_LoboTheBird_sketch251141526.png | 930321 | 2025-07-13 23:17:29 |
| - | 2361854.json | 9910 | 2025-07-13 23:13:30 |
| - | 2361854_3452414_LoboTheBird_sketch273103535.png | 755945 | 2025-07-13 23:13:30 |
| - | 2362010.json | 7641 | 2025-07-14 18:55:41 |
| - | 2362010_3452655_LoboTheBird_sketch273174356.png | 696230 | 2025-07-14 18:55:41 |
| - | 2363112.json | 6377 | 2025-07-13 22:56:07 |
| - | 2363112_3454412_LoboTheBird_sketch28416345.png | 685572 | 2025-07-13 22:56:07 |
| - | 2363927.json | 5607 | 2025-07-13 22:44:40 |
| - | 2363927_3455707_LoboTheBird_sketch29520123.png | 296607 | 2025-07-13 22:44:40 |
| - | 2364397.json | 6596 | 2025-07-14 18:46:52 |
| - | 2364397_3456510_LoboTheBird_sketch30619133.png | 1085288 | 2025-07-14 18:46:52 |
| - | 2364729.json | 8075 | 2025-07-13 22:33:09 |
| - | 2364729_3661543_LoboTheBird_sketch165113755.png | 485217 | 2025-07-13 22:33:09 |
| - | 2364729_3661659_LoboTheBird_sketch17619344.png | 481364 | 2025-07-13 22:33:09 |
| - | 2365283.json | 12908 | 2025-07-13 22:24:59 |
| - | 2365283_3458039_LoboTheBird_3455633_alessio626_happy_birthday_azul_doodle_2021_sketch_12_colored_3.jpg | 479725 | 2025-07-13 22:24:59 |
| - | 2365283_3458040_LoboTheBird_3455634_alessio626_happy_birthday_azul_doodle_2021_sketch_12_colored_2.jpg | 408428 | 2025-07-13 22:24:59 |
| - | 2366544.json | 6632 | 2025-07-13 22:06:33 |
| - | 2366544_3460206_LoboTheBird_sketch11122839.png | 608823 | 2021-02-03 03:25:36 |
| - | 2366544_3474276_LoboTheBird_sketch11122839.png | 586143 | 2025-07-13 22:06:33 |
| - | 2367282.json | 5811 | 2025-07-13 21:55:03 |
| - | 2367282_3461456_LoboTheBird_sketch22214714.png | 435882 | 2025-07-13 21:55:03 |
| - | 2367871.json | 8725 | 2025-07-13 21:45:58 |
| - | 2367871_3462381_LoboTheBird_sketch33233848.png | 916108 | 2025-07-13 21:45:58 |
| - | 2377130.json | 10227 | 2025-07-13 19:28:02 |
| - | 2377130_3477669_LoboTheBird_sketch55225655.png | 735069 | 2025-07-13 19:28:02 |
| - | 2377130_3477673_LoboTheBird_sketch55225655.png | 747351 | 2025-07-13 19:28:02 |
| - | 2377565.json | 6839 | 2025-07-13 19:21:51 |
| - | 2377565_3478365_LoboTheBird_sketch103181631.png | 758369 | 2025-07-13 19:21:51 |
| - | 2378252.json | 7088 | 2025-07-14 18:13:21 |
| - | 2378252_3479507_LoboTheBird_sketch140125617.png | 889347 | 2025-07-14 18:13:21 |
| - | 2379039.json | 6331 | 2025-07-13 19:02:00 |
| - | 2379039_3480839_LoboTheBird_sketch92175916.png | 1030200 | 2025-07-13 19:02:00 |
| - | 2379856.json | 7127 | 2025-07-13 18:49:45 |
| - | 2379856_3482086_LoboTheBird_sketch151123256.png | 407893 | 2025-07-13 18:49:45 |
| - | 2380042.json | 6184 | 2025-07-13 18:47:06 |
| - | 2380042_3482368_LoboTheBird_sketch184225440.png | 1006819 | 2025-07-13 18:47:06 |
| - | 2383283.json | 9843 | 2025-07-13 17:57:30 |
| - | 2383283_3487694_LoboTheBird_sketch232182332.png | 559273 | 2025-07-13 17:57:30 |
| - | 2383677.json | 6037 | 2025-07-13 17:50:34 |
| - | 2383677_3488367_LoboTheBird_sketch2431497.png | 920909 | 2025-07-13 17:50:34 |
| - | 2385152.json | 6979 | 2025-07-13 17:22:39 |
| - | 2385152_3490906_LoboTheBird_sketch25412323.png | 602426 | 2025-07-13 17:22:39 |
| - | 2385545.json | 5175 | 2025-07-13 17:13:28 |
| - | 2385545_3491469_LoboTheBird_sketch265152642.png | 281452 | 2025-07-13 17:13:28 |
| - | 2386020.json | 7014 | 2025-07-13 16:59:03 |
| - | 2386020_3492202_LoboTheBird_sketch265222431.png | 657801 | 2025-07-13 16:59:03 |
| - | 2387335.json | 5930 | 2025-07-13 16:38:54 |
| - | 2387335_3494290_LoboTheBird_sketch280213939.png | 229212 | 2025-07-13 16:38:54 |
| - | 2388473.json | 6188 | 2025-07-13 16:20:24 |
| - | 2388473_3496170_LoboTheBird_sketch11132546.png | 724365 | 2025-07-13 16:20:24 |
| - | 2389075.json | 7019 | 2025-07-13 16:11:08 |
| - | 2389075_3497175_LoboTheBird_sketch2218156.png | 409129 | 2025-07-13 16:11:08 |
| - | 2389427.json | 8797 | 2025-07-13 16:05:37 |
| - | 2389427_3497663_LoboTheBird_sketch3313211.png | 736552 | 2025-07-13 16:05:37 |
| - | 2389780.json | 5896 | 2025-07-13 16:00:02 |
| - | 2389780_3498165_LoboTheBird_sketch4413030.png | 354807 | 2025-07-13 16:00:02 |
| - | 2390830.json | 6225 | 2025-07-13 15:42:43 |
| - | 2390830_3499951_LoboTheBird_sketch44103334.png | 396061 | 2025-07-13 15:42:43 |
| - | 2391465.json | 7294 | 2025-07-13 15:32:37 |
| - | 2391465_3500963_LoboTheBird_sketch66113740.png | 731289 | 2025-07-13 15:32:37 |
| - | 2392304.json | 11067 | 2025-07-13 15:18:49 |
| - | 2392304_3502383_LoboTheBird_sketch7034947.png | 812265 | 2025-07-13 15:18:49 |
| - | 2393393.json | 9799 | 2025-07-13 15:00:44 |
| - | 2393393_3503995_LoboTheBird_sketch7023936.png | 828137 | 2025-07-13 15:00:44 |
| - | 2393847.json | 6705 | 2025-07-13 14:52:30 |
| - | 2393847_3504690_LoboTheBird_sketch81194747.png | 466789 | 2025-07-13 14:52:30 |
| - | 2394685.json | 9003 | 2025-07-13 14:37:54 |
| - | 2394685_3506002_LoboTheBird_sketch9212442.png | 580066 | 2025-07-13 14:37:54 |
| - | 2395440.json | 7111 | 2025-07-13 14:26:36 |
| - | 2395440_3507181_LoboTheBird_sketch81194747.png | 546264 | 2025-07-13 14:26:36 |
| - | 2396256.json | 8331 | 2025-07-13 14:13:11 |
| - | 2396256_3508425_LoboTheBird_sketch125102427.png | 1053467 | 2025-07-13 14:13:11 |
| - | 2396256_3508426_LoboTheBird_sketch11421546.png | 1052357 | 2025-07-13 14:13:11 |
| - | 2397073.json | 6677 | 2025-07-13 13:59:50 |
| - | 2397073_3509834_LoboTheBird_sketch11420401.png | 1848619 | 2025-07-13 13:59:50 |
| - | 2397831.json | 6023 | 2025-07-13 13:47:44 |
| - | 2397831_3511085_LoboTheBird_sketch1361054.png | 433682 | 2025-07-13 13:47:44 |
| - | 2398224.json | 6446 | 2025-07-13 13:41:21 |
| - | 2398224_3511728_LoboTheBird_sketch140132630.png | 671289 | 2025-07-13 13:41:21 |
| - | 2398702.json | 6874 | 2025-07-13 17:55:43 |
| - | 2398702_3512590_LoboTheBird_sketch15112458.png | 507916 | 2025-07-13 17:55:43 |
| - | 2399378.json | 9436 | 2025-07-13 13:24:04 |
| - | 2399378_3513677_LoboTheBird_sketch151212016.png | 1020025 | 2025-07-13 13:24:04 |
| - | 2400159.json | 8233 | 2025-07-13 13:12:00 |
| - | 2400159_3514845_LoboTheBird_sketch162123143.png | 983436 | 2025-07-13 13:12:00 |
| - | 2400824.json | 6833 | 2025-07-13 13:01:14 |
| - | 2400824_3515872_LoboTheBird_sketch18411318.png | 465946 | 2025-07-13 13:01:14 |
| - | 2401542.json | 9984 | 2025-07-13 12:49:23 |
| - | 2401542_3517073_LoboTheBird_sketch19512445.png | 444706 | 2025-07-13 12:49:23 |
| - | 2402207.json | 6955 | 2025-07-13 12:38:42 |
| - | 2402207_3518057_LoboTheBird_sketch19513618.png | 689621 | 2025-07-13 12:38:42 |
| - | 2402990.json | 6522 | 2025-07-13 12:23:23 |
| - | 2402990_3519299_LoboTheBird_sketch21021612.png | 2319224 | 2025-07-13 12:23:23 |
| - | 2403684.json | 6193 | 2025-07-13 12:11:12 |
| - | 2403684_3520509_LoboTheBird_sketch206181722.png | 621023 | 2025-07-13 12:11:12 |
| - | 2404396.json | 5992 | 2025-07-13 12:00:19 |
| - | 2404396_3521573_LoboTheBird_sketch221178.png | 1052455 | 2025-07-13 12:00:19 |
| - | 2404944.json | 6709 | 2025-07-13 11:50:35 |
| - | 2404944_3522451_LoboTheBird_sketch232213732.png | 368702 | 2025-07-13 11:50:35 |
| - | 2405171.json | 6446 | 2025-07-13 11:46:10 |
| - | 2405171_3522782_LoboTheBird_sketch221145148.png | 458042 | 2025-07-13 11:46:10 |
| - | 2406163.json | 5969 | 2025-07-13 11:30:43 |
| - | 2406163_3524261_LoboTheBird_sketch243125227.png | 345020 | 2025-07-13 11:30:43 |
| - | 2407599.json | 6054 | 2025-07-13 11:10:59 |
| - | 2407599_3526401_LoboTheBird_sketch26521714.png | 1058054 | 2025-07-13 11:10:59 |
| - | 2408336.json | 6167 | 2025-07-13 10:59:27 |
| - | 2408336_3528555_LoboTheBird_sketch2761324.png | 522868 | 2025-07-13 10:59:27 |
| - | 2409125.json | 6651 | 2025-07-13 10:48:37 |
| - | 2409125_3528952_LoboTheBird_sketch280186.png | 767754 | 2025-07-13 10:48:37 |
| - | 2409863.json | 6203 | 2025-07-13 17:41:48 |
| - | 2409863_3530062_LoboTheBird_sketch30213425.png | 520783 | 2025-07-13 17:41:48 |
| - | 2410532.json | 6985 | 2025-07-13 10:28:33 |
| - | 2410532_3531075_LoboTheBird_sketch30213120.png | 741696 | 2025-07-13 10:28:33 |
| - | 2412242.json | 6278 | 2025-07-13 10:03:22 |
| - | 2412242_3533669_LoboTheBird_sketch14223139.png | 456670 | 2025-07-13 10:03:22 |
| - | 2412885.json | 6173 | 2025-07-13 09:54:28 |
| - | 2412885_3534624_LoboTheBird_sketch25143218.png | 689332 | 2025-07-13 09:54:28 |
| - | 2413674.json | 6178 | 2025-07-13 09:42:00 |
| - | 2413674_3535948_LoboTheBird_sketch36181523.png | 235775 | 2025-07-13 09:42:00 |
| - | 2414563.json | 6147 | 2025-07-13 09:28:17 |
| - | 2414563_3537283_LoboTheBird_sketch40222831.png | 573602 | 2025-07-13 09:28:17 |
| - | 2415256.json | 6024 | 2025-07-13 09:18:59 |
| - | 2415256_3538354_LoboTheBird_sketch51205630.png | 653452 | 2025-07-13 09:18:59 |
| - | 2415987.json | 6755 | 2025-07-13 09:07:59 |
| - | 2415987_3539505_LoboTheBird_sketch62131950.png | 1452210 | 2025-07-13 09:07:59 |
| - | 2416879.json | 10375 | 2025-07-13 08:56:42 |
| - | 2416879_3540950_LoboTheBird_sketch73153656.png | 641645 | 2025-07-13 08:56:42 |
| - | 2417648.json | 6313 | 2025-07-13 08:46:44 |
| - | 2417648_3542125_LoboTheBird_sketch84181950.png | 414186 | 2025-07-13 08:46:44 |
| - | 2418416.json | 6052 | 2025-07-13 17:17:54 |
| - | 2418416_3543436_LoboTheBird_sketch9512289.png | 316471 | 2025-07-13 17:17:54 |
| - | 2419790.json | 6307 | 2025-07-13 08:17:05 |
| - | 2419790_3545778_LoboTheBird_sketch1101541.png | 548538 | 2025-07-13 08:17:05 |
| - | 2420430.json | 6314 | 2025-07-13 17:08:58 |
| - | 2420430_3546744_LoboTheBird_sketch121133950.png | 705180 | 2025-07-13 17:08:58 |
| - | 2420928.json | 12532 | 2025-07-13 08:01:21 |
| - | 2420928_3547542_LoboTheBird_sketch132235710.png | 629231 | 2025-07-13 08:01:21 |
| - | 2420928_3547544_LoboTheBird_sketch10613484.png | 652189 | 2025-07-13 08:01:21 |
| - | 2421795.json | 7369 | 2025-07-13 07:49:35 |
| - | 2421795_3548884_LoboTheBird_sketch132113617.png | 526089 | 2025-07-13 07:49:35 |
| - | 2422553.json | 12128 | 2025-07-13 07:40:00 |
| - | 2422553_3550081_LoboTheBird_sketch16523331.png | 565450 | 2025-07-13 07:40:00 |
| - | 2422553_3550084_LoboTheBird_sketch16523339.png | 563324 | 2025-07-13 07:40:00 |
| - | 2422553_3550085_LoboTheBird_sketch16523346.png | 564394 | 2025-07-13 07:40:01 |
| - | 2423003.json | 10247 | 2025-07-13 07:33:27 |
| - | 2423003_3550892_LoboTheBird_sketch16515851.png | 974437 | 2025-07-13 07:33:27 |
| - | 2423260.json | 6828 | 2025-07-13 07:30:08 |
| - | 2423260_3551267_LoboTheBird_sketch95203748.png | 609998 | 2025-07-13 07:30:08 |
| - | 2424673.json | 5957 | 2025-07-13 07:10:53 |
| - | 2424673_3553367_LoboTheBird_sketch180161925.png | 568675 | 2025-07-13 07:10:53 |
| - | 2424868.json | 6063 | 2025-07-13 16:50:39 |
| - | 2424868_3553647_LoboTheBird_sketch176155312.png | 924160 | 2025-07-13 16:50:39 |
| - | 2424894.json | 10100 | 2025-07-13 07:07:54 |
| - | 2424894_3553678_LoboTheBird_3549819_alessio626_69_pissing_with_buddy_sketch_16_colored_2.jpg | 281581 | 2025-07-13 07:07:54 |
| - | 2425986.json | 5774 | 2025-07-13 06:53:42 |
| - | 2425986_3555341_LoboTheBird_sketch202132338.png | 660521 | 2025-07-13 06:53:42 |
| - | 2427421.json | 12139 | 2025-07-13 16:39:55 |
| - | 2427421_3557493_LoboTheBird_sketch224132921.png | 723042 | 2025-07-13 16:39:55 |
| - | 2431088.json | 5586 | 2025-07-13 16:24:34 |
| - | 2431088_3563475_LoboTheBird_sketch246182253.png | 646300 | 2025-07-13 16:24:34 |
| - | 2432797.json | 6579 | 2025-07-13 05:26:51 |
| - | 2432797_3566022_LoboTheBird_sketch29415529.png | 913077 | 2025-07-13 05:26:51 |
| - | 2435138.json | 11708 | 2025-07-13 04:55:26 |
| - | 2435138_3569756_LoboTheBird_sketch2015117.png | 680722 | 2025-07-13 04:55:26 |
| - | 2438379.json | 6992 | 2025-07-13 04:11:31 |
| - | 2438379_3574905_LoboTheBird_sketch6414854.png | 867926 | 2025-07-13 04:11:31 |
| - | 2438878.json | 17555 | 2025-07-13 04:04:51 |
| - | 2438878_3575693_LoboTheBird_3571804_alessio626_art_trade_fuck_train_with_sketch_18_colored_3.jpg | 283353 | 2025-07-13 04:04:50 |
| - | 2438878_3575694_LoboTheBird_3571805_alessio626_art_trade_fuck_train_with_sketch_18_colored_2.jpg | 281265 | 2025-07-13 04:04:50 |
| - | 2438878_3575695_LoboTheBird_3571806_alessio626_art_trade_fuck_train_with_sketch_18_colored.jpg | 238040 | 2025-07-13 04:04:51 |
| - | 2438932.json | 7847 | 2025-07-13 04:04:07 |
| - | 2438932_3575777_LoboTheBird_sketch3119757.png | 740089 | 2025-07-13 04:04:07 |
| - | 2441348.json | 9124 | 2025-07-13 15:52:45 |
| - | 2441348_3579779_LoboTheBird_sketch75182810.png | 876841 | 2025-07-13 15:52:45 |
| - | 2443681.json | 11426 | 2025-07-13 02:54:32 |
| - | 2443681_3583608_LoboTheBird_sketch11219478.png | 621879 | 2025-07-13 02:54:32 |
| - | 2443681_3583609_LoboTheBird_sketch145112130.png | 609792 | 2025-07-13 02:54:32 |
| - | 2446002.json | 7049 | 2025-07-13 02:25:21 |
| - | 2446002_3587338_LoboTheBird_sketch156125114.jpg | 595940 | 2025-07-13 02:25:21 |
| - | 2446743.json | 5892 | 2025-07-13 02:16:15 |
| - | 2446743_3588466_LoboTheBird_sketch14513817.png | 504300 | 2025-07-13 02:16:15 |
| - | 2448060.json | 7113 | 2025-07-13 01:59:35 |
| - | 2448060_3590505_LoboTheBird_sketch193202134.png | 620259 | 2025-07-13 01:59:35 |
| - | 2448306.json | 7414 | 2025-07-13 01:56:35 |
| - | 2448306_3590917_LoboTheBird_sketch19312842.png | 1973750 | 2025-07-13 01:56:35 |
| - | 2449144.json | 9146 | 2025-07-13 01:46:21 |
| - | 2449144_3592217_LoboTheBird_sketch20414240.png | 687993 | 2025-07-13 01:46:21 |
| - | 2449144_3592218_LoboTheBird_sketch215125112.png | 696481 | 2025-07-13 01:46:21 |
| - | 2451448.json | 7020 | 2025-07-13 15:11:53 |
| - | 2451448_3595882_LoboTheBird_sketch215161241.png | 656066 | 2025-07-13 15:11:53 |
| - | 2452332.json | 10736 | 2025-07-13 15:09:15 |
| - | 2452332_3597359_LoboTheBird_sketch241203313.png | 605611 | 2025-07-13 15:09:15 |
| - | 2453037.json | 5644 | 2025-07-13 00:52:20 |
| - | 2453037_3598600_LoboTheBird_sketch252233327.png | 639050 | 2025-07-13 00:52:20 |
| - | 2453881.json | 5921 | 2025-07-13 15:06:04 |
| - | 2453881_3600033_LoboTheBird_sketch263203049.png | 279311 | 2025-07-13 15:06:04 |
| - | 2456238.json | 6231 | 2025-07-13 00:08:27 |
| - | 2456238_3603982_LoboTheBird_sketch296174552.png | 1017436 | 2025-07-13 00:08:27 |
| - | 2456662.json | 7077 | 2025-07-13 00:03:13 |
| - | 2456662_3604665_LoboTheBird_sketch28515926.png | 569695 | 2025-07-13 00:03:13 |
| - | 2457354.json | 6139 | 2025-07-12 23:53:15 |
| - | 2457354_3605766_LoboTheBird_sketch31119302.png | 712643 | 2025-07-12 23:53:15 |
| - | 2457602.json | 5919 | 2025-07-12 23:49:34 |
| - | 2457602_3606200_LoboTheBird_sketch31111050.png | 687726 | 2025-07-12 23:49:34 |
| - | 2458296.json | 6811 | 2025-07-12 23:39:45 |
| - | 2458296_3607505_LoboTheBird_sketch23280.png | 469597 | 2025-07-12 23:39:45 |
| - | 2459795.json | 9823 | 2025-07-12 23:18:55 |
| - | 2459795_3609813_LoboTheBird_sketch2317542.png | 652114 | 2025-07-12 23:18:55 |
| - | 2460559.json | 7323 | 2025-07-12 23:08:35 |
| - | 2460559_3611053_LoboTheBird_sketch4513948.png | 419674 | 2025-07-12 23:08:35 |
| - | 2461108.json | 6419 | 2025-07-12 23:01:34 |
| - | 2461108_3611897_LoboTheBird_sketch56121951.png | 410350 | 2025-07-12 23:01:34 |
| - | 2462398.json | 7003 | 2025-07-12 22:43:10 |
| - | 2462398_3613773_LoboTheBird_sketch6013812.png | 870518 | 2025-07-12 22:43:10 |
| - | 2463769.json | 6493 | 2025-07-12 22:20:05 |
| - | 2463769_3616078_LoboTheBird_sketch7118555.png | 711065 | 2025-07-12 22:20:05 |
| - | 2464518.json | 6957 | 2025-07-12 22:08:07 |
| - | 2464518_3617243_LoboTheBird_sketch93115650.png | 250650 | 2025-07-12 22:08:07 |
| - | 2464941.json | 11235 | 2025-07-12 22:01:15 |
| - | 2464941_3617880_LoboTheBird_sketch10422335.png | 1326954 | 2025-07-12 22:01:15 |
| - | 2465954.json | 6334 | 2025-07-12 21:44:03 |
| - | 2465954_3619442_LoboTheBird_sketch11522323.png | 1302589 | 2025-07-12 21:44:03 |
| - | 2466661.json | 5596 | 2025-07-12 21:33:23 |
| - | 2466661_3620652_LoboTheBird_sketch12623204.png | 239838 | 2025-07-12 21:33:23 |
| - | 2467976.json | 7087 | 2025-07-12 21:10:49 |
| - | 2467976_3622623_LoboTheBird_sketch130195033.png | 546414 | 2025-07-12 21:10:49 |
| - | 2469472.json | 6021 | 2025-07-12 20:50:23 |
| - | 2469472_3624934_LoboTheBird_sketch152222936.png | 740347 | 2025-07-12 20:50:23 |
| - | 2470096.json | 6030 | 2025-07-13 14:27:36 |
| - | 2470096_3625977_LoboTheBird_sketch1742153.png | 737222 | 2025-07-13 14:27:36 |
| - | 2470720.json | 7497 | 2025-07-12 20:31:43 |
| - | 2470720_3626945_LoboTheBird_sketch185235736.png | 589882 | 2025-07-12 20:31:43 |
| - | 2471459.json | 9716 | 2025-07-12 20:21:07 |
| - | 2471459_3628110_LoboTheBird_sketch196223932.png | 739531 | 2025-07-12 20:21:07 |
| - | 2472935.json | 6161 | 2025-07-12 19:58:48 |
| - | 2472935_3630471_LoboTheBird_sketch2220325.png | 397316 | 2025-07-12 19:58:48 |
| - | 2476035.json | 9094 | 2025-07-12 19:15:21 |
| - | 2476035_3635267_LoboTheBird_sketch2222291.png | 1175588 | 2025-07-12 19:15:21 |
| - | 2487844.json | 15337 | 2025-07-12 16:21:40 |
| - | 2487844_3654590_LoboTheBird_sketch1210137.png | 985982 | 2025-07-12 16:21:40 |
| - | 2487844_3654591_LoboTheBird_sketch106205125.png | 981204 | 2025-07-12 16:21:41 |
| - | 2490954.json | 15725 | 2025-07-12 15:37:52 |
| - | 2490954_3659546_LoboTheBird_3652296_alessio626_morning_wanne_play_with_this_sketch_16_colored_3.jpg | 207708 | 2025-07-12 15:37:52 |
| - | 2490954_3659547_LoboTheBird_3652298_alessio626_morning_wanne_play_with_this_sketch_16_colored_2.jpg | 181984 | 2025-07-12 15:37:53 |
| - | 2494071.json | 8655 | 2025-07-12 14:53:18 |
| - | 2494071_3664940_LoboTheBird_sketch191233150.png | 860179 | 2025-07-12 14:53:18 |
| - | 2495082.json | 7350 | 2025-07-12 14:38:28 |
| - | 2495082_3666691_LoboTheBird_sketch180163720.png | 527366 | 2025-07-12 14:38:28 |
| - | 2495834.json | 7993 | 2025-07-13 13:26:36 |
| - | 2495834_3668057_LoboTheBird_sketch8411741.png | 826456 | 2025-07-13 13:26:36 |
| - | 2496511.json | 7453 | 2025-07-12 14:16:44 |
| - | 2496511_3669053_LoboTheBird_sketch23521128.png | 942208 | 2025-07-12 14:16:44 |
| - | 2497940.json | 7058 | 2025-07-12 13:55:31 |
| - | 2497940_3671408_LoboTheBird_sketch95185544.png | 702246 | 2025-07-12 13:55:31 |
| - | 2498598.json | 8679 | 2025-07-13 13:20:42 |
| - | 2498598_3672398_LoboTheBird_sketch27012836.png | 995201 | 2025-07-13 13:20:42 |
| - | 2503087.json | 7923 | 2025-07-12 12:40:46 |
| - | 2503087_3679636_LoboTheBird_sketch246191249.png | 1017381 | 2025-07-12 12:40:46 |
| - | 2505125.json | 9395 | 2025-07-12 12:09:53 |
| - | 2505125_3682923_LoboTheBird_sketch32172049.png | 425808 | 2025-07-12 12:09:53 |
| - | 2505797.json | 9685 | 2025-07-13 13:05:31 |
| - | 2505797_3684094_LoboTheBird_sketch54145244.png | 392161 | 2025-07-13 13:05:31 |
| - | 2506188.json | 7444 | 2025-07-13 13:04:10 |
| - | 2506188_3684647_LoboTheBird_sketch10185546.png | 572535 | 2025-07-13 13:04:10 |
| - | 2506590.json | 7060 | 2025-07-12 11:48:58 |
| - | 2506590_3685229_LoboTheBird_sketch65115316.png | 302059 | 2025-07-12 11:48:58 |
| - | 2508117.json | 10285 | 2025-07-12 11:19:10 |
| - | 2508117_3687771_LoboTheBird_sketch8013418.png | 979651 | 2025-07-12 11:19:10 |
| - | 2520032.json | 12554 | 2025-07-12 07:27:23 |
| - | 2520032_3707637_LoboTheBird_sketch2050346.png | 529365 | 2025-07-12 07:27:23 |
| - | 2520032_3707638_LoboTheBird_sketch20503440.png | 481563 | 2025-07-12 07:27:23 |
| - | 2521547.json | 8842 | 2025-07-12 06:59:42 |
| - | 2521547_3709832_LoboTheBird_sketch2642227.png | 611994 | 2025-07-12 06:59:42 |
| - | 2527594.json | 17938 | 2025-07-12 05:12:19 |
| - | 2527594_3719302_LoboTheBird_sketch24182457.png | 531171 | 2025-07-12 05:12:19 |
| - | 2527594_3719303_LoboTheBird_sketch3521748.png | 529702 | 2025-07-12 05:12:19 |
| - | 2527600.json | 15716 | 2025-07-12 05:12:12 |
| - | 2527600_3719313_LoboTheBird_3718295_alessio626_come_on_dude_continue_humping_sketch_14_colored_2.jpg | 232911 | 2025-07-12 05:12:12 |
| - | 2527600_3719314_LoboTheBird_3718296_alessio626_come_on_dude_continue_humping_sketch_14_colored.jpg | 187419 | 2025-07-12 05:12:12 |
| - | 2528561.json | 7900 | 2025-07-12 04:53:56 |
| - | 2528561_3720856_LoboTheBird_sketch290145812.png | 522965 | 2025-07-12 04:53:56 |
| - | 2534607.json | 13539 | 2025-07-12 03:10:53 |
| - | 2534607_3731305_LoboTheBird_sketch46184153.png | 1057425 | 2025-07-12 03:10:53 |
| - | 2534607_3731307_LoboTheBird_sketch83212510.png | 1106162 | 2025-07-12 03:10:53 |
| - | 2537476.json | 7594 | 2025-07-12 02:24:41 |
| - | 2537476_3736112_LoboTheBird_sketch142191736.png | 604989 | 2025-07-12 02:24:41 |
| - | 2539037.json | 10756 | 2025-07-12 01:53:48 |
| - | 2539037_3738694_LoboTheBird_sketch164163816.png | 1317959 | 2025-07-12 01:53:48 |
| - | 2541009.json | 5467 | 2025-07-12 11:42:39 |
| - | 2541009_3742135_LoboTheBird_sketch21224743.png | 900128 | 2025-07-12 11:42:39 |
| - | 2541355.json | 7447 | 2025-07-12 01:15:46 |
| - | 2541355_3742663_LoboTheBird_sketch2011326.png | 319286 | 2025-07-12 01:15:46 |
| - | 2542085.json | 8301 | 2025-07-12 01:03:56 |
| - | 2542085_3743799_LoboTheBird_sketch22301931.png | 581307 | 2025-07-12 01:03:56 |
| - | 2542440.json | 15053 | 2025-07-12 00:57:22 |
| - | 2542440_3744339_LoboTheBird_sketch23411517.png | 566730 | 2025-07-12 00:57:22 |
| - | 2544480.json | 7117 | 2025-07-12 00:24:44 |
| - | 2544480_3747662_LoboTheBird_sketch256135513.png | 713908 | 2025-07-12 00:24:44 |
| - | 2545562.json | 11479 | 2025-07-12 00:07:13 |
| - | 2545562_3749375_LoboTheBird_sketch27111036.png | 536251 | 2025-07-12 00:07:13 |
| - | 2546142.json | 6515 | 2025-07-11 23:57:08 |
| - | 2546142_3750261_LoboTheBird_1629531130.avenonymussape55_sketch194202235.png | 681207 | 2025-07-11 23:57:08 |
| - | 2547204.json | 14572 | 2025-07-11 23:40:21 |
| - | 2547204_3751871_LoboTheBird_sketch293214726.png | 1587097 | 2025-07-11 23:40:21 |
| - | 2547204_3751872_LoboTheBird_sketch29321553.png | 1637799 | 2025-07-11 23:40:21 |
| - | 2547204_3751874_LoboTheBird_sketch293215513.png | 1642108 | 2025-07-11 23:40:21 |
| - | 2552637.json | 10962 | 2025-07-11 22:15:56 |
| - | 2552637_3760763_LoboTheBird_sketch63134219.png | 1216931 | 2025-07-11 22:15:56 |
| - | 2561021.json | 9123 | 2025-07-11 20:15:34 |
| - | 2561021_3774351_LoboTheBird_sketch7418220.png | 667364 | 2025-07-11 20:15:34 |
| - | 2564087.json | 11928 | 2025-07-11 19:30:37 |
| - | 2564087_3779102_LoboTheBird_sketch225185519.png | 361565 | 2025-07-11 19:30:37 |
| - | 2564087_3779103_LoboTheBird_sketch225225113.jpg | 412476 | 2025-07-11 19:30:37 |
| - | 2564808.json | 7713 | 2025-07-11 19:20:57 |
| - | 2564808_3780264_LoboTheBird_sketch225231326.png | 665943 | 2025-07-11 19:20:57 |
| - | 2566940.json | 8528 | 2025-07-11 18:50:38 |
| - | 2566940_3784447_LoboTheBird_sketch2402757.png | 616916 | 2025-07-11 18:50:38 |
| - | 2566940_3784449_LoboTheBird__20211026_194415.jpg | 81131 | 2025-07-11 18:50:38 |
| - | 2569809.json | 25237 | 2025-07-11 18:12:51 |
| - | 2569809_3789081_LoboTheBird_sketch295201613.png | 651221 | 2025-07-11 18:12:51 |
| - | 2569809_3789084_LoboTheBird_sketch240225322.png | 589376 | 2025-07-11 18:12:51 |
| - | 2569809_3789087_LoboTheBird_sketch24011590.png | 592345 | 2025-07-11 18:12:51 |
| - | 2569809_3789090_LoboTheBird_sketch240123051.png | 590968 | 2025-07-11 18:12:52 |
| - | 2569809_3789091_LoboTheBird_sketch273112919.png | 624293 | 2025-07-11 18:12:52 |
| - | 2569809_3789094_LoboTheBird_sketch24013221.png | 687794 | 2025-07-11 18:12:52 |
| - | 2569809_3789097_LoboTheBird_sketch2401317.png | 524742 | 2025-07-11 18:12:52 |
| - | 2569809_3789098_LoboTheBird_sketch24013514.png | 747477 | 2025-07-11 18:12:52 |
| - | 2569809_3789100_LoboTheBird_sketch240131239.png | 628280 | 2025-07-11 18:12:52 |
| - | 2575805.json | 9815 | 2025-07-11 16:48:30 |
| - | 2575805_3798866_LoboTheBird_3796795_alessio626_dildo_decision_sketch_6_colored_2.jpg | 176998 | 2025-07-11 16:48:30 |
| - | 2575818.json | 12095 | 2025-07-11 16:48:21 |
| - | 2575818_3798881_LoboTheBird_sketch55182447.png | 730683 | 2025-07-11 16:48:21 |
| - | 2578513.json | 9789 | 2025-07-11 16:11:35 |
| - | 2578513_3803292_LoboTheBird_sketch92232639.png | 291159 | 2025-07-11 16:11:35 |
| - | 2579714.json | 7653 | 2025-07-12 09:50:00 |
| - | 2579714_3805269_LoboTheBird_sketch114152218.png | 438570 | 2025-07-12 09:50:00 |
| - | 2583134.json | 11626 | 2025-07-11 15:11:14 |
| - | 2583134_3810745_LoboTheBird_sketch151204418.png | 912120 | 2025-07-11 15:11:14 |
| - | 2585471.json | 7134 | 2025-07-11 14:38:56 |
| - | 2585471_3814276_LoboTheBird_sketch20613026_2.png | 1711644 | 2025-07-11 14:38:56 |
| - | 2585930.json | 11466 | 2025-07-11 14:32:49 |
| - | 2585930_3814974_LoboTheBird_sketch151191948.png | 591107 | 2025-07-11 14:32:49 |
| - | 2586311.json | 8670 | 2025-07-11 14:27:08 |
| - | 2586311_3815785_LoboTheBird_image_3a14253.png | 642062 | 2025-07-11 14:27:08 |
| - | 2586660.json | 8509 | 2025-07-11 14:21:49 |
| - | 2586660_3816378_LoboTheBird_sketch22102734.png | 1301232 | 2025-07-11 14:21:49 |
| - | 2588251.json | 8329 | 2025-07-11 13:59:16 |
| - | 2588251_3818772_LoboTheBird_sketch1637774553333.png | 700195 | 2025-07-11 13:59:16 |
| - | 2589261.json | 7444 | 2025-07-12 09:18:14 |
| - | 2589261_3820400_LoboTheBird_sketch1637896689349.png | 708646 | 2025-07-12 09:18:14 |
| - | 2589882.json | 7535 | 2025-07-11 13:38:35 |
| - | 2589882_3821303_LoboTheBird_sketch1637983956787.png | 428220 | 2025-07-11 13:38:35 |
| - | 2590387.json | 7568 | 2025-07-11 13:30:58 |
| - | 2590387_3822309_LoboTheBird_sketch1638054043254.png | 969862 | 2025-07-11 13:30:58 |
| - | 2590956.json | 7576 | 2025-07-11 13:22:41 |
| - | 2590956_3823345_LoboTheBird_sketch1638128284266.png | 602146 | 2025-07-11 13:22:41 |
| - | 2591730.json | 10431 | 2025-07-11 13:12:31 |
| - | 2591730_3824560_LoboTheBird_sketch1638221279505.png | 785333 | 2025-07-11 13:12:30 |
| - | 2591730_3824562_LoboTheBird_sketch1638221382377.png | 791953 | 2025-07-11 13:12:31 |
| - | 2594129.json | 6512 | 2025-07-11 12:37:39 |
| - | 2594129_3828471_LoboTheBird_lobowag.gif | 703801 | 2025-07-11 12:37:39 |
| - | 2594742.json | 7485 | 2025-07-11 12:29:29 |
| - | 2594742_3829292_LoboTheBird_sketch1638597634623.png | 1046796 | 2025-07-11 12:29:29 |
| - | 2596225.json | 7764 | 2025-07-11 12:07:08 |
| - | 2596225_3831808_LoboTheBird_sketch1638781005143.png | 736692 | 2025-07-11 12:07:08 |
| - | 2597793.json | 7162 | 2025-07-11 11:46:36 |
| - | 2597793_3834253_LoboTheBird_sketch1638954652750.png | 668938 | 2025-07-11 11:46:36 |
| - | 2598492.json | 7609 | 2025-07-11 11:36:48 |
| - | 2598492_3835487_LoboTheBird_fed325df-467a-4a37-9034-80c01d0cbcfd.png | 351749 | 2025-07-11 11:36:48 |
| - | 2601038.json | 7153 | 2025-07-11 10:55:33 |
| - | 2601038_3839441_LoboTheBird_sketch1639346418370.png | 640519 | 2025-07-11 10:55:33 |
| - | 2604669.json | 16660 | 2025-07-11 09:59:50 |
| - | 2604669_3844940_LoboTheBird_sketch1639764806296.png | 788060 | 2025-07-11 09:59:49 |
| - | 2604669_3844943_LoboTheBird_sketch1639764777219.png | 799628 | 2025-07-11 09:59:49 |
| - | 2605130.json | 10389 | 2025-07-11 09:53:11 |
| - | 2605130_3845720_LoboTheBird_sketch1639814335226.png | 610011 | 2025-07-11 09:53:11 |
| - | 2605863.json | 7687 | 2025-07-11 09:42:44 |
| - | 2605863_3847018_LoboTheBird_sketch1639903978259.png | 840684 | 2025-07-11 09:42:44 |
| - | 2608133.json | 9437 | 2025-07-11 09:13:46 |
| - | 2608133_3851113_LoboTheBird_eb947d50-a397-46f5-9fcf-4cc4e8ab69c8.png | 363821 | 2025-07-11 09:13:46 |
| - | 2608147.json | 7531 | 2025-07-11 09:13:32 |
| - | 2608147_3851132_LoboTheBird_sketch1640147243021.png | 1091221 | 2025-07-11 09:13:32 |
| - | 2608162.json | 18901 | 2025-07-11 09:13:19 |
| - | 2608162_3851148_LoboTheBird_3844593_alessio626_double_paw_off_christmas_2021_art_trade_sketch_22_colored_5.jpg | 357569 | 2025-07-11 09:13:19 |
| - | 2608162_3851152_LoboTheBird_3844594_alessio626_double_paw_off_christmas_2021_art_trade_sketch_22_colored_4.jpg | 351928 | 2025-07-11 09:13:19 |
| - | 2608162_3851154_LoboTheBird_3844595_alessio626_double_paw_off_christmas_2021_art_trade_sketch_22_colored_3.jpg | 349738 | 2025-07-11 09:13:20 |
| - | 2610695.json | 13399 | 2025-07-11 08:39:45 |
| - | 2610695_3856080_LoboTheBird_sketch1640474526873.png | 1297508 | 2025-07-11 08:39:45 |
| - | 2610695_3856082_LoboTheBird_sketch1640474511644.png | 1299044 | 2025-07-11 08:39:45 |
| - | 2614715.json | 7744 | 2025-07-11 07:44:58 |
| - | 2614715_3861184_LoboTheBird_kounalbum.png | 1411788 | 2025-07-11 07:44:58 |
| - | 2616015.json | 7419 | 2025-07-11 07:25:54 |
| - | 2616015_3863428_LoboTheBird_sketch1640998706305.png | 986208 | 2025-07-11 07:25:54 |
| - | 2617757.json | 11036 | 2025-07-11 06:59:37 |
| - | 2617757_3866500_LoboTheBird_sketch1641170977230.png | 1158867 | 2025-07-11 06:59:37 |
| - | 2617757_3866501_LoboTheBird_sketch1641171597052.png | 1138466 | 2025-07-11 06:59:38 |
| - | 2620456.json | 11027 | 2025-07-11 06:22:58 |
| - | 2620456_3870893_LoboTheBird_sketch1641456855696.png | 507369 | 2025-07-11 06:22:58 |
| - | 2620456_3870894_LoboTheBird_sketch1641456830930.png | 500830 | 2025-07-11 06:22:58 |
| - | 2624850.json | 13007 | 2025-07-11 05:23:40 |
| - | 2624850_3877772_LoboTheBird_sketch123143255.png | 1721494 | 2025-07-11 05:23:40 |
| - | 2637952.json | 14987 | 2025-07-11 02:33:30 |
| - | 2637952_3898378_LoboTheBird_felizcumplea_oslobin.png | 2458970 | 2025-07-11 02:33:30 |
| - | 2638214.json | 11839 | 2025-07-11 02:29:44 |
| - | 2638214_3898793_LoboTheBird_sketch1643573702709.png | 2478985 | 2025-07-11 02:29:44 |
| - | 2639300.json | 8016 | 2025-07-11 02:15:45 |
| - | 2639300_3900573_LoboTheBird_sketch1643670898721.png | 1018613 | 2025-07-11 02:15:45 |
| - | 2639300_3902013_LoboTheBird_sketch1643760770982.png | 983043 | 2025-07-11 02:15:45 |
| - | 2641032.json | 15407 | 2025-07-12 00:41:23 |
| - | 2641032_3903090_LoboTheBird_3898283_alessio626_birthday_sex_with_wolfie_and_azul_2022_sketch_14_colored_4.jpg | 323989 | 2025-07-12 00:41:22 |
| - | 2641032_3903091_LoboTheBird_3898284_alessio626_birthday_sex_with_wolfie_and_azul_2022_sketch_14_colored_3.jpg | 293184 | 2025-07-12 00:41:23 |
| - | 2642889.json | 6802 | 2025-07-11 01:26:50 |
| - | 2642889_3906240_LoboTheBird_sketch1644045618023.png | 730366 | 2025-07-11 01:26:50 |
| - | 2644009.json | 10666 | 2025-07-11 01:11:25 |
| - | 2644009_3907752_LoboTheBird_sniwrancheroundies.png | 1349924 | 2025-07-11 01:11:25 |
| - | 2644009_3907754_LoboTheBird_snowrancheronude.png | 1357024 | 2025-07-11 01:11:25 |
| - | 2646804.json | 7544 | 2025-07-11 00:34:16 |
| - | 2646804_3912216_LoboTheBird_sketch1644375093817.png | 1745816 | 2025-07-11 00:34:16 |
| - | 2648742.json | 7688 | 2025-07-10 23:54:38 |
| - | 2648742_3915354_LoboTheBird_loboxtiffany.png | 1867700 | 2025-07-10 23:54:38 |
| - | 2652581.json | 8173 | 2025-07-10 22:58:05 |
| - | 2652581_3921481_LoboTheBird_eskilobonolesabealalostmedia.png | 476005 | 2025-07-10 22:58:05 |
| - | 2653975.json | 7876 | 2025-07-10 22:38:23 |
| - | 2653975_3923588_LoboTheBird_underwearrulebitches.png | 916353 | 2025-07-10 22:38:23 |
| - | 2655346.json | 8417 | 2025-07-10 22:18:22 |
| - | 2655346_3925898_LoboTheBird_novoyadibujarpatasputos.png | 1646492 | 2025-07-10 22:18:22 |
| - | 2667822.json | 13047 | 2025-07-10 19:13:35 |
| - | 2667822_3945729_LoboTheBird_kounxsnowrancheros.png | 1707997 | 2025-07-10 19:13:35 |
| - | 2668944.json | 8531 | 2025-07-10 18:51:41 |
| - | 2668944_3947579_LoboTheBird_1637392304.avenonymussape55_sketch19515429.png | 571369 | 2025-07-10 18:51:41 |
| - | 2685784.json | 12766 | 2025-07-10 14:18:45 |
| - | 2685784_3974227_LoboTheBird_snowxwolfie.png | 1852218 | 2025-07-10 14:18:45 |
| - | 2686911.json | 15091 | 2025-07-10 14:01:42 |
| - | 2686911_3976137_LoboTheBird_3970168_alessio626_scooter_drive_with_snow_that_isnt_my_hand_sketch_16_colored_5.jpg | 2925904 | 2025-07-10 14:01:42 |
| - | 2686911_3976138_LoboTheBird_3970169_alessio626_scooter_drive_with_snow_that_isnt_my_hand_sketch_16_colored_3.jpg | 391923 | 2025-07-10 14:01:42 |
| - | 2691643.json | 9459 | 2025-07-10 18:19:17 |
| - | 2691643_3984317_LoboTheBird_megustaense_armisunides.png | 1581291 | 2025-07-10 18:19:17 |
| - | 2692669.json | 10288 | 2025-07-10 18:18:08 |
| - | 2692669_3985904_LoboTheBird_feliz_cumplea_c3_b1os.mp4 | 16388977 | 2025-07-10 18:18:08 |
| - | 2692671.json | 10373 | 2025-07-10 18:18:07 |
| - | 2692671_3985906_LoboTheBird_happybirthdaykoun.png | 1275606 | 2025-07-10 18:18:07 |
| - | 2698750.json | 11281 | 2025-07-10 10:46:11 |
| - | 2698750_3995772_LoboTheBird_giftartkoun.png | 1689109 | 2025-07-10 10:46:11 |
| - | 2700118.json | 9404 | 2025-07-10 10:23:44 |
| - | 2700118_3998034_LoboTheBird_uysisevanaponerdedignospendejos.png | 853573 | 2025-07-10 10:23:44 |
| - | 2703858.json | 9254 | 2025-07-10 09:25:14 |
| - | 2703858_4004040_LoboTheBird_asiquelobolegustaelfetichismo.png | 886058 | 2025-07-10 09:25:14 |
| - | 2704873.json | 7541 | 2025-07-10 09:11:54 |
| - | 2704873_4005699_LoboTheBird_ahiestamienemigoeltenisyunchucho.png | 774136 | 2025-07-10 09:11:54 |
| - | 2707850.json | 7714 | 2025-07-10 08:32:56 |
| - | 2707850_4010446_LoboTheBird_pakitacabeza.png | 844676 | 2025-07-10 08:32:56 |
| - | 2709013.json | 10144 | 2025-07-10 17:45:44 |
| - | 2709013_4012212_LoboTheBird_siniestro.png | 698034 | 2025-07-10 17:45:44 |
| - | 2709982.json | 9419 | 2025-07-10 08:05:10 |
| - | 2709982_4013682_LoboTheBird_lalecheedtabacaducada.png | 1486118 | 2025-07-10 08:05:10 |
| - | 2710741.json | 6299 | 2025-07-10 17:39:48 |
| - | 2710741_4014798_LoboTheBird_ardansedeesta.png | 999044 | 2025-07-10 17:39:48 |
| - | 2711324.json | 8054 | 2025-07-10 07:46:47 |
| - | 2711324_4015715_LoboTheBird_comanpito.png | 1603768 | 2025-07-10 07:46:47 |
| - | 2714365.json | 9902 | 2025-07-10 07:02:27 |
| - | 2714365_4020632_LoboTheBird_snowcharactersheet.png | 1237207 | 2025-07-10 07:02:27 |
| - | 2714365_4020633_LoboTheBird_vielvideodelatevea.png | 1237627 | 2025-07-10 07:02:27 |
| - | 2715659.json | 10180 | 2025-07-10 06:42:59 |
| - | 2715659_4022766_LoboTheBird_zachgiftart_1_.png | 830116 | 2025-07-10 06:42:59 |
| - | 2716748.json | 8561 | 2025-07-10 06:24:47 |
| - | 2716748_4024525_LoboTheBird_1647589629.avenonymussape55_sketch18513131.jpg | 204829 | 2025-07-10 06:24:47 |
| - | 2719632.json | 12489 | 2025-07-10 05:45:02 |
| - | 2719632_4028896_LoboTheBird_sketch20514947.png | 1779561 | 2025-07-10 05:45:02 |
| - | 2720163.json | 7822 | 2025-07-10 05:37:23 |
| - | 2720163_4029689_LoboTheBird_1648101023.avenonymussape55_paqueseveachido.png | 972227 | 2025-07-10 05:37:23 |
| - | 2721165.json | 12209 | 2025-07-10 05:21:05 |
| - | 2721165_4031454_LoboTheBird_zachandwolfieguftart.png | 1664946 | 2025-07-10 05:21:05 |
| - | 2721174.json | 15866 | 2025-07-10 05:20:58 |
| - | 2721174_4031467_LoboTheBird_4027923_alessio626_masterubating_and_cumming_together_sketch_14_coloured_3.jpg | 1367468 | 2025-07-10 05:20:58 |
| - | 2721174_4031468_LoboTheBird_4027924_alessio626_masterubating_and_cumming_together_sketch_14_coloured_2.jpg | 1250494 | 2025-07-10 05:20:58 |
| - | 2725285.json | 8659 | 2025-07-10 04:20:30 |
| - | 2725285_4038107_LoboTheBird_s_betewey2021.png | 1559828 | 2025-07-10 04:20:30 |
| - | 2725738.json | 8135 | 2025-07-10 04:14:20 |
| - | 2725738_4038879_LoboTheBird_elpatolucasdirigiolapelicula.png | 881149 | 2025-07-10 04:14:20 |
| - | 2727042.json | 13397 | 2025-07-10 03:55:46 |
| - | 2727042_4041088_LoboTheBird_sketch1653883581699.png | 798595 | 2025-07-10 03:55:46 |
| - | 2728492.json | 7110 | 2025-07-10 03:30:46 |
| - | 2728492_4043162_LoboTheBird_espurooro.png | 810496 | 2025-07-10 03:30:46 |
| - | 2729884.json | 13447 | 2025-07-10 03:04:57 |
| - | 2729884_4045344_LoboTheBird_snowgaypridemonth.png | 876472 | 2025-07-10 03:04:57 |
| - | 2729884_4045345_LoboTheBird_52cd95fb-ff58-497e-a254-9b42a5d3014e.png | 917269 | 2025-07-10 03:04:57 |
| - | 2729884_4045348_LoboTheBird_escrotodemiidolo.png | 923015 | 2025-07-10 03:04:57 |
| - | 2731240.json | 11709 | 2025-07-10 02:40:00 |
| - | 2731240_4047735_LoboTheBird_eraunajuniormeant.png | 1029941 | 2025-07-10 02:40:00 |
| - | 2732518.json | 11430 | 2025-07-10 03:44:59 |
| - | 2732518_4049894_LoboTheBird_serefurryortoroxo.png | 2747625 | 2025-07-10 03:44:59 |
| - | 2734660.json | 8509 | 2025-07-10 01:37:11 |
| - | 2734660_4053223_LoboTheBird_parecenviejos.png | 717286 | 2025-07-10 01:37:11 |
| - | 2736204.json | 8390 | 2025-07-10 01:12:14 |
| - | 2736204_4055685_LoboTheBird_tuveqi_ueiratalonear.png | 2618430 | 2025-07-10 01:12:14 |
| - | 2736976.json | 7311 | 2025-07-10 00:59:01 |
| - | 2736976_4057055_LoboTheBird_elchulirogando.png | 1043237 | 2025-07-10 00:59:01 |
| - | 2738038.json | 8372 | 2025-07-10 00:42:10 |
| - | 2738038_4058870_LoboTheBird_yaquierojugarputamadre.png | 919182 | 2025-07-10 00:42:10 |
| - | 2738849.json | 7870 | 2025-07-10 00:29:32 |
| - | 2738849_4060102_LoboTheBird_hayunavedebajodemicama.png | 983760 | 2025-07-10 00:29:32 |
| - | 2740721.json | 10275 | 2025-07-09 23:57:04 |
| - | 2740721_4063040_LoboTheBird_lapeliculadeterrordedisney.png | 2048347 | 2025-07-09 23:57:04 |
| - | 2745599.json | 8620 | 2025-07-09 22:30:38 |
| - | 2745599_4070359_LoboTheBird_pridemonthmiahuevos.png | 2503757 | 2025-07-09 22:30:38 |
| - | 2748321.json | 8170 | 2025-07-09 21:41:18 |
| - | 2748321_4074296_LoboTheBird_extracostumepack.png | 1477904 | 2025-07-09 21:41:18 |
| - | 2749756.json | 7201 | 2025-07-09 21:19:24 |
| - | 2749756_4077154_LoboTheBird_yapasaelnivelcarbon_.png | 951248 | 2025-07-09 21:19:24 |
| - | 2751300.json | 7970 | 2025-07-09 20:54:48 |
| - | 2751300_4080191_LoboTheBird_fixed.png | 1796957 | 2025-07-09 20:54:48 |
| - | 2753685.json | 7550 | 2025-07-09 20:16:17 |
| - | 2753685_4083887_LoboTheBird_mebanearondetwicth_.png | 1952009 | 2025-07-09 20:16:17 |
| - | 2754447.json | 7170 | 2025-07-09 20:05:01 |
| - | 2754447_4084961_LoboTheBird_soyfurrydecloset.png | 733302 | 2025-07-09 20:05:01 |
| - | 2755574.json | 11593 | 2025-07-09 19:49:51 |
| - | 2755574_4087049_LoboTheBird_koungiftartfix.png | 1975194 | 2025-07-09 19:49:51 |
| - | 2757072.json | 8395 | 2025-07-09 19:29:13 |
| - | 2757072_4089177_LoboTheBird_elanrybirdsaguacate.png | 3173997 | 2025-07-09 19:29:13 |
| - | 2762687.json | 7517 | 2025-07-09 18:09:00 |
| - | 2762687_4098001_LoboTheBird_nomerompasloshuevoshadow.png | 1740783 | 2025-07-09 18:09:00 |
| - | 2764611.json | 8259 | 2025-07-09 17:36:55 |
| - | 2764611_4101060_LoboTheBird_novoyaserprofesional.png | 832144 | 2025-07-09 17:36:55 |
| - | 2767181.json | 7156 | 2025-07-09 17:02:23 |
| - | 2767181_4105192_LoboTheBird_rietedelacaradelchuli.png | 2356701 | 2025-07-09 17:02:23 |
| - | 2770393.json | 7308 | 2025-07-10 02:44:29 |
| - | 2770393_4110198_LoboTheBird_elpiupiu.png | 836873 | 2025-07-10 02:44:29 |
| - | 2771133.json | 7081 | 2025-07-09 16:04:11 |
| - | 2771133_4111362_LoboTheBird_vetepoputo.png | 922276 | 2025-07-09 16:04:11 |
| - | 2773288.json | 8276 | 2025-07-09 15:33:42 |
| - | 2773288_4114780_LoboTheBird_yalatenianqueecagar.png | 891919 | 2025-07-09 15:33:42 |
| - | 2774126.json | 8499 | 2025-07-09 15:22:09 |
| - | 2774126_4116098_LoboTheBird_estotmedioido.png | 2036609 | 2025-07-09 15:22:09 |
| - | 2776593.json | 6952 | 2025-07-09 14:48:01 |
| - | 2776593_4119783_LoboTheBird_beybyealaverga.png | 706964 | 2025-07-09 14:48:01 |
| - | 2787641.json | 10937 | 2025-07-09 12:07:46 |
| - | 2787641_4137740_LoboTheBird_sketch14013159.png | 1012806 | 2025-07-09 12:07:46 |
| - | 2787641_4137741_LoboTheBird_mequierecortarlaceja.png | 760100 | 2025-07-09 12:07:46 |
| - | 2789549.json | 11587 | 2025-07-09 11:37:33 |
| - | 2789549_4141064_LoboTheBird_giftartkouncorrejido.png | 1373688 | 2022-08-17 10:52:46 |
| - | 2789549_4157163_LoboTheBird_comixfixedkoun.png | 1362095 | 2025-07-09 11:37:33 |
| - | 2791150.json | 7295 | 2025-07-09 11:13:50 |
| - | 2791150_4143674_LoboTheBird_snowescobar.png | 1422115 | 2025-07-09 11:13:50 |
| - | 2792477.json | 8496 | 2025-07-09 10:55:06 |
| - | 2792477_4145745_LoboTheBird_putoautodesk.png | 1593087 | 2025-07-09 10:55:06 |
| - | 2792942.json | 7272 | 2025-07-09 10:47:38 |
| - | 2792942_4146538_LoboTheBird_ahqueave.png | 756868 | 2025-07-09 10:47:38 |
| - | 2793981.json | 9084 | 2025-07-09 10:31:33 |
| - | 2793981_4148254_LoboTheBird_zachgiftart_1_.png | 626657 | 2025-07-09 10:31:33 |
| - | 2794728.json | 7493 | 2025-07-10 01:49:58 |
| - | 2794728_4149417_LoboTheBird_thepawsisforlosers.png | 717392 | 2025-07-10 01:49:58 |
| - | 2795589.json | 12953 | 2025-07-09 10:09:36 |
| - | 2795589_4150723_LoboTheBird_happybirthdaywolfie.png | 2489784 | 2025-07-09 10:09:36 |
| - | 2795819.json | 8335 | 2025-07-09 10:06:10 |
| - | 2795819_4151116_LoboTheBird_graciasyuzu.png | 850016 | 2025-07-09 10:06:10 |
| - | 2800168.json | 8166 | 2025-07-09 09:05:54 |
| - | 2800168_4158091_LoboTheBird_snowgayahoranosemeocurrionada.png | 931275 | 2025-07-09 09:05:54 |
| - | 2801713.json | 10650 | 2025-07-09 08:44:01 |
| - | 2801713_4160427_LoboTheBird_puspincheobrachafa.png | 2130658 | 2025-07-09 08:44:01 |
| - | 2801713_4160428_LoboTheBird_chalemerechazaronporsermexicanoxd.png | 2114214 | 2025-07-09 08:44:02 |
| - | 2802508.json | 8272 | 2025-07-09 08:32:38 |
| - | 2802508_4161688_LoboTheBird_yametienenhastalamadreconelvideodememoaponye.png | 1021107 | 2025-07-09 08:32:38 |
| - | 2804042.json | 7739 | 2025-07-09 08:12:15 |
| - | 2804042_4164125_LoboTheBird_esqeetacabronfirmarxd.png | 1760980 | 2025-07-09 08:12:15 |
| - | 2804894.json | 5638 | 2025-07-09 08:00:11 |
| - | 2804894_4165486_LoboTheBird_memexd.png | 726820 | 2025-07-09 08:00:11 |
| - | 2805664.json | 8913 | 2025-07-09 07:49:41 |
| - | 2805664_4166728_LoboTheBird_ofendansedeesta_1_.png | 1265342 | 2025-07-09 07:49:41 |
| - | 2807520.json | 8007 | 2025-07-09 07:24:25 |
| - | 2807520_4169585_LoboTheBird_ahiestaelbotondeumwacthsiquire.png | 689672 | 2025-07-09 07:24:25 |
| - | 2808650.json | 8381 | 2025-07-09 07:08:09 |
| - | 2808650_4171265_LoboTheBird_paraquenojoda.png | 895973 | 2025-07-09 07:08:09 |
| - | 2809265.json | 7377 | 2025-07-09 06:59:39 |
| - | 2809265_4172341_LoboTheBird_labarbaratorresvaasalirnomames.png | 900117 | 2025-07-09 06:59:39 |
| - | 2825989.json | 7003 | 2025-07-09 03:00:30 |
| - | 2825989_4198580_LoboTheBird_quieroeldegranave.png | 754063 | 2025-07-09 03:00:30 |
| - | 2826668.json | 8665 | 2025-07-09 02:50:41 |
| - | 2826668_4199600_LoboTheBird_fuckyouinkbunnyyfuraffinity.png | 859660 | 2025-07-09 02:50:41 |
| - | 2829914.json | 12982 | 2025-07-09 02:05:21 |
| - | 2829914_4204874_LoboTheBird_wolfiegiftart.png | 795610 | 2025-07-09 02:05:21 |
| - | 2834358.json | 13847 | 2025-07-09 00:56:52 |
| - | 2834358_4211593_LoboTheBird_4202177_alessio626_no_i_finished_my_game_i_didnt_came_x3_sketch_17_coloured_2.jpg | 173057 | 2025-07-09 00:56:52 |
| - | 2834358_4211594_LoboTheBird_4202180_alessio626_no_i_finished_my_game_i_didnt_came_x3_sketch_17_coloured.jpg | 135248 | 2025-07-09 00:56:52 |
| - | 2836451.json | 6966 | 2025-07-10 00:04:28 |
| - | 2836451_4214782_LoboTheBird_sketch182154255.png | 208873 | 2025-07-10 00:04:28 |
| - | 2838229.json | 8636 | 2025-07-09 00:02:32 |
| - | 2838229_4217325_LoboTheBird_tengolasteamdeck.png | 734747 | 2025-07-09 00:02:32 |
| - | 2839379.json | 7551 | 2025-07-08 23:43:53 |
| - | 2839379_4219441_LoboTheBird_meculeealprimodesnow.png | 788422 | 2025-07-08 23:43:53 |
| - | 2841523.json | 7845 | 2025-07-08 23:12:49 |
| - | 2841523_4222785_LoboTheBird_nopendejoestaempeorando.png | 1216751 | 2025-07-08 23:12:49 |
| - | 2841833.json | 7175 | 2025-07-08 23:07:29 |
| - | 2841833_4223262_LoboTheBird_sketch252101355.png | 173846 | 2025-07-08 23:07:29 |
| - | 2844989.json | 11306 | 2025-07-09 23:45:07 |
| - | 2844989_4228280_LoboTheBird_soyelgsto.png | 824486 | 2025-07-09 23:45:06 |
| - | 2844989_4228282_LoboTheBird_1720599_angrybird69_sketch13016457_1_.jpg | 120144 | 2025-07-09 23:45:07 |
| - | 2846143.json | 12987 | 2025-07-09 23:43:36 |
| - | 2846143_4230195_LoboTheBird_arttradekoun.png | 1556393 | 2025-07-09 23:43:36 |
| - | 2846393.json | 6056 | 2025-07-08 21:56:55 |
| - | 2846393_4230638_LoboTheBird_sketch30020398.png | 494550 | 2025-07-08 21:56:55 |
| - | 2847094.json | 7834 | 2025-07-08 21:43:53 |
| - | 2847094_4231654_LoboTheBird_halloween.png | 783414 | 2025-07-08 21:43:53 |
| - | 2851547.json | 8608 | 2025-07-08 20:30:31 |
| - | 2851547_4239797_LoboTheBird_elonmuskmedespidio.png | 1067540 | 2025-07-08 20:30:31 |
| - | 2853469.json | 8106 | 2025-07-09 23:36:21 |
| - | 2853469_4243081_LoboTheBird_podreveraestebisco.png | 968280 | 2025-07-09 23:36:21 |
| - | 2858179.json | 7630 | 2025-07-09 23:27:45 |
| - | 2858179_4250543_LoboTheBird_arruineelcontrato.png | 799100 | 2025-07-09 23:27:45 |
| - | 2859104.json | 6926 | 2025-07-08 18:32:56 |
| - | 2859104_4251888_LoboTheBird_megolpearonenunbargay.png | 920770 | 2025-07-08 18:32:56 |
| - | 2861928.json | 6994 | 2025-07-08 17:49:15 |
| - | 2861928_4256503_LoboTheBird_yojugandovr.png | 791839 | 2025-07-08 17:49:15 |
| - | 2864539.json | 7515 | 2025-07-08 17:06:27 |
| - | 2864539_4260904_LoboTheBird_comoamigoselatevi.png | 685078 | 2025-07-08 17:06:27 |
| - | 2865878.json | 8113 | 2025-07-08 16:41:03 |
| - | 2865878_4262942_LoboTheBird_estoybienpedo.png | 876189 | 2025-07-08 16:41:03 |
| - | 2866218.json | 9020 | 2025-07-08 16:35:13 |
| - | 2866218_4263443_LoboTheBird_lascajasteviolan.png | 983847 | 2025-07-08 16:35:13 |
| - | 2887209.json | 12498 | 2025-07-08 10:06:58 |
| - | 2887209_4297078_LoboTheBird_merrychristmaskoun.png | 825961 | 2025-07-08 10:06:58 |
| - | 2888813.json | 12245 | 2025-07-08 09:30:59 |
| - | 2888813_4299497_LoboTheBird_merrychristmaswolfie.png | 1044778 | 2025-07-08 09:30:59 |
| - | 2891608.json | 7049 | 2025-07-08 08:41:36 |
| - | 2891608_4304075_LoboTheBird_memorizocolores.png | 399908 | 2025-07-08 08:41:36 |
| - | 2898768.json | 7293 | 2025-07-08 06:44:09 |
| - | 2898768_4316117_LoboTheBird_sketch1673065059820.png | 1079226 | 2025-07-08 06:44:09 |
| - | 2903806.json | 7673 | 2025-07-08 05:23:30 |
| - | 2903806_4324441_LoboTheBird_sketch1673648497867.png | 714407 | 2025-07-08 05:23:30 |
| - | 2904281.json | 9702 | 2025-07-08 05:15:39 |
| - | 2904281_4325143_LoboTheBird_gitfartzach.png | 350064 | 2025-07-08 05:15:39 |
| - | 2905870.json | 6376 | 2023-01-18 11:29:03 |
| - | 2905870_4327785_LoboTheBird_elloboni.png | 864406 | 2023-01-18 11:29:03 |
| - | 2910040.json | 9391 | 2025-07-08 03:37:50 |
| - | 2910040_4334257_LoboTheBird_commissionforcharlesdragon.png | 1495957 | 2025-07-08 03:37:50 |
| - | 2912901.json | 13379 | 2025-07-08 02:43:01 |
| - | 2912901_4338893_LoboTheBird_comisionforgem.png | 2857328 | 2025-07-08 02:43:01 |
| - | 2912901_4338895_LoboTheBird_comisionforgemaltcum.png | 2827942 | 2025-07-08 02:43:02 |
| - | 2913970.json | 7780 | 2025-07-08 02:25:11 |
| - | 2913970_4340628_LoboTheBird_soyellobais.png | 586515 | 2025-07-08 02:25:11 |
| - | 2916103.json | 5933 | 2025-07-08 01:49:11 |
| - | 2916103_4344044_LoboTheBird_happybirthdaylobo.png | 924827 | 2025-07-08 01:49:11 |
| - | 2920124.json | 7197 | 2025-07-08 00:35:42 |
| - | 2920124_4350683_LoboTheBird_soyelstudiofalconi.png | 560668 | 2025-07-08 00:35:42 |
| - | 2920823.json | 7423 | 2025-07-08 00:22:40 |
| - | 2920823_4351925_LoboTheBird_mecagoenautodesk_.png | 1075646 | 2025-07-08 00:22:40 |
| - | 2921553.json | 5679 | 2025-07-08 00:09:03 |
| - | 2921553_4353059_LoboTheBird_sketch619817.png | 208939 | 2025-07-08 00:09:03 |
| - | 2923871.json | 8112 | 2025-07-07 23:20:15 |
| - | 2923871_4357191_LoboTheBird_latia.png | 988324 | 2025-07-07 23:20:15 |
| - | 2924260.json | 17182 | 2025-07-07 23:11:57 |
| - | 2924260_4357746_LoboTheBird_4354028_alessio626_wolfie_double_jerk_off_2023_sketch_22_coloured_3.jpg | 1824771 | 2025-07-07 23:11:56 |
| - | 2924260_4357747_LoboTheBird_4354031_alessio626_wolfie_double_jerk_off_2023_sketch_22_coloured_2.jpg | 1706550 | 2025-07-07 23:11:57 |
| - | 2924260_4357748_LoboTheBird_4354033_alessio626_wolfie_double_jerk_off_2023_sketch_22_coloured.jpg | 1690891 | 2025-07-07 23:12:00 |
| - | 2928270.json | 11448 | 2025-07-07 21:36:53 |
| - | 2928270_4364511_LoboTheBird_koungiftart_2_.png | 816070 | 2023-02-15 12:11:53 |
| - | 2928270_4364959_LoboTheBird_kounfixgiftart.png | 817134 | 2025-07-07 21:36:53 |
| - | 2928470.json | 8180 | 2025-07-07 21:32:31 |
| - | 2928470_4364885_LoboTheBird_odiolosnivelesdeagua.png | 753738 | 2025-07-07 21:32:31 |
| - | 2930832.json | 8004 | 2025-07-07 20:37:44 |
| - | 2930832_4369034_LoboTheBird_tuzaversioncumbia.png | 805915 | 2025-07-07 20:37:44 |
| - | 2932238.json | 7870 | 2025-07-07 20:02:37 |
| - | 2932238_4371646_LoboTheBird_undiasiendoniviodesnow.png | 653908 | 2025-07-07 20:02:37 |
| - | 2933837.json | 7252 | 2025-07-07 19:21:39 |
| - | 2933837_4374423_LoboTheBird_mepuseharocho.png | 332710 | 2025-07-07 19:21:39 |
| - | 2938286.json | 12276 | 2025-07-07 17:29:49 |
| - | 2938286_4381350_LoboTheBird_chosme.png | 646089 | 2025-07-07 17:29:49 |
| - | 2938286_4381351_LoboTheBird_latevea.png | 647958 | 2025-07-07 17:29:49 |
| - | 2938286_4381352_LoboTheBird_lacumbiadelopezobrador.png | 612936 | 2025-07-07 17:29:49 |
| - | 2945413.json | 11543 | 2025-07-05 23:40:14 |
| - | 2945413_4392512_LoboTheBird_elchino.png | 1701931 | 2025-07-05 23:40:14 |
| - | 2950277.json | 10614 | 2025-07-05 22:18:46 |
| - | 2950277_4400434_LoboTheBird_lovethisfox.png | 1435032 | 2025-07-05 22:18:46 |
| - | 2950846.json | 7260 | 2025-07-05 22:08:06 |
| - | 2950846_4401294_LoboTheBird_esungordito.png | 1106521 | 2025-07-05 22:08:06 |
| - | 2952491.json | 5358 | 2025-07-05 21:38:01 |
| - | 2952491_4403965_LoboTheBird_sketch17512543.png | 359003 | 2025-07-05 21:38:01 |
| - | 2954620.json | 6958 | 2025-07-05 21:00:24 |
| - | 2954620_4407521_LoboTheBird_bulgememe.png | 214404 | 2025-07-05 21:00:24 |
| - | 2955839.json | 8296 | 2025-07-05 20:38:19 |
| - | 2955839_4409502_LoboTheBird_perdimicolaboracion.png | 797376 | 2025-07-05 20:38:19 |
| - | 2957416.json | 7132 | 2025-07-05 20:12:09 |
| - | 2957416_4412476_LoboTheBird_sketch1679761436964.png | 523629 | 2025-07-05 20:12:09 |
| - | 2959616.json | 8970 | 2025-07-05 19:26:13 |
| - | 2959616_4415989_LoboTheBird_1646531501.avenonymussape55_mequieroculearalgatodehierbaxd.jpg | 294762 | 2025-07-05 19:26:13 |
| - | 2960963.json | 5444 | 2025-07-05 18:55:46 |
| - | 2960963_4418143_LoboTheBird_sketch304104628.png | 350898 | 2025-07-05 18:55:46 |
| - | 2962183.json | 7951 | 2025-07-05 18:35:45 |
| - | 2962183_4420097_LoboTheBird_mamadagamer.png | 651752 | 2025-07-05 18:35:45 |
| - | 2964961.json | 9258 | 2025-07-05 17:46:17 |
| - | 2964961_4424971_LoboTheBird_sketch1680653017493.png | 289806 | 2025-07-05 17:46:17 |
| - | 2970059.json | 7178 | 2025-07-05 16:16:29 |
| - | 2970059_4434256_LoboTheBird_elsnowporro.png | 295115 | 2025-07-05 16:16:29 |
| - | 2970764.json | 6878 | 2025-07-05 16:04:46 |
| - | 2970764_4435787_LoboTheBird_eociervomata.png | 393090 | 2025-07-05 16:04:46 |
| - | 2971483.json | 13106 | 2025-07-05 15:52:39 |
| - | 2971483_4437340_LoboTheBird_happy_birthday_koun.png | 1407458 | 2025-07-05 15:52:39 |
| - | 2973522.json | 7384 | 2025-07-05 15:17:31 |
| - | 2973522_4441407_LoboTheBird_vaversegundaparte.png | 888255 | 2025-07-05 15:17:31 |
| - | 2975192.json | 10152 | 2025-07-05 14:49:29 |
| - | 2975192_4444547_LoboTheBird_sketch1681922448595.png | 2175220 | 2025-07-05 14:49:29 |
| - | 2978648.json | 10102 | 2025-07-05 13:47:02 |
| - | 2978648_4450161_LoboTheBird_sketch1682347987526.png | 2131093 | 2025-07-05 13:47:02 |
| - | 2980554.json | 6491 | 2025-07-05 13:10:07 |
| - | 2980554_4453233_LoboTheBird_momentolobotops.png | 771679 | 2025-07-05 13:10:07 |
| - | 2980904.json | 7410 | 2025-07-05 13:02:07 |
| - | 2980904_4453923_LoboTheBird_sketch1682649829308.png | 325985 | 2025-07-05 13:02:07 |
| - | 2984865.json | 8187 | 2025-07-05 11:41:01 |
| - | 2984865_4460230_LoboTheBird_mesuscribiawhatthegame.png | 1799870 | 2025-07-05 11:41:01 |
| - | 3040702.json | 7405 | 2025-07-04 04:41:30 |
| - | 3040702_4550047_LoboTheBird_sketch1686795417849.png | 2130423 | 2025-07-04 04:41:30 |
| - | 3041668.json | 7700 | 2025-07-04 04:23:55 |
| - | 3041668_4551508_LoboTheBird_sketch1686276317331.png | 1699215 | 2025-07-04 04:23:55 |
| - | 3047306.json | 11564 | 2025-07-04 02:40:34 |
| - | 3047306_4561039_LoboTheBird_sketch1687973028828.png | 1927620 | 2025-07-04 02:40:34 |
| - | 3070120.json | 6308 | 2025-07-03 20:14:11 |
| - | 3070120_4597048_LoboTheBird_sketch1689300247089.png | 915625 | 2025-07-03 20:14:11 |
| - | 3072024.json | 6444 | 2025-07-03 19:39:58 |
| - | 3072024_4600043_LoboTheBird_eselsnowgimnasta.png | 2351087 | 2025-07-03 19:39:58 |
| - | 3073353.json | 5866 | 2025-07-03 19:15:09 |
| - | 3073353_4602373_LoboTheBird_aveenterteinet.png | 1534212 | 2025-07-03 19:15:09 |
| - | 3074131.json | 6865 | 2025-07-03 19:00:05 |
| - | 3074131_4603604_LoboTheBird_elloboni_1_.png | 1966090 | 2025-07-03 19:00:05 |
| - | 3076780.json | 8655 | 2025-07-03 17:51:19 |
| - | 3076780_4607758_LoboTheBird_sketch1690393619839.png | 2222038 | 2025-07-03 17:51:19 |
| - | 3077678.json | 10218 | 2025-07-03 17:34:56 |
| - | 3077678_4609214_LoboTheBird_else_ordoctor.png | 2458219 | 2025-07-03 17:34:56 |
| - | 3081406.json | 6274 | 2025-07-03 16:29:12 |
| - | 3081406_4617960_LoboTheBird_quieropussy.png | 1546209 | 2025-07-03 16:29:12 |
| - | 3091170.json | 11543 | 2025-07-03 13:38:30 |
| - | 3091170_4630435_LoboTheBird_elblsquekokiri.png | 2045162 | 2025-07-03 13:38:30 |
| - | 3091170_4632056_LoboTheBird_sketch1691860219526.png | 2139239 | 2025-07-03 13:38:31 |
| - | 3092036.json | 7689 | 2025-07-03 13:21:22 |
| - | 3092036_4631974_LoboTheBird_sketch1691855135565.png | 3135518 | 2025-07-03 13:21:22 |
| - | 3095589.json | 7407 | 2025-07-03 12:12:43 |
| - | 3095589_4638170_LoboTheBird_sketch1692216205693.png | 2471555 | 2025-07-03 12:12:43 |
| - | 3096113.json | 8787 | 2025-07-03 12:03:37 |
| - | 3096113_4639044_LoboTheBird_sketch1692285388278.png | 1879877 | 2025-07-03 12:03:37 |
| - | 3098613.json | 9002 | 2025-07-03 11:13:00 |
| - | 3098613_4643037_LoboTheBird_sketch1692543650288.png | 2612606 | 2025-07-03 11:13:00 |
| - | 3101916.json | 6363 | 2025-07-03 10:06:35 |
| - | 3101916_4648222_LoboTheBird_nopagueniuneuro.png | 1631376 | 2025-07-03 10:06:35 |
| - | 3102476.json | 11370 | 2025-07-03 09:53:37 |
| - | 3102476_4649755_LoboTheBird_felizcumplea_oswolfie.png | 723386 | 2025-07-03 09:53:37 |
| - | 3104158.json | 6831 | 2025-07-03 09:25:09 |
| - | 3104158_4652456_LoboTheBird_sketch1693157032143.png | 3213931 | 2025-07-03 09:25:09 |
| - | 3106630.json | 10635 | 2025-07-03 08:40:12 |
| - | 3106630_4657172_LoboTheBird_mamadasenjapones.png | 1518704 | 2025-07-03 08:40:12 |
| - | 3106630_4659379_LoboTheBird_sketch1693500000121.png | 1540025 | 2025-07-03 08:40:13 |
| - | 3109376.json | 5832 | 2025-07-03 07:49:22 |
| - | 3109376_4662917_LoboTheBird_donlobo.png | 1030338 | 2025-07-03 07:49:22 |
| - | 3112149.json | 8233 | 2025-07-03 07:00:07 |
| - | 3112149_4668289_LoboTheBird_sketch1693945427521.png | 1753038 | 2025-07-03 07:00:07 |
| - | 3112876.json | 12246 | 2025-07-03 06:46:45 |
| - | 3112876_4669765_LoboTheBird_estoedtangay.png | 2461984 | 2025-07-03 06:46:45 |
| - | 3113601.json | 7722 | 2025-07-03 06:34:24 |
| - | 3113601_4670883_LoboTheBird_ofendasedeesta.png | 688560 | 2025-07-03 06:34:24 |
| - | 3114748.json | 10138 | 2025-07-03 06:15:41 |
| - | 3114748_4672786_LoboTheBird_sketch1694211193771.png | 2950639 | 2025-07-03 06:15:41 |
| - | 3114748_4673812_LoboTheBird_koolero.png | 2961375 | 2025-07-03 06:15:41 |
| - | 3117908.json | 6238 | 2025-07-03 05:19:12 |
| - | 3117908_4677759_LoboTheBird_sketch1694542482516.png | 1252819 | 2025-07-03 05:19:12 |
| - | 3119403.json | 7295 | 2025-07-03 04:52:04 |
| - | 3119403_4680148_LoboTheBird_fe87a4a6-773b-47e0-b5d9-ec582145113e.png | 1040136 | 2025-07-03 04:52:04 |
| - | 3123703.json | 10050 | 2025-07-03 03:27:37 |
| - | 3123703_4688316_LoboTheBird_loboxmorgana.png | 2274317 | 2025-07-03 03:27:37 |
| - | 3124413.json | 7516 | 2025-07-03 03:15:42 |
| - | 3124413_4689462_LoboTheBird_ellobokuso.png | 2127492 | 2025-07-03 03:15:42 |
| - | 3134037.json | 6440 | 2025-07-03 00:22:16 |
| - | 3134037_4706410_LoboTheBird_yo_creo_que_el_chili_es_gay.png | 1573352 | 2025-07-03 00:22:16 |
| - | 3136947.json | 9070 | 2025-07-02 23:28:25 |
| - | 3136947_4711292_LoboTheBird_sketch1696432411883.png | 2457284 | 2025-07-02 23:28:25 |
| - | 3151798.json | 8512 | 2025-07-02 18:46:53 |
| - | 3151798_4735082_LoboTheBird_elaves.png | 1479677 | 2025-07-02 18:46:53 |
| - | 3159771.json | 6494 | 2025-07-02 16:14:48 |
| - | 3159771_4748442_LoboTheBird_pipepunkesave.png | 1307001 | 2025-07-02 16:14:48 |
| - | 3165897.json | 7028 | 2025-07-02 14:09:22 |
| - | 3165897_4758357_LoboTheBird_arttradewithmowub.png | 2611364 | 2025-07-02 14:09:22 |
| - | 3170136.json | 10329 | 2025-07-02 12:44:51 |
| - | 3170136_4764937_LoboTheBird_arttradewithsarah.png | 2273613 | 2025-07-02 12:44:51 |
| - | 3174661.json | 11362 | 2025-07-02 11:09:27 |
| - | 3174661_4772449_LoboTheBird_elchulistrade.png | 1415096 | 2025-07-02 11:09:27 |
| - | 3176500.json | 10156 | 2025-07-02 10:32:08 |
| - | 3176500_4775388_LoboTheBird_sketch1700234567951.png | 914555 | 2025-07-02 10:32:07 |
| - | 3176500_4775396_LoboTheBird_sketch1700235060301.png | 916932 | 2025-07-02 10:32:08 |
| - | 3180981.json | 8158 | 2025-07-02 09:04:19 |
| - | 3180981_4783510_LoboTheBird_849a08f5-6029-4fb8-b827-aeaee3cd32b6.png | 2705559 | 2025-07-02 09:04:19 |
| - | 3182834.json | 6164 | 2025-07-02 08:30:29 |
| - | 3182834_4786777_LoboTheBird_fuerzaarmadachina.png | 999184 | 2025-07-02 08:30:29 |
| - | 3187666.json | 9279 | 2025-07-02 07:04:00 |
| - | 3187666_4795315_LoboTheBird_me_encontraronenqwaahwshevwi.png | 1141143 | 2025-07-02 07:03:59 |
| - | 3187666_4795318_LoboTheBird_mneprecesaron.png | 1148260 | 2025-07-02 07:04:00 |
| - | 3190336.json | 5771 | 2025-07-02 06:17:55 |
| - | 3190336_4799649_LoboTheBird_elchavis.png | 1330523 | 2025-07-02 06:17:55 |
| - | 3194038.json | 8648 | 2025-07-02 05:11:32 |
| - | 3194038_4805786_LoboTheBird_adictoporno.png | 1886244 | 2025-07-02 05:11:32 |
| - | 3197866.json | 8819 | 2025-07-02 04:03:55 |
| - | 3197866_4811936_LoboTheBird_silolobohubeirasidoimpirtante.png | 1690082 | 2025-07-02 04:03:55 |
| - | 3204036.json | 12118 | 2025-07-02 02:13:33 |
| - | 3204036_4822198_LoboTheBird_giftsrtconacentoespa_ol.png | 2058248 | 2025-07-02 02:13:33 |
| - | 3206583.json | 6328 | 2025-07-02 01:29:15 |
| - | 3206583_4826471_LoboTheBird_sketch1703350220102.png | 1752591 | 2025-07-02 01:29:15 |
| - | 3208248.json | 9530 | 2025-07-02 00:58:07 |
| - | 3208248_4829463_LoboTheBird_kmeon.png | 1951780 | 2025-07-02 00:58:07 |
| - | 3208248_4829469_LoboTheBird_3530062_lobothebird_sketch30213425.png | 523234 | 2025-07-02 00:58:09 |
| - | 3212554.json | 6180 | 2025-07-01 23:37:30 |
| - | 3212554_4837343_LoboTheBird_mobieara.png | 1626470 | 2025-07-01 23:37:30 |
| - | 3216869.json | 11845 | 2025-07-01 22:10:48 |
| - | 3216869_4845051_LoboTheBird_haceuncbingo.png | 1687534 | 2025-07-01 22:10:48 |
| - | 3220945.json | 5602 | 2025-07-01 20:55:20 |
| - | 3220945_4851988_LoboTheBird_soybienvergas.png | 2512087 | 2025-07-01 20:55:20 |
| - | 3221935.json | 6552 | 2025-07-01 20:35:31 |
| - | 3221935_4853754_LoboTheBird_quierocigerafemblydesnow.png | 956769 | 2025-07-01 20:35:31 |
| - | 3224289.json | 5555 | 2025-07-01 19:52:39 |
| - | 3224289_4857867_LoboTheBird_elpolyrobot.png | 646694 | 2025-07-01 19:52:39 |
| - | 3229118.json | 9920 | 2025-07-01 18:10:52 |
| - | 3229118_4866131_LoboTheBird_character_sheet_lobo.png | 1463787 | 2025-07-01 18:10:51 |
| - | 3229118_4866205_LoboTheBird_charactersheetnude.png | 1516581 | 2025-07-01 18:10:52 |
| - | 3234563.json | 8704 | 2025-07-01 16:34:44 |
| - | 3234563_4875241_LoboTheBird_elloboh.png | 1183138 | 2025-07-01 16:34:44 |
| - | 3237631.json | 10755 | 2025-07-01 15:38:43 |
| - | 3237631_4880297_LoboTheBird_my_birthday.png | 2074249 | 2025-07-01 15:38:43 |
| - | 3239416.json | 7446 | 2025-07-01 15:08:05 |
| - | 3239416_4883681_LoboTheBird_elyoshienpokemlnn.png | 2198685 | 2025-07-01 15:08:05 |
| - | 3243238.json | 7344 | 2025-07-01 13:57:05 |
| - | 3243238_4890550_LoboTheBird_essss.png | 2999160 | 2025-07-01 13:57:05 |
| - | 3253080.json | 10557 | 2025-07-01 10:54:15 |
| - | 3253080_4907659_LoboTheBird_blackcolevr.png | 2915025 | 2025-07-01 10:54:15 |
| - | 3261437.json | 7466 | 2025-07-01 08:14:51 |
| - | 3261437_4923486_LoboTheBird_birdmosa.png | 1933722 | 2025-07-01 08:14:51 |
| - | 3294176.json | 6206 | 2025-06-30 21:26:14 |
| - | 3294176_4981876_LoboTheBird_zombiesentuabodo.png | 519071 | 2025-06-30 21:26:14 |
| - | 3295756.json | 6125 | 2025-06-30 20:53:20 |
| - | 3295756_4985297_LoboTheBird_menu_toconlwichi.png | 2136647 | 2025-06-30 20:53:20 |
| - | 3296584.json | 6467 | 2025-06-30 20:36:11 |
| - | 3296584_4985936_LoboTheBird_novoyadibuajrpatasenjapones.png | 1904857 | 2025-06-30 20:36:11 |
| - | 3297332.json | 10078 | 2025-06-30 20:20:48 |
| - | 3297332_4988184_LoboTheBird_soyamigosey.png | 1455672 | 2025-06-30 20:20:45 |
| - | 3297332_4988186_LoboTheBird_elabe.png | 1602047 | 2025-06-30 20:20:48 |
| - | 3298130.json | 7381 | 2025-06-30 20:04:06 |
| - | 3298130_4990587_LoboTheBird_tadelaverga.png | 1742356 | 2025-06-30 20:04:06 |
| - | 3299598.json | 10300 | 2025-06-30 19:26:16 |
| - | 3299598_4993191_LoboTheBird_happy_birthday_koun_.png | 1981749 | 2025-06-30 19:26:16 |
| - | 3300610.json | 9586 | 2025-06-30 19:04:01 |
| - | 3300610_4995082_LoboTheBird_soyelfurrymaspeligroso.png | 1855453 | 2025-06-30 19:04:01 |
| - | 3300610_4995084_LoboTheBird_zetazetazeta.png | 1806499 | 2025-06-30 19:04:01 |
| - | 3301462.json | 7467 | 2025-06-30 18:47:43 |
| - | 3301462_4996350_LoboTheBird_novoyiralavelada.png | 2490213 | 2025-06-30 18:47:43 |
| - | 3303581.json | 6594 | 2025-06-30 17:46:18 |
| - | 3303581_4999900_LoboTheBird_sketch184214738.png | 838640 | 2025-06-30 17:46:18 |
| - | 3304036.json | 6325 | 2025-06-30 17:36:36 |
| - | 3304036_5000634_LoboTheBird_lacantaaveloid.png | 1678164 | 2025-06-30 17:36:36 |
| - | 3306698.json | 6605 | 2025-06-30 16:42:34 |
| - | 3306698_5004863_LoboTheBird_siusabaia.png | 2081854 | 2025-06-30 16:42:34 |
| - | 3307469.json | 8515 | 2025-06-30 16:26:50 |
| - | 3307469_5006039_LoboTheBird_pride_months_.png | 1905107 | 2025-06-30 16:26:50 |
| - | 3309557.json | 10593 | 2025-06-30 15:42:22 |
| - | 3309557_5009360_LoboTheBird_giftartwolfie.png | 3018772 | 2025-06-30 15:42:22 |
| - | 3311482.json | 7353 | 2025-06-30 14:59:08 |
| - | 3311482_5013061_LoboTheBird_soybienvergas_1_.png | 2028901 | 2025-06-30 14:59:08 |
| - | 3316376.json | 7299 | 2025-06-30 13:05:22 |
| - | 3316376_5021836_LoboTheBird_mi_opini_n_que_naidepido.png | 1212775 | 2025-06-30 13:05:22 |
| - | 3317206.json | 6757 | 2025-06-30 12:46:56 |
| - | 3317206_5023893_LoboTheBird_unmeetgreetconquico.png | 2565920 | 2025-06-30 12:46:56 |
| - | 3318536.json | 12605 | 2025-06-30 12:15:57 |
| - | 3318536_5026313_LoboTheBird_gem_happy_birthday_.png | 2370329 | 2025-06-30 12:15:57 |
| - | 3318536_5026314_LoboTheBird_happy_birthday_gem_cum_alt.png | 2368141 | 2025-06-30 12:15:57 |
| - | 3328177.json | 6554 | 2025-06-30 08:50:58 |
| - | 3328177_5043127_LoboTheBird_loboemjapones.png | 1782174 | 2025-06-30 08:50:58 |
| - | 3330499.json | 6423 | 2025-06-30 08:10:16 |
| - | 3330499_5046942_LoboTheBird_peligrosatucola.png | 1605704 | 2025-06-30 08:10:16 |
| - | 3331937.json | 8634 | 2025-06-30 07:44:51 |
| - | 3331937_5049280_LoboTheBird_hayesdondeentranlosartistasbatman.png | 2035420 | 2025-06-30 07:44:51 |
| - | 3335754.json | 5988 | 2025-06-30 06:35:00 |
| - | 3335754_5055408_LoboTheBird_elloboviwjuner.png | 2740154 | 2025-06-30 06:35:00 |
| - | 3339827.json | 7949 | 2025-06-30 05:16:02 |
| - | 3339827_5063169_LoboTheBird_4bb8db37-a854-41d6-99cb-594b9389e0d7.png | 2408224 | 2025-06-30 05:16:02 |
| - | 3343255.json | 9400 | 2025-06-30 04:08:16 |
| - | 3343255_5069063_LoboTheBird_1a30d5fb-ca03-4342-9edd-663fb8726f2e.png | 1601763 | 2025-06-30 04:08:16 |
| - | 3344533.json | 6750 | 2025-06-30 03:43:22 |
| - | 3344533_5071444_LoboTheBird_27cbb2da-b535-49d4-b2e5-4d462df5e441.png | 2060932 | 2025-06-30 03:43:22 |
| - | 3346217.json | 6654 | 2025-06-30 03:07:29 |
| - | 3346217_5075311_LoboTheBird_bf3ad4c7-c0e3-4be3-93eb-ccfb5437f367.png | 608467 | 2025-06-30 03:07:29 |
| - | 3347208.json | 11214 | 2025-06-30 02:49:50 |
| - | 3347208_5076822_LoboTheBird_1d0489ad-d1de-4441-aa96-7096e6d15e21.png | 1874391 | 2025-06-30 02:49:50 |
| - | 3348698.json | 7312 | 2025-06-30 02:21:41 |
| - | 3348698_5079245_LoboTheBird_ea90bbf4-3e22-48d0-a449-7a7cdcb2c9a6.png | 1179794 | 2025-06-30 02:21:41 |
| - | 3349531.json | 11048 | 2025-06-30 02:07:31 |
| - | 3349531_5080602_LoboTheBird_f4592f6c-3373-4748-aeac-593ebb8ed9ea.png | 1821335 | 2025-06-30 02:07:31 |
| - | 3350300.json | 7363 | 2025-06-30 01:54:37 |
| - | 3350300_5081920_LoboTheBird_adf46caa-65e6-48fe-9c23-78caaada2a1b.png | 2651136 | 2025-06-30 01:54:37 |
| - | 3358287.json | 7524 | 2025-06-29 23:04:12 |
| - | 3358287_5096666_LoboTheBird_dff94768-17d4-4e2c-8a16-e2c3b1dcacd3.png | 1845101 | 2025-06-29 23:04:12 |
| - | 3361599.json | 5657 | 2025-06-29 21:59:32 |
| - | 3361599_5102333_LoboTheBird_d521c9c7-6a44-4e91-98f5-aa917491aa12.png | 1312495 | 2025-06-29 21:59:32 |
| - | 3372919.json | 8839 | 2025-06-29 18:04:20 |
| - | 3372919_5122129_LoboTheBird_dc591bc7-f79f-49a1-9ba9-3ebc07c024c7.png | 2252914 | 2025-06-29 18:04:20 |
| - | 3375948.json | 13640 | 2025-06-29 16:58:22 |
| - | 3375948_5127184_LoboTheBird_b178e739-a5f0-4bf6-b0d9-96826dff767a.png | 1645311 | 2025-06-29 16:58:22 |
| - | 3375948_5127186_LoboTheBird_8d82570b-515a-4180-b688-e06549d1b191.png | 1654056 | 2025-06-29 16:58:22 |
| - | 3375948_5127188_LoboTheBird_3b68d067-56f5-467c-b649-cd81eb599a20.png | 1933359 | 2025-06-29 16:58:23 |
| - | 3378143.json | 7164 | 2025-06-29 16:05:10 |
| - | 3378143_5131018_LoboTheBird_e9f30494-6334-46d9-8abb-5ea503ed4548.png | 431500 | 2025-06-29 16:05:10 |
| - | 3378983.json | 6713 | 2025-06-29 15:49:57 |
| - | 3378983_5132564_LoboTheBird_d806a8c5-0934-4d6f-bf9c-5817e26364c5.png | 1959281 | 2025-06-29 15:49:57 |
| - | 3380917.json | 7857 | 2025-06-29 15:07:55 |
| - | 3380917_5135793_LoboTheBird_4e4d01ac-a1f9-4b1b-990c-f77842627b55.png | 1489887 | 2025-06-29 15:07:55 |
| - | 3383830.json | 8061 | 2025-06-29 14:00:46 |
| - | 3383830_5140875_LoboTheBird_c7afc9e2-a663-487b-a6ca-b9872214ad28.png | 1837219 | 2025-06-29 14:00:46 |
| - | 3388499.json | 11369 | 2025-06-29 12:16:45 |
| - | 3388499_5148848_LoboTheBird_4ec9c650-7799-48e5-bbe5-a7b648f77cf8.png | 2526473 | 2025-06-29 12:16:45 |
| - | 3390282.json | 7949 | 2025-06-29 11:32:15 |
| - | 3390282_5151766_LoboTheBird_01cac13e-5c7a-4765-bc8e-74b5ec0a2ccf.png | 1485873 | 2025-06-29 11:32:15 |
| - | 3390998.json | 6645 | 2025-06-29 11:15:52 |
| - | 3390998_5152950_LoboTheBird_b4fca611-d963-4819-ae11-cb68c5c8ee03.png | 1382354 | 2025-06-29 11:15:52 |
| - | 3398844.json | 10514 | 2025-06-29 08:15:35 |
| - | 3398844_5165880_LoboTheBird_afd408e7-9e08-4c8c-900f-43f23e8dcf18.png | 2285960 | 2025-06-29 08:15:35 |
| - | 3406237.json | 11739 | 2025-06-29 05:32:16 |
| - | 3406237_5179084_LoboTheBird_5bb4ea93-ca9b-4a34-b90e-66e6548af108.png | 2344659 | 2025-06-29 05:32:16 |
| - | 3408045.json | 7251 | 2025-06-29 04:51:16 |
| - | 3408045_5182264_LoboTheBird_4e34c3fd-7a43-447f-b2b1-5ab6cdc2c095.png | 2046002 | 2025-06-29 04:51:16 |
| - | 3412133.json | 5812 | 2025-06-29 03:31:15 |
| - | 3412133_5189603_LoboTheBird_6119795b-7a81-4cf5-afbe-2bdcab986672.png | 986143 | 2025-06-29 03:31:15 |
| - | 3416716.json | 10071 | 2025-06-29 01:59:31 |
| - | 3416716_5197170_LoboTheBird_2c64144c-5bc7-466b-bbb0-561b03319750.png | 2461073 | 2025-06-29 01:59:31 |
| - | 3424037.json | 6082 | 2025-06-28 23:34:16 |
| - | 3424037_5209550_LoboTheBird_soylamujercrew.png | 794251 | 2025-06-28 23:34:16 |
| - | 3431226.json | 7366 | 2025-06-28 21:02:06 |
| - | 3431226_5221865_LoboTheBird_lacasadelasaves.png | 5023690 | 2025-06-28 21:02:06 |
| - | 3433788.json | 8002 | 2025-06-28 20:08:31 |
| - | 3433788_5225702_LoboTheBird_mischistesdegumballzxd.png | 3782308 | 2025-06-28 20:08:31 |
| - | 3435793.json | 8853 | 2025-06-28 19:27:46 |
| - | 3435793_5228970_LoboTheBird_ymi4khijosdesuputa_adre.png | 5861320 | 2025-06-28 19:27:46 |
| - | 3437264.json | 6069 | 2025-06-28 18:56:02 |
| - | 3437264_5231862_LoboTheBird__eireparasemrpexd.png | 3151126 | 2025-06-28 18:56:02 |
| - | 3438074.json | 6274 | 2025-06-28 18:38:46 |
| - | 3438074_5233331_LoboTheBird_enchujazan.png | 4146793 | 2025-06-28 18:38:46 |
| - | 3441012.json | 7296 | 2025-06-28 17:25:32 |
| - | 3441012_5239199_LoboTheBird_soyellobodelminecraft.png | 3440267 | 2025-06-28 17:25:32 |
| - | 3446719.json | 5841 | 2025-06-28 15:11:18 |
| - | 3446719_5248347_LoboTheBird_peroamimegusto.png | 2665318 | 2025-06-28 15:11:18 |
| - | 3453371.json | 13294 | 2025-06-28 12:52:48 |
| - | 3453371_5260710_LoboTheBird_page2_2.png | 3397642 | 2025-06-28 12:52:48 |
| - | 3453371_5326293_LoboTheBird_elclew.jpg | 2487764 | 2025-06-28 12:52:48 |
| - | 3463162.json | 10650 | 2025-06-28 09:11:52 |
| - | 3463162_5279320_LoboTheBird_halloweenunderwear.png | 5870486 | 2025-06-28 09:11:52 |
| - | 3463162_5279324_LoboTheBird_halloweengay.png | 5915171 | 2025-06-28 09:11:53 |
| - | 3464729.json | 16991 | 2025-06-28 08:42:15 |
| - | 3464729_5281940_LoboTheBird_wolfiegiftart.png | 3331615 | 2025-06-28 08:42:15 |
| - | 3464729_5281943_LoboTheBird_wolfiegiftartnude.png | 3308744 | 2025-06-28 08:42:15 |
| - | 3464729_5281944_LoboTheBird_wolfieanal_.png | 3300099 | 2025-06-28 08:42:16 |
| - | 3470008.json | 11805 | 2025-06-28 06:57:30 |
| - | 3470008_5291228_LoboTheBird_avemujer.png | 7957993 | 2025-06-28 06:57:30 |
| - | 3471987.json | 7261 | 2025-06-28 06:18:59 |
| - | 3471987_5294650_LoboTheBird_elmortalkombat3.jpg | 2706439 | 2025-06-28 06:18:59 |
| - | 3473540.json | 5211 | 2025-06-28 05:47:31 |
| - | 3473540_5297253_LoboTheBird_elavemoka.jpg | 967885 | 2025-06-28 05:47:31 |
| - | 3475906.json | 8522 | 2025-06-28 05:00:06 |
| - | 3475906_5301186_LoboTheBird_tengoonline.jpg | 2541546 | 2025-06-28 05:00:06 |
| - | 3481541.json | 9070 | 2025-06-28 02:55:16 |
| - | 3481541_5310989_LoboTheBird_sketch1732130142411.png | 3287088 | 2025-06-28 02:55:16 |
| - | 3482844.json | 5831 | 2025-06-28 02:27:01 |
| - | 3482844_5313287_LoboTheBird_ahoradirerepampanos.jpg | 1178435 | 2025-06-28 02:27:01 |
| - | 3485314.json | 5699 | 2025-06-28 01:38:18 |
| - | 3485314_5317767_LoboTheBird_elchulony.jpg | 890526 | 2025-06-28 01:38:18 |
| - | 3490759.json | 10556 | 2025-06-27 23:35:25 |
| - | 3490759_5327724_LoboTheBird_introducelaenelfamdon_.jpg | 2866236 | 2025-06-27 23:35:25 |
| - | 3496895.json | 5480 | 2025-06-27 21:14:06 |
| - | 3496895_5338450_LoboTheBird_soysuoinchesombra.jpg | 2437122 | 2025-06-27 21:14:06 |
| - | 3498246.json | 7378 | 2025-06-27 20:40:37 |
| - | 3498246_5340933_LoboTheBird_elloborosa.jpg | 2711408 | 2025-06-27 20:40:37 |
| - | 3498919.json | 6565 | 2025-06-27 20:16:07 |
| - | 3498919_5342287_LoboTheBird_ellobocantandoenesperanto.jpg | 914605 | 2025-06-27 20:16:07 |
| - | 3501223.json | 7129 | 2025-06-27 19:24:45 |
| - | 3501223_5346448_LoboTheBird_esqueestadificol.png | 1264482 | 2025-06-27 19:24:45 |
| - | 3502805.json | 6214 | 2025-06-27 18:49:32 |
| - | 3502805_5349597_LoboTheBird_peroave.jpg | 1322732 | 2025-06-27 18:49:32 |
| - | 3507689.json | 10599 | 2025-06-27 16:55:53 |
| - | 3507689_5358565_LoboTheBird_giftartwolfie.png | 3640660 | 2025-06-27 16:55:53 |
| - | 3508477.json | 10663 | 2025-06-27 16:39:31 |
| - | 3508477_5359853_LoboTheBird_avesysue_os.jpg | 2590755 | 2025-06-27 16:39:31 |
| - | 3510078.json | 6114 | 2025-06-27 15:58:54 |
| - | 3510078_5362743_LoboTheBird_pecadodelacarne.jpg | 3082590 | 2025-06-27 15:58:54 |
| - | 3512451.json | 7314 | 2025-06-27 14:54:10 |
| - | 3512451_5367026_LoboTheBird_seacabaelsoprteentwiter.png | 4005220 | 2025-06-27 14:54:10 |
| - | 3516314.json | 14169 | 2025-06-27 13:29:34 |
| - | 3516314_5374131_LoboTheBird_spanishsquisision.png | 3595247 | 2025-06-27 13:29:34 |
| - | 3518356.json | 6124 | 2025-06-27 12:48:55 |
| - | 3518356_5377820_LoboTheBird_sketch1736132974336.jpg | 1552066 | 2025-06-27 12:48:55 |
| - | 3524230.json | 6209 | 2025-06-27 10:51:44 |
| - | 3524230_5388591_LoboTheBird_losamigosdechuliesgay.jpg | 752372 | 2025-06-27 10:51:44 |
| - | 3526074.json | 5844 | 2025-06-27 10:06:16 |
| - | 3526074_5392039_LoboTheBird_snowgay.jpg | 590068 | 2025-06-27 10:06:16 |
| - | 3526797.json | 6080 | 2025-06-27 09:49:56 |
| - | 3526797_5393405_LoboTheBird_medijoave.jpg | 1358019 | 2025-06-27 09:49:56 |
| - | 3528096.json | 6902 | 2025-06-27 09:19:36 |
| - | 3528096_5395732_LoboTheBird_mevanafunarxd.jpg | 835643 | 2025-06-27 09:19:36 |
| - | 3532027.json | 9643 | 2025-06-27 08:01:33 |
| - | 3532027_5403526_LoboTheBird_giftart.jpg | 1536920 | 2025-06-27 08:01:33 |
| - | 3532786.json | 5849 | 2025-06-27 07:48:20 |
| - | 3532786_5405011_LoboTheBird_yporquedegameofthones.jpg | 1570187 | 2025-06-27 07:48:20 |
| - | 3535305.json | 6009 | 2025-06-27 06:59:27 |
| - | 3535305_5409748_LoboTheBird_elhombrehongos.jpg | 1734368 | 2025-06-27 06:59:27 |
| - | 3537521.json | 5849 | 2025-06-27 06:14:21 |
| - | 3537521_5413928_LoboTheBird_aveballgp.jpg | 1142427 | 2025-06-27 06:14:21 |
| - | 3537871.json | 12938 | 2025-06-27 06:07:38 |
| - | 3537871_5414643_LoboTheBird_happy_birthday_.jpg | 3069419 | 2025-06-27 06:07:38 |
| - | 3540842.json | 7394 | 2025-06-27 05:11:21 |
| - | 3540842_5420334_LoboTheBird_eskiisparaimprimir.png | 2921264 | 2025-06-27 05:11:21 |
| - | 3541421.json | 6161 | 2025-06-27 04:59:04 |
| - | 3541421_5421431_LoboTheBird_solo_unasnaderasbailando.jpg | 949263 | 2025-06-27 04:59:04 |
| - | 3548072.json | 11667 | 2025-06-27 02:49:33 |
| - | 3548072_5433705_LoboTheBird_comornelbiohazarddeps1.jpg | 2051587 | 2025-06-27 02:49:33 |
| - | 3553090.json | 7788 | 2025-06-27 01:14:30 |
| - | 3553090_5443123_LoboTheBird_garocemita.jpg | 1898018 | 2025-06-27 01:14:30 |
| - | 3555481.json | 6476 | 2025-06-27 00:28:10 |
| - | 3555481_5447445_LoboTheBird_comoenelplaystation1.jpg | 864395 | 2025-06-27 00:28:10 |
| - | 3558025.json | 7223 | 2025-06-26 23:35:46 |
| - | 3558025_5452088_LoboTheBird_ahuevorrmakedepersona4.jpg | 961081 | 2025-06-26 23:35:46 |
| - | 3567408.json | 7205 | 2025-06-26 20:11:02 |
| - | 3567408_5469957_LoboTheBird_elpinchemaumespoiloe.jpg | 1786697 | 2025-06-26 20:11:02 |
| - | 3580402.json | 5852 | 2025-06-26 14:45:05 |
| - | 3580402_5495075_LoboTheBird_f1f37441-4538-46fb-932f-003b002dd436.png | 2360839 | 2025-06-26 14:45:05 |
| - | 3582086.json | 6286 | 2025-06-26 13:58:07 |
| - | 3582086_5499033_LoboTheBird_soylaputapolla.png | 4095971 | 2025-06-26 13:58:07 |
| - | 3583722.json | 5202 | 2025-06-26 13:20:57 |
| - | 3583722_5501906_LoboTheBird_sketch1743204594925.png | 3664493 | 2025-06-26 13:20:57 |
| - | 3585533.json | 8055 | 2025-06-26 12:35:59 |
| - | 3585533_5505013_LoboTheBird_peronoseoyeigual.jpg | 1666847 | 2025-06-26 12:35:59 |
| - | 3586927.json | 5719 | 2025-06-26 11:59:01 |
| - | 3586927_5507897_LoboTheBird_snowhijodesuchugadamadre.jpg | 651827 | 2025-06-26 11:59:01 |
| - | 3593979.json | 5767 | 2025-06-26 09:06:34 |
| - | 3593979_5520999_LoboTheBird_mequieroculearatalsuwu.jpg | 2188141 | 2025-06-26 09:06:34 |
| - | 3594693.json | 5964 | 2025-06-26 08:50:04 |
| - | 3594693_5522319_LoboTheBird_leescupielrefrescoxd.jpg | 1039930 | 2025-06-26 08:50:04 |
| - | 3596445.json | 11634 | 2025-06-26 08:11:04 |
| - | 3596445_5525537_LoboTheBird_happy_birthday_koun.jpg | 2523279 | 2025-06-26 08:11:04 |
| - | 3604333.json | 6106 | 2025-06-26 05:13:48 |
| - | 3604333_5539913_LoboTheBird_yanomegustapokekn.jpg | 2394131 | 2025-06-26 05:13:48 |
| - | 3605140.json | 6651 | 2025-06-26 04:56:36 |
| - | 3605140_5541282_LoboTheBird_buenoenemigos.jpg | 2280333 | 2025-06-26 04:56:36 |
| - | 3614191.json | 11565 | 2025-06-26 01:58:59 |
| - | 3614191_5556851_LoboTheBird_wolfiegifart.jpg | 2822215 | 2025-06-26 01:58:59 |
| - | 3617690.json | 6491 | 2025-06-26 00:48:32 |
| - | 3617690_5562893_LoboTheBird_esqueyaestoyruco.png | 1334265 | 2025-06-26 00:48:32 |
| - | 3619194.json | 5831 | 2025-06-26 00:17:56 |
| - | 3619194_5565413_LoboTheBird_cheboludo.jpg | 2403345 | 2025-06-26 00:17:56 |
| - | 3623788.json | 6665 | 2025-06-25 22:45:10 |
| - | 3623788_5573282_LoboTheBird_mevanabalacearave.jpg | 2185230 | 2025-06-25 22:45:10 |
| - | 3627653.json | 8637 | 2025-06-25 21:21:38 |
| - | 3627653_5579747_LoboTheBird_lagamwboy.jpg | 3269660 | 2025-06-25 21:21:38 |
| - | 3633256.json | 6541 | 2025-06-24 15:49:38 |
| - | 3633256_5589401_LoboTheBird_elchavo.jpg | 2111272 | 2025-06-24 15:49:38 |
| - | 3636886.json | 6438 | 2025-06-24 14:34:37 |
| - | 3636886_5595427_LoboTheBird_laendupdateseacerca.jpg | 1945862 | 2025-06-24 14:34:37 |
| - | 3637750.json | 6197 | 2025-06-24 14:18:49 |
| - | 3637750_5596914_LoboTheBird_novoyadubuharlaspatasdegodzilla.jpg | 1128434 | 2025-06-24 14:18:49 |
| - | 3644004.json | 8122 | 2025-06-24 11:36:30 |
| - | 3644004_5607301_LoboTheBird_d4461b36-5807-4c71-ae7d-961a3a18277a.png | 2266083 | 2025-06-24 11:36:30 |
| - | 3650647.json | 8545 | 2025-06-27 15:42:55 |
| - | 3650647_5618241_LoboTheBird_678c5066-9207-4aea-9dcc-a4972a51d87b.png | 3243937 | 2025-06-27 15:42:55 |
| - | 3656207.json | 9383 | 2025-07-05 08:19:45 |
| - | 3656207_5627476_LoboTheBird_losavechurrosshow.jpg | 2739958 | 2025-07-05 08:19:45 |
| - | 3656207_5627478_LoboTheBird_loslobochurrosshow.jpg | 2726651 | 2025-07-05 08:19:45 |
| - | 3661592.json | 7920 | 2025-07-12 08:11:08 |
| - | 3661592_5636883_LoboTheBird_4636e9da-e46a-4aa3-bcf0-0e8551db072b.png | 5344225 | 2025-07-12 08:11:08 |
| - | 3662708.json | 7046 | 2025-07-14 17:57:52 |
| - | 3662708_5638803_LoboTheBird_donroberto.jpg | 1359264 | 2025-07-14 17:57:52 |
| - | 3670371.json | 9090 | 2025-07-24 19:58:59 |
| - | 3670371_5652626_LoboTheBird_862ea650-e0a2-4d83-80bb-5d611bd6416d.png | 4670967 | 2025-07-24 19:58:59 |
| - | 3673389.json | 9918 | 2025-07-28 17:12:30 |
| - | 3673389_5657775_LoboTheBird_elchulitenis.jpg | 1378411 | 2025-07-28 17:12:29 |
| - | 3673389_5657776_LoboTheBird_ahquependeja.jpg | 1419389 | 2025-07-28 17:12:30 |
| - | 3678163.json | 11633 | 2025-08-08 17:39:06 |
| - | 3678163_5666397_LoboTheBird_enoctubresalepokemon.jpg | 845609 | 2025-08-08 17:39:06 |
| - | 3678163_5666400_LoboTheBird_voyacomprarunasiwrch2.jpg | 866640 | 2025-08-08 17:39:06 |
| - | 3679772.json | 8587 | 2025-08-08 16:58:23 |
| - | 3679772_5668925_LoboTheBird_mecuetsa16folres.jpg | 3818565 | 2025-08-08 16:58:23 |
| - | 3690378.json | 6409 | 2025-08-21 18:23:04 |
| - | 3690378_5687616_LoboTheBird_eseelchuli.jpg | 1960201 | 2025-08-21 18:23:04 |
| - | 3692795.json | 10777 | 2025-08-25 06:46:06 |
| - | 3692795_5691813_LoboTheBird_happy_birthday_wolfie.jpg | 2478582 | 2025-08-25 06:46:06 |
| - | 3697133.json | 6047 | 2025-08-31 23:39:57 |
| - | 3697133_5699863_LoboTheBird_2a1d2003-87d5-4a4c-b521-e84482bb6acc.png | 1201665 | 2025-08-31 23:39:57 |
| - | 3698516.json | 6585 | 2025-09-02 20:18:40 |
| - | 3698516_5702404_LoboTheBird_sememuriolavieja.jpg | 1832611 | 2025-09-02 20:18:40 |
| - | 3703613.json | 6893 | 2025-09-10 00:24:31 |
| - | 3703613_5711423_LoboTheBird_quechinguesumadrezach.jpg | 1740028 | 2025-09-10 00:24:31 |
| - | 3704978.json | 11497 | 2025-09-11 20:24:29 |
| - | 3704978_5713841_LoboTheBird_aquienatraslosjuegos.jpg | 1166926 | 2025-09-11 20:24:27 |
| - | 3704978_5713846_LoboTheBird_shuevoelsngrybird3.jpg | 1166167 | 2025-09-11 20:24:27 |
| - | 3704978_5713847_LoboTheBird_yzachchingatumadreotravez.jpg | 1163095 | 2025-09-11 20:24:29 |
| - | 3707512.json | 9702 | 2025-09-15 18:03:21 |
| - | 3707512_5718601_LoboTheBird_novoyadibujarpataaenjaoomes.jpg | 2261612 | 2025-09-15 18:03:21 |
| - | 3707512_5718602_LoboTheBird_eldeseirtoestavacio.jpg | 2255552 | 2025-09-15 18:03:21 |
| - | 3712798.json | 10760 | 2025-09-23 17:16:31 |
| - | 3712798_5729080_LoboTheBird_wolfiegiftart.jpg | 2465319 | 2025-09-23 17:16:31 |
| - | 3716273.json | 15558 | 2025-09-28 23:25:50 |
| - | 3716273_5735296_LoboTheBird_sketch1759091335215.png | 2574684 | 2025-09-28 23:25:50 |
| - | 3719857.json | 8019 | 2025-10-11 21:48:40 |
| - | 3719857_5741313_LoboTheBird_perdioconunreligiosoxd.png | 2931602 | 2025-10-11 21:48:40 |
| - | 3720409.json | 5077 | 2025-10-11 21:34:37 |
| - | 3720409_5742181_LoboTheBird_sketch1759567220002.jpg | 686614 | 2025-10-11 21:34:37 |
| - | 3722154.json | 7226 | 2025-10-11 20:48:22 |
| - | 3722154_5745208_LoboTheBird_noviyadibujarpatasenjapones.jpg | 1793256 | 2025-10-11 20:48:22 |
| - | 3725172.json | 8586 | 2025-10-11 19:29:52 |
| - | 3725172_5750406_LoboTheBird_4676cf18-2dd9-4867-b150-3cd3d952bf91.png | 4866141 | 2025-10-11 19:29:52 |
| - | 3727428.json | 9193 | 2025-10-13 21:31:12 |
| - | 3727428_5754249_LoboTheBird_ca16240d-a3c7-4da6-b71e-4770b573bde0.png | 3697841 | 2025-10-13 21:31:12 |
| - | 3737616.json | 12789 | 2025-10-27 19:30:11 |
| - | 3737616_5772857_LoboTheBird_sketch1761592856698.jpg | 3135288 | 2025-10-27 19:30:11 |
| - | 3737616_5772859_LoboTheBird_ellobo17.jpg | 3149124 | 2025-10-27 19:30:11 |
| - | 3737616_5772860_LoboTheBird_sketch1761592235530.jpg | 3179247 | 2025-10-27 19:30:11 |
| - | 3778765.json | 12787 | 2025-12-25 00:42:31 |
| - | 3778765_5845618_LoboTheBird_4bf3392c-58de-4627-bbbc-14399935becb.png | 1531950 | 2025-12-25 00:42:31 |
| - | 3792185.json | 7103 | 2026-01-13 16:50:21 |
| - | 3792185_5869764_LoboTheBird_5244b3ce-b667-46f7-a9ee-20bf612337e7.png | 1199490 | 2026-01-13 16:50:21 |
| - | 3794962.json | 6736 | 2026-01-17 16:49:12 |
| - | 3794962_5874444_LoboTheBird_0d691891-0a1a-48cb-bf82-d8483165f07f.png | 1952414 | 2026-01-17 16:49:12 |
| - | 3796305.json | 6351 | 2026-01-19 17:56:32 |
| - | 3796305_5877270_LoboTheBird_sketch1768845149694.jpg | 1036791 | 2026-01-19 17:56:32 |
| - | 3797674.json | 9573 | 2026-01-21 16:58:23 |
| - | 3797674_5879677_LoboTheBird_sketch1769014270089.jpg | 2081799 | 2026-01-21 16:58:23 |
| - | 3797674_5879678_LoboTheBird_megustaelviejodise_o.jpg | 2025776 | 2026-01-21 16:58:23 |
| - | 3799732.json | 6561 | 2026-01-24 19:57:22 |
| - | 3799732_5883352_LoboTheBird_804b51bd-d54e-4593-a231-94818068f6a1.png | 2136337 | 2026-01-24 19:57:22 |
| - | 3802267.json | 6577 | 2026-01-28 19:56:49 |
| - | 3802267_5887930_LoboTheBird_cuandoellobomexicanolohace.jpg | 2419769 | 2026-01-28 19:56:49 |
| - | 3803301.json | 6035 | 2026-01-30 08:34:50 |
| - | 3803301_5890200_LoboTheBird_micumpleaos.jpg | 1934955 | 2026-01-30 08:34:50 |